[[{"header":{"parameterUnit":"m.s-1","parameterCategory":1,"la1":30.6,"la2":28.766,"lo1":-90.7593,"lo2":-88.6598,"dy":0.0162,"dx":0.0183,"nx":116,"ny":114,"refTime":"2023-05-29T06:00:00:Z","depth":0,"parameterNumber":2,"parameterNumberName":"U-component_of_WINDS"},"data":[0.0,0.0,0.0,0.0,0.0,0.0,0.0,0.0,0.0,0.0,0.0,0.0,0.0,0.0,0.0,0.0,0.0,0.0,0.0,0.0,0.0,0.0,0.0,0.0,0.0,0.0,0.0,0.0,0.0,0.0,0.0,0.0,0.0,0.0,0.0,0.0,0.0,0.0,0.0,0.0,0.0,0.0,0.0,0.0,0.0,0.0,0.0,0.0,0.0,0.0,0.0,0.0,0.0,0.0,0.0,0.0,0.0,0.0,0.0,0.0,0.0,0.0,0.0,0.0,0.0,0.0,0.0,0.0,0.0,0.0,0.0,0.0,0.0,0.0,0.0,0.0,0.0,0.0,0.0,0.0,0.0,0.0,0.0,0.0,0.0,0.0,0.0,0.0,0.0,0.0,0.0,0.0,0.0,0.0,0.0,0.0,0.0,0.0,0.0,0.0,0.0,0.0,0.0,0.0,0.0,0.0,0.0,0.0,0.0,0.0,0.0,0.0,0.0,0.0,0.0,0.0,0.0,0.0,0.0,0.0,0.0,0.0,0.0,0.0,0.0,0.0,0.0,0.0,0.0,0.0,0.0,0.0,0.0,0.0,0.0,0.0,0.0,0.0,0.0,0.0,0.0,0.0,0.0,0.0,0.0,0.0,0.0,0.0,0.0,0.0,0.0,0.0,0.0,0.0,0.0,0.0,0.0,0.0,0.0,0.0,0.0,0.0,0.0,0.0,0.0,0.0,0.0,0.0,0.0,0.0,0.0,0.0,0.0,0.0,0.0,0.0,0.0,0.0,0.0,0.0,0.0,0.0,0.0,0.0,0.0,0.0,0.0,0.0,0.0,0.0,0.0,0.0,0.0,0.0,0.0,0.0,0.0,0.0,0.0,0.0,0.0,0.0,0.0,0.0,0.0,0.0,0.0,0.0,0.0,0.0,0.0,0.0,0.0,0.0,0.0,0.0,0.0,0.0,0.0,0.0,0.0,0.0,0.0,0.0,0.0,0.0,0.0,0.0,0.0,0.0,0.0,0.0,0.0,0.0,0.0,0.0,0.0,0.0,0.0,0.0,0.0,0.0,0.0,0.0,0.0,0.0,0.0,0.0,0.0,0.0,0.0,0.0,0.0,0.0,0.0,0.0,0.0,0.0,0.0,0.0,0.0,0.0,0.0,0.0,0.0,0.0,0.0,0.0,0.0,0.0,0.0,0.0,0.0,0.0,0.0,0.0,0.0,0.0,0.0,0.0,0.0,0.0,0.0,0.0,0.0,0.0,0.0,0.0,0.0,0.0,0.0,0.0,0.0,0.0,0.0,0.0,0.0,0.0,0.0,0.0,0.0,0.0,0.0,0.0,0.0,0.0,0.0,0.0,0.0,0.0,0.0,0.0,0.0,0.0,0.0,0.0,0.0,0.0,0.0,0.0,0.0,0.0,0.0,0.0,0.0,0.0,0.0,0.0,0.0,0.0,0.0,0.0,0.0,0.0,0.0,0.0,0.0,0.0,0.0,0.0,0.0,0.0,0.0,0.0,0.0,0.0,0.0,0.0,0.0,0.0,0.0,0.0,0.0,0.0,0.0,0.0,0.0,0.0,0.0,0.0,0.0,0.0,0.0,0.0,0.0,0.0,0.0,0.0,0.0,0.0,0.0,0.0,0.0,0.0,0.0,0.0,0.0,0.0,0.0,0.0,0.0,0.0,0.0,0.0,0.0,0.0,0.0,0.0,0.0,0.0,0.0,0.0,0.0,0.0,0.0,0.0,0.0,0.0,0.0,0.0,0.0,0.0,0.0,0.0,0.0,0.0,0.0,0.0,0.0,0.0,0.0,0.0,0.0,0.0,0.0,0.0,0.0,0.0,0.0,0.0,0.0,0.0,0.0,0.0,0.0,0.0,0.0,0.0,0.0,0.0,0.0,0.0,0.0,0.0,0.0,0.0,0.0,0.0,0.0,0.0,0.0,0.0,0.0,0.0,0.0,0.0,0.0,0.0,0.0,0.0,0.0,0.0,0.0,0.0,0.0,0.0,0.0,0.0,0.0,0.0,0.0,0.0,0.0,0.0,0.0,0.0,0.0,0.0,0.0,0.0,0.0,0.0,0.0,0.0,0.0,0.0,0.0,0.0,0.0,0.0,0.0,0.0,0.0,0.0,0.0,0.0,0.0,0.0,0.0,0.0,0.0,0.0,0.0,0.0,0.0,0.0,0.0,0.0,0.0,0.0,0.0,0.0,0.0,0.0,0.0,0.0,0.0,0.0,0.0,0.0,0.0,0.0,0.0,0.0,0.0,0.0,0.0,0.0,0.0,0.0,0.0,0.0,0.0,0.0,0.0,0.0,0.0,0.0,0.0,0.0,0.0,0.0,0.0,0.0,0.0,0.0,0.0,0.0,0.0,0.0,0.0,0.0,0.0,0.0,0.0,0.0,0.0,0.0,0.0,0.0,0.0,0.0,0.0,0.0,0.0,0.0,0.0,0.0,0.0,0.0,0.0,0.0,0.0,0.0,0.0,0.0,0.0,0.0,0.0,0.0,0.0,0.0,0.0,0.0,0.0,0.0,0.0,0.0,0.0,0.0,0.0,0.0,0.0,0.0,0.0,0.0,0.0,0.0,0.0,0.0,0.0,0.0,0.0,0.0,0.0,0.0,0.0,0.0,0.0,0.0,0.0,0.0,0.0,0.0,0.0,0.0,0.0,0.0,0.0,0.0,0.0,0.0,0.0,0.0,0.0,0.0,0.0,0.0,0.0,0.0,0.0,0.0,0.0,0.0,0.0,0.0,0.0,0.0,0.0,0.0,0.0,0.0,0.0,0.0,0.0,0.0,0.0,0.0,0.0,0.0,0.0,0.0,0.0,0.0,0.0,0.0,0.0,0.0,0.0,0.0,0.0,0.0,0.0,0.0,0.0,0.0,0.0,0.0,0.0,0.0,0.0,0.0,0.0,0.0,0.0,0.0,0.0,0.0,0.0,0.0,0.0,0.0,0.0,0.0,0.0,0.0,0.0,0.0,0.0,0.0,0.0,0.0,0.0,0.0,0.0,0.0,0.0,0.0,0.0,0.0,0.0,0.0,0.0,0.0,0.0,0.0,0.0,0.0,0.0,0.0,0.0,0.0,0.0,0.0,0.0,0.0,0.0,0.0,0.0,0.0,0.0,0.0,0.0,0.0,0.0,0.0,0.0,0.0,0.0,0.0,0.0,0.0,0.0,0.0,0.0,0.0,0.0,0.0,0.0,0.0,0.0,0.0,0.0,0.0,0.0,0.0,0.0,0.0,0.0,0.0,0.0,0.0,0.0,0.0,0.0,0.0,0.0,0.0,0.0,0.0,0.0,0.0,0.0,0.0,0.0,0.0,0.0,0.0,0.0,0.0,0.0,0.0,0.0,0.0,0.0,0.0,0.0,0.0,0.0,0.0,0.0,0.0,0.0,0.0,0.0,0.0,0.0,0.0,0.0,0.0,0.0,0.0,0.0,0.0,0.0,0.0,0.0,0.0,0.0,0.0,0.0,0.0,0.0,0.0,0.0,0.0,0.0,0.0,0.0,0.0,0.0,0.0,0.0,0.0,0.0,0.0,0.0,0.0,0.0,0.0,0.0,0.0,0.0,0.0,0.0,0.0,0.0,0.0,0.0,0.0,0.0,0.0,0.0,0.0,0.0,0.0,0.0,0.0,0.0,0.0,0.0,0.0,0.0,0.0,0.0,0.0,0.0,0.0,0.0,0.0,0.0,0.0,0.0,0.0,0.0,0.0,0.0,0.0,0.0,0.0,0.0,0.0,0.0,0.0,0.0,0.0,0.0,0.0,0.0,0.0,0.0,0.0,0.0,0.0,0.0,0.0,0.0,0.0,0.0,0.0,0.0,0.0,0.0,0.0,0.0,0.0,0.0,0.0,0.0,0.0,0.0,0.0,0.0,0.0,0.0,0.0,0.0,0.0,0.0,0.0,0.0,0.0,0.0,0.0,0.0,0.0,0.0,0.0,0.0,0.0,0.0,0.0,0.0,0.0,0.0,0.0,0.0,0.0,0.0,0.0,0.0,0.0,0.0,0.0,0.0,0.0,0.0,0.0,0.0,0.0,0.0,0.0,0.0,0.0,0.0,0.0,0.0,0.0,0.0,0.0,0.0,0.0,0.0,0.0,0.0,0.0,0.0,0.0,0.0,0.0,0.0,0.0,0.0,0.0,0.0,0.0,0.0,0.0,0.0,0.0,0.0,0.0,0.0,0.0,0.0,0.0,0.0,0.0,0.0,0.0,0.0,0.0,0.0,0.0,0.0,0.0,0.0,0.0,0.0,0.0,0.0,0.0,0.0,0.0,0.0,0.0,0.0,0.0,0.0,0.0,0.0,0.0,0.0,0.0,0.0,0.0,0.0,0.0,0.0,0.0,0.0,0.0,0.0,0.0,0.0,0.0,0.0,0.0,0.0,0.0,0.0,0.0,0.0,0.0,0.0,0.0,0.0,0.0,0.0,0.0,0.0,0.0,0.0,0.0,0.0,0.0,0.0,0.0,0.0,0.0,0.0,0.0,0.0,0.0,0.0,0.0,0.0,0.0,0.0,0.0,0.0,0.0,0.0,0.0,0.0,0.0,0.0,0.0,0.0,0.0,0.0,0.0,0.0,0.0,0.0,0.0,0.0,0.0,0.0,0.0,0.0,0.0,0.0,0.0,0.0,0.0,0.0,0.0,0.0,0.0,0.0,0.0,0.0,0.0,0.0,0.0,0.0,0.0,0.0,0.0,0.0,0.0,0.0,0.0,0.0,0.0,0.0,0.0,0.0,0.0,0.0,0.0,0.0,0.0,0.0,0.0,0.0,0.0,0.0,0.0,0.0,0.0,0.0,0.0,0.0,0.0,0.0,0.0,0.0,0.0,0.0,0.0,0.0,0.0,0.0,0.0,0.0,0.0,0.0,0.0,0.0,0.0,0.0,0.0,0.0,0.0,0.0,0.0,0.0,0.0,0.0,0.0,0.0,0.0,0.0,0.0,0.0,0.0,0.0,0.0,0.0,0.0,0.0,0.0,0.0,0.0,0.0,0.0,0.0,0.0,0.0,0.0,0.0,0.0,0.0,0.0,0.0,0.0,0.0,0.0,0.0,0.0,0.0,0.0,0.0,0.0,0.0,0.0,0.0,0.0,0.0,0.0,0.0,0.0,0.0,0.0,0.0,0.0,0.0,0.0,0.0,0.0,0.0,0.0,0.0,0.0,0.0,0.0,0.0,0.0,0.0,0.0,0.0,0.0,0.0,0.0,0.0,0.0,0.0,0.0,0.0,0.0,0.0,0.0,0.0,0.0,0.0,0.0,0.0,0.0,0.0,0.0,0.0,0.0,0.0,0.0,0.0,0.0,0.0,0.0,0.0,0.0,0.0,0.0,0.0,0.0,0.0,0.0,0.0,0.0,0.0,0.0,0.0,0.0,0.0,0.0,0.0,0.0,0.0,0.0,0.0,0.0,0.0,0.0,0.0,0.0,0.0,0.0,0.0,0.0,0.0,0.0,0.0,0.0,0.0,0.0,0.0,0.0,0.0,0.0,0.0,0.0,0.0,0.0,0.0,0.0,0.0,0.0,0.0,0.0,0.0,0.0,0.0,0.0,0.0,0.0,0.0,0.0,0.0,0.0,0.0,0.0,0.0,0.0,0.0,0.0,0.0,0.0,0.0,0.0,0.0,0.0,0.0,0.0,0.0,0.0,0.0,0.0,0.0,0.0,0.0,0.0,0.0,0.0,0.0,0.0,0.0,0.0,0.0,0.0,0.0,0.0,0.0,0.0,0.0,0.0,0.0,0.0,0.0,0.0,0.0,0.0,0.0,0.0,0.0,0.0,0.0,0.0,0.0,0.0,0.0,0.0,0.0,0.0,0.0,0.0,0.0,0.0,0.0,0.0,0.0,0.0,0.0,0.0,0.0,0.0,0.0,0.0,0.0,0.0,0.0,0.0,0.0,0.0,0.0,0.0,0.0,0.0,0.0,0.0,0.0,0.0,0.0,0.0,0.0,0.0,0.0,0.0,0.0,0.0,0.0,0.0,0.0,0.0,0.0,0.0,0.0,0.0,0.0,0.0,0.0,0.0,0.0,0.0,0.0,0.0,0.0,0.0,0.0,0.0,-1.637,0.0,0.0,0.0,0.0,0.0,0.0,0.0,0.0,0.0,0.0,0.0,0.0,0.0,0.0,0.0,0.0,0.0,0.0,0.0,0.0,0.0,0.0,0.0,0.0,0.0,0.0,0.0,0.0,0.0,0.0,0.0,0.0,0.0,0.0,0.0,0.0,0.0,0.0,0.0,0.0,0.0,0.0,0.0,0.0,0.0,0.0,0.0,0.0,0.0,0.0,0.0,0.0,0.0,0.0,0.0,0.0,0.0,0.0,0.0,0.0,0.0,0.0,0.0,0.0,0.0,0.0,0.0,0.0,0.0,0.0,0.0,0.0,0.0,0.0,0.0,0.0,0.0,0.0,0.0,0.0,0.0,0.0,0.0,0.0,0.0,0.0,0.0,0.0,0.0,0.0,0.0,0.0,0.0,0.0,0.0,0.0,0.0,0.0,0.0,0.0,0.0,0.0,0.0,0.0,0.0,0.0,0.0,0.0,0.0,0.0,0.0,0.0,0.0,0.0,0.0,0.0,-1.7093,0.0,0.0,0.0,0.0,0.0,0.0,0.0,0.0,0.0,0.0,0.0,0.0,0.0,0.0,0.0,0.0,0.0,0.0,0.0,0.0,0.0,0.0,0.0,0.0,0.0,0.0,0.0,0.0,0.0,0.0,0.0,0.0,0.0,0.0,0.0,0.0,0.0,0.0,0.0,0.0,0.0,0.0,0.0,0.0,0.0,0.0,0.0,0.0,0.0,0.0,0.0,0.0,0.0,0.0,0.0,0.0,0.0,0.0,0.0,0.0,0.0,0.0,0.0,0.0,0.0,0.0,0.0,0.0,0.0,0.0,0.0,0.0,0.0,0.0,0.0,0.0,0.0,0.0,0.0,0.0,0.0,0.0,0.0,0.0,0.0,0.0,0.0,0.0,0.0,0.0,0.0,0.0,0.0,0.0,0.0,0.0,0.0,0.0,0.0,0.0,0.0,0.0,0.0,0.0,0.0,0.0,0.0,0.0,-2.4409,-2.5024,-2.6194,-2.6127,-2.6141,-2.5977,-2.2741,-2.0203,-1.8281,-1.7143,0.0,0.0,0.0,0.0,0.0,0.0,0.0,0.0,0.0,0.0,0.0,0.0,0.0,0.0,0.0,0.0,0.0,0.0,0.0,0.0,0.0,0.0,0.0,0.0,0.0,0.0,0.0,0.0,0.0,0.0,0.0,0.0,0.0,0.0,0.0,0.0,0.0,0.0,-2.834,-2.8893,-2.9044,-2.8753,-2.6,0.0,0.0,0.0,0.0,0.0,0.0,0.0,0.0,0.0,0.0,0.0,0.0,0.0,0.0,0.0,0.0,0.0,0.0,0.0,0.0,0.0,0.0,0.0,0.0,0.0,0.0,0.0,0.0,0.0,0.0,0.0,0.0,0.0,0.0,0.0,0.0,0.0,0.0,0.0,0.0,0.0,0.0,0.0,-1.8808,-1.9063,0.0,0.0,0.0,0.0,0.0,0.0,0.0,0.0,0.0,0.0,0.0,0.0,0.0,-2.4912,-2.7969,-2.7966,-2.8754,-3.0307,-3.0283,-3.0393,-3.0571,-3.0571,-3.0192,-2.9472,-2.8052,0.0,-2.2354,-1.912,0.0,0.0,0.0,0.0,0.0,0.0,0.0,0.0,0.0,0.0,0.0,0.0,0.0,0.0,0.0,0.0,0.0,0.0,0.0,0.0,0.0,0.0,0.0,0.0,0.0,0.0,0.0,0.0,0.0,0.0,0.0,0.0,0.0,0.0,0.0,0.0,-2.7155,-2.9099,-3.0768,-3.1044,-3.1407,-3.174,-2.9994,-2.7792,-2.5302,-2.4725,0.0,0.0,0.0,0.0,0.0,0.0,0.0,0.0,0.0,0.0,0.0,0.0,0.0,0.0,0.0,0.0,0.0,0.0,0.0,0.0,0.0,0.0,0.0,0.0,0.0,0.0,0.0,0.0,0.0,0.0,0.0,0.0,0.0,0.0,0.0,0.0,0.0,0.0,0.0,-1.9354,-2.0982,-2.1062,-2.129,-2.0828,0.0,0.0,0.0,0.0,0.0,0.0,0.0,0.0,0.0,-2.7189,-2.7999,-2.9683,-3.2383,-3.2419,-3.3227,-3.4825,-3.4357,-3.4376,-3.4798,-3.4357,-3.357,-3.251,-3.1348,-2.9342,-2.6585,-2.2937,-2.0911,-1.9999,0.0,0.0,0.0,0.0,-1.7187,-1.7221,0.0,0.0,0.0,0.0,0.0,0.0,0.0,0.0,0.0,0.0,0.0,0.0,0.0,0.0,0.0,-2.2167,0.0,0.0,0.0,0.0,0.0,0.0,0.0,0.0,0.0,0.0,0.0,0.0,-2.9886,-3.1625,-3.339,-3.3612,-3.4011,-3.4467,-3.3717,-3.1356,-2.7851,-2.6589,-2.5131,0.0,0.0,0.0,0.0,0.0,0.0,0.0,0.0,0.0,0.0,0.0,0.0,0.0,0.0,0.0,0.0,0.0,0.0,0.0,0.0,0.0,0.0,0.0,0.0,0.0,0.0,0.0,0.0,0.0,0.0,0.0,0.0,0.0,0.0,0.0,0.0,0.0,0.0,-2.1223,-2.3419,-2.2697,-2.3934,-2.3885,0.0,0.0,0.0,0.0,0.0,0.0,-2.6247,-2.8194,-3.0202,-3.2158,-3.2948,-3.4366,-3.6531,-3.6549,-3.7092,-3.8102,-3.7496,-3.7422,-3.7771,-3.7184,-3.6285,-3.5108,-3.4047,-3.246,-3.0356,-2.6394,-2.3567,-2.1704,-2.1424,-2.0373,-1.9005,-1.9628,-1.9787,-1.9745,0.0,0.0,0.0,0.0,0.0,0.0,0.0,0.0,0.0,0.0,0.0,0.0,0.0,0.0,-2.4068,-2.424,-2.5137,-2.5917,0.0,0.0,0.0,0.0,0.0,0.0,0.0,0.0,0.0,-3.2582,-3.369,-3.504,-3.6593,-3.7263,-3.7618,-3.7644,-3.6586,-3.3981,-3.0299,-2.8529,-2.6762,-2.5049,0.0,0.0,0.0,0.0,0.0,0.0,0.0,0.0,0.0,0.0,0.0,0.0,0.0,0.0,0.0,0.0,0.0,0.0,0.0,0.0,0.0,0.0,0.0,0.0,0.0,0.0,0.0,0.0,0.0,0.0,0.0,0.0,0.0,0.0,0.0,0.0,0.0,0.0,0.0,-2.2977,-2.7704,0.0,0.0,0.0,0.0,-2.6632,-2.7382,-2.8849,-3.1127,-3.2077,-3.3976,-3.7048,-3.7918,-3.9129,-4.0799,-4.0799,-4.0451,-3.9772,-3.9735,-3.9331,-3.8634,-3.8597,-3.8138,-3.7312,-3.6476,-3.5145,-3.3223,-2.8519,-2.6081,-2.5186,-2.346,-2.3137,-2.3502,-2.2162,-2.2526,-2.365,0.0,0.0,0.0,0.0,0.0,0.0,0.0,0.0,0.0,0.0,0.0,0.0,0.0,-2.5094,-2.6168,-2.6188,-2.7365,-2.7405,-2.5847,0.0,0.0,0.0,0.0,0.0,0.0,0.0,-3.0434,-3.2579,-3.5363,-3.7212,-3.8227,-3.8954,-3.9309,-3.9308,-3.8723,-3.7446,-3.5469,-3.1966,-2.921,-2.7073,-2.5264,-2.3934,0.0,0.0,0.0,0.0,0.0,0.0,0.0,0.0,0.0,0.0,0.0,0.0,0.0,0.0,0.0,0.0,0.0,0.0,0.0,0.0,0.0,0.0,0.0,0.0,0.0,0.0,0.0,0.0,0.0,0.0,0.0,0.0,0.0,0.0,0.0,0.0,0.0,-2.8426,-3.1283,0.0,-2.9407,-2.9848,-3.0439,-3.072,-3.2841,-3.4731,-3.6113,-3.7904,-3.9417,-4.0543,-4.1368,-4.2066,-4.2635,-4.2635,-4.2488,-4.2194,-4.1167,-4.0524,-4.0212,-3.9184,-3.8267,-3.7459,-3.6887,-3.5517,-3.358,-3.1638,-2.9642,-2.7696,-2.5992,-2.5496,-2.5664,-2.5143,-2.5278,-2.5798,0.0,0.0,0.0,0.0,0.0,0.0,0.0,0.0,0.0,0.0,0.0,-2.2972,-2.4388,-2.6391,-2.7541,-2.7338,-2.8231,-2.8083,-2.6455,0.0,0.0,0.0,0.0,0.0,0.0,-3.0055,-3.2215,-3.387,-3.6819,-3.8606,-3.9377,-3.9851,-4.007,-4.0087,-3.9631,-3.9186,-3.8448,-3.5162,-3.2392,-3.0106,-2.7903,-2.6252,-2.4875,0.0,0.0,0.0,0.0,0.0,0.0,0.0,0.0,0.0,0.0,0.0,0.0,0.0,0.0,0.0,0.0,0.0,0.0,0.0,0.0,0.0,0.0,0.0,0.0,0.0,0.0,0.0,0.0,0.0,0.0,0.0,0.0,0.0,0.0,0.0,-3.207,-3.2486,-3.5335,-3.6408,-3.4205,-3.4729,-3.543,-3.5956,-3.821,-3.9753,-4.0286,-4.1846,-4.269,-4.269,-4.3222,-4.3497,-4.3497,-4.3497,-4.3351,-4.3075,-4.1754,-4.0965,-4.0653,-3.9313,-3.8414,-3.7881,-3.7307,-3.624,-3.4903,-3.395,-3.2415,-3.0468,-2.8562,-2.7841,-2.7824,-2.7571,-2.7621,-2.7875,0.0,0.0,0.0,0.0,0.0,0.0,0.0,0.0,0.0,0.0,-2.2007,-2.2907,-2.4321,-2.6784,-2.8088,-2.7611,-2.7565,-2.781,-2.8448,-2.6175,0.0,0.0,0.0,0.0,-2.9653,-3.3064,-3.5399,-3.668,-3.8216,-3.9315,-4.007,-4.0104,-4.0104,-4.0054,-3.9377,-3.9056,-3.8969,-3.795,-3.6295,-3.4128,-3.1409,-2.8929,-2.67,0.0,0.0,0.0,0.0,0.0,0.0,0.0,0.0,0.0,0.0,0.0,0.0,0.0,0.0,0.0,0.0,0.0,0.0,0.0,0.0,0.0,0.0,0.0,0.0,0.0,0.0,0.0,0.0,0.0,0.0,0.0,0.0,0.0,-2.7362,-3.4132,-3.7921,-3.4913,-3.9907,-4.2359,-3.9258,-4.1056,-4.2415,-4.2415,-4.313,-4.3552,-4.3534,-4.3534,-4.3516,-4.3497,-4.3497,-4.3497,-4.3497,-4.3497,-4.3112,-4.2323,-4.1534,-4.0726,-3.9937,-3.9129,-3.8744,-3.8689,-3.7881,-3.7496,-3.7319,-3.5302,-3.4171,-3.3474,-3.1119,-3.0159,-3.0057,-2.9313,-2.9499,-3.0006,0.0,0.0,0.0,0.0,0.0,0.0,0.0,0.0,0.0,0.0,-2.2711,-2.4391,-2.6225,-2.7486,-2.8379,-2.8916,-2.7238,-2.6212,-2.6404,0.0,0.0,0.0,0.0,0.0,-3.1011,-3.3515,-3.5481,-3.6761,-3.8814,-3.9901,-4.0087,-4.0646,-4.0595,-4.0087,-4.0443,-4.029,-3.9799,-3.9915,-3.9259,-3.7877,-3.404,-3.191,-3.0772,0.0,0.0,0.0,0.0,0.0,0.0,0.0,0.0,0.0,0.0,0.0,0.0,0.0,0.0,0.0,0.0,0.0,0.0,0.0,0.0,0.0,0.0,0.0,0.0,0.0,0.0,0.0,0.0,0.0,0.0,0.0,0.0,-3.5987,-3.5004,-3.7741,-4.0587,-4.2465,-4.4191,-4.5112,-4.4837,-4.4856,-4.4911,-4.4911,-4.5112,-4.4984,-4.4397,-4.4378,-4.4103,-4.3516,-4.3497,-4.3497,-4.3497,-4.3497,-4.3387,-4.3149,-4.2359,-4.1846,-4.1589,-4.0194,-3.957,-3.9533,-3.8726,-3.7857,-3.6935,-3.6385,-3.519,-3.3615,-3.2609,-3.1675,-3.0869,-3.0666,-3.0395,-3.0074,0.0,0.0,0.0,0.0,0.0,0.0,0.0,0.0,0.0,0.0,-2.2785,-2.4452,-2.5688,-2.6477,-2.705,-2.7439,-2.5981,-2.5088,-2.5155,0.0,0.0,0.0,0.0,-3.0519,-3.2431,-3.4471,-3.6222,-3.767,-3.8994,-3.995,-4.0561,-4.1001,-4.1136,-4.1018,-4.1457,-4.1407,-4.1052,-4.1339,-4.1171,-4.0458,-3.7659,-3.5687,-3.4152,-3.1983,-3.0369,-2.9141,-2.783,-2.7576,-2.7471,-2.4845,0.0,0.0,0.0,0.0,0.0,0.0,0.0,0.0,0.0,0.0,0.0,0.0,0.0,0.0,0.0,0.0,0.0,0.0,0.0,0.0,0.0,0.0,0.0,0.0,-3.6924,-4.1553,-4.26,-4.3569,-4.4823,-4.6691,-4.7223,-4.748,-4.7609,-4.7186,-4.6764,-4.6434,-4.6085,-4.5553,-4.4745,-4.4378,-4.3975,-4.3497,-4.3497,-4.3497,-4.3497,-4.3497,-4.3497,-4.3479,-4.2671,-4.2304,-4.2268,-4.0983,-4.0396,-4.0359,-3.9551,-3.8784,-3.8063,-3.7358,-3.6262,0.0,0.0,0.0,0.0,0.0,-3.119,-3.0565,0.0,0.0,0.0,0.0,0.0,0.0,0.0,0.0,0.0,0.0,0.0,-2.3704,-2.3843,-2.4576,-2.4955,-2.4609,-2.4383,-2.4398,0.0,0.0,0.0,-2.8044,-3.0913,-3.3005,-3.3892,-3.5876,-3.7573,-3.904,-3.9094,-3.9834,-4.1204,-4.1373,-4.1711,-4.2168,-4.2337,-4.2371,-4.2286,-4.2286,-4.2245,-4.204,-4.14,-3.9523,-3.6973,-3.5956,-3.4632,-3.322,-3.2416,-3.1334,-3.0101,-2.8989,0.0,0.0,0.0,0.0,0.0,0.0,0.0,0.0,0.0,0.0,0.0,0.0,0.0,0.0,0.0,0.0,0.0,0.0,0.0,0.0,0.0,0.0,0.0,0.0,-4.0318,-4.489,-4.9244,-4.9848,-4.9572,-4.882,-4.915,-4.9205,-4.8636,-4.8416,-4.8012,-4.7297,-4.6489,-4.5681,-4.4892,0.0,0.0,0.0,0.0,-4.3497,-4.3497,-4.3497,-4.3497,-4.3479,-4.2782,-4.2433,-4.2415,-4.1607,-4.1258,-4.1203,-4.0377,-4.0029,-3.9918,-3.8395,-3.7393,-3.6561,-3.4162,-3.3142,-3.2972,-3.2491,-3.1816,-3.119,0.0,0.0,0.0,0.0,0.0,0.0,0.0,0.0,0.0,-2.0158,-2.2038,-2.3477,-2.3474,-2.3658,-2.3888,-2.4239,-2.403,-2.4601,0.0,0.0,-2.7748,-3.0725,-3.254,-3.4007,-3.5233,-3.7375,-3.8913,-3.9869,-4.0461,-4.0896,-4.1238,-4.2439,-4.2422,-4.1457,-4.2675,-4.2861,-4.2286,-4.2286,-4.2308,-4.2296,-4.2463,-4.1304,-3.9446,-3.8629,-3.7617,-3.6479,-3.567,-3.6019,-3.636,-3.3006,-3.2871,-3.3524,-3.0142,0.0,0.0,0.0,0.0,0.0,0.0,0.0,0.0,0.0,0.0,0.0,0.0,0.0,0.0,0.0,0.0,0.0,0.0,0.0,0.0,-3.9891,-4.4779,-4.9007,-5.1246,-5.1536,-5.1463,-5.1298,-4.9664,-4.9022,-5.0196,-4.9095,-4.8251,-4.8086,-4.7333,-4.6526,-4.5718,-4.4911,-4.4176,-4.3516,-4.3497,-4.3497,-4.3497,-4.3497,-4.3497,-4.3497,0.0,0.0,-4.3222,-4.2433,-4.2066,-4.2029,-4.1222,-4.0873,-4.0799,-3.9827,-3.8378,-3.6615,-3.4723,-3.3704,-3.3226,-3.2534,-3.1816,-3.119,0.0,0.0,0.0,0.0,0.0,0.0,0.0,0.0,0.0,0.0,-2.2321,-2.3549,-2.342,-2.3403,-2.3422,-2.3454,-2.3145,0.0,0.0,-2.7375,-2.9062,-3.2033,-3.4156,-3.607,-3.7799,-3.8939,-4.0067,-4.1214,-4.157,-4.1948,-4.2337,-4.3081,-4.3234,-4.2929,-4.3673,-4.3792,-4.3436,-4.3436,-4.3217,-4.2884,-4.3296,-4.2676,-4.1529,-4.1361,-4.0964,-4.0396,-3.9588,-3.957,-3.9533,-3.7151,-3.6609,-3.6546,-3.4149,-3.0987,-2.768,0.0,0.0,0.0,0.0,0.0,0.0,0.0,0.0,0.0,0.0,0.0,0.0,0.0,0.0,-3.2241,0.0,0.0,-4.146,-4.3515,-4.7444,-5.0618,-5.183,-5.1298,-5.093,-5.1353,-5.0306,-4.9554,-4.9554,-4.9187,-4.8765,-4.8343,-4.7572,-4.6929,-4.6526,-4.5369,-4.4525,-4.4103,-4.3699,-4.3497,-4.3497,-4.3497,-4.3497,-4.3497,-4.3497,-4.3497,-4.3479,-4.3075,-4.2892,-4.2855,-4.2047,-4.1479,-4.102,-3.9808,-3.8542,-3.7246,-3.6381,-3.4891,-3.322,-3.2954,-3.2374,-3.1681,0.0,0.0,0.0,0.0,0.0,0.0,0.0,0.0,0.0,0.0,-2.2412,-2.3319,-2.3158,-2.3112,-2.3061,0.0,0.0,0.0,0.0,-2.8636,-3.0567,-3.3168,-3.5815,-3.8098,-4.0067,-4.0266,-4.1042,-4.2506,-4.2506,-4.2828,-4.342,-4.3572,-4.391,-4.435,-4.4519,-4.4587,-4.4587,-4.4587,-4.4215,-4.3647,-4.3895,-4.3633,-4.3154,-4.3415,-4.3497,-4.3387,-4.2598,-4.1511,-4.0409,-4.0194,-3.8977,-3.75,-3.7323,-3.5091,-3.1848,-2.8237,-2.6617,0.0,0.0,0.0,0.0,0.0,0.0,0.0,0.0,0.0,-3.1167,-3.3101,-3.4899,-3.6691,-3.8546,-4.1667,-4.4609,-4.6607,-4.9102,-5.1077,-5.1885,-5.06,-4.9829,-5.049,-5.0417,-4.9848,-4.8673,-4.9022,-4.9058,-4.8361,-4.7572,-4.7113,-4.7113,-4.559,-4.4709,-4.4709,-4.392,-4.3497,-4.3497,-4.3497,-4.3497,-4.3497,-4.3497,-4.3497,-4.3497,-4.3497,-4.3497,-4.3442,-4.2653,-4.1846,-4.1001,-3.9533,-3.8611,-3.8065,-3.7946,-3.6238,-3.3805,-3.3768,-3.3199,-3.2366,0.0,0.0,0.0,0.0,0.0,0.0,0.0,0.0,0.0,0.0,0.0,0.0,0.0,0.0,0.0,0.0,0.0,0.0,-2.9038,-2.9733,-3.1556,-3.524,-3.747,-3.9117,-4.0067,-4.0732,-4.1774,-4.3301,-4.3301,-4.3335,-4.3436,-4.413,-4.413,-4.3589,-4.4265,-4.4587,-4.4587,-4.4587,-4.4536,-4.441,-4.4122,-4.3968,-4.3855,-4.3596,-4.3497,-4.3387,-4.2598,-4.0473,-3.8383,-4.0299,-3.9498,-3.8014,-3.9932,-3.8424,-3.5443,-3.2863,0.0,-2.6228,-2.2988,-2.2942,-2.4334,-2.6546,-2.7897,-3.0265,0.0,0.0,-3.9666,-4.2562,-4.4998,-4.6488,-4.6047,-4.7481,-4.8822,-4.9191,-5.0126,-5.1077,-5.1885,-5.06,-4.9609,-4.9701,-4.904,-4.882,-4.9389,-4.8838,-4.8398,-4.8324,-4.7572,-4.7113,-4.7113,-4.559,-4.4709,-4.4709,-4.392,-4.3497,-4.3497,-4.3497,-4.3497,-4.3497,-4.3497,-4.3497,-4.3497,-4.3497,-4.3497,-4.3442,-4.2653,-4.1846,-4.1038,-4.0139,-3.93,-3.8546,-3.8099,-3.7282,-3.6267,-3.5413,-3.4211,-3.3014,0.0,0.0,0.0,0.0,0.0,0.0,0.0,0.0,0.0,0.0,0.0,0.0,0.0,0.0,0.0,0.0,0.0,0.0,-2.8834,-3.0101,-3.2172,-3.5538,-3.8197,-3.9962,-4.0715,-4.103,-4.1931,-4.342,-4.342,-4.3824,-4.4662,-4.4988,-4.5147,-4.5161,-4.5491,-4.5648,-4.5613,-4.5161,-4.497,-4.4881,-4.4165,-4.3888,-4.3811,-4.3069,-4.1919,-4.0653,-4.0399,-3.8888,0.0,0.0,-3.7376,-3.7239,-3.8584,-3.7514,-3.5321,-3.2913,-3.0812,0.0,-2.8072,-2.7821,-2.8721,0.0,-3.4176,-3.6192,-4.0615,-4.2599,-4.4131,-4.6324,-4.7609,-4.8508,-4.915,-4.9426,-4.9848,0.0,-5.0894,-5.093,-5.1242,-4.9884,-4.8489,-4.7553,-4.7131,-4.704,-4.7407,-4.7957,-4.8122,-4.7645,-4.7737,-4.781,-4.781,-4.6728,-4.5883,-4.5406,-4.4617,-4.3975,-4.3497,-4.3497,-4.3497,-4.3497,-4.3497,-4.3497,-4.3497,-4.3497,-4.3497,-4.3442,-4.2653,-4.2121,-4.1699,-4.0414,-3.9698,-3.935,-3.8647,-3.8182,-3.7721,-3.6273,-3.5023,-3.4072,0.0,0.0,0.0,0.0,0.0,0.0,0.0,0.0,0.0,0.0,0.0,0.0,0.0,0.0,0.0,0.0,0.0,0.0,0.0,-2.9714,-3.2083,-3.5226,-3.8001,-4.002,-4.1187,-4.1204,-4.1931,-4.342,-4.342,-4.4139,-4.5511,-4.5511,-4.5815,-4.6383,-4.6383,-4.6383,-4.633,-4.5764,-4.5393,-4.5138,-4.4408,-4.388,-4.3325,-4.1862,-3.9822,-3.7787,-3.8106,-3.6509,0.0,0.0,-3.4272,-3.4538,-3.5882,-3.5547,-3.4271,-3.208,-3.0372,-2.9438,-3.074,-3.1099,0.0,-3.7026,-3.9405,-4.1317,-4.4156,-4.5902,-4.7241,-4.8416,-4.8655,-4.9022,-5.0215,-4.9976,-4.9958,-5.1114,-5.1022,-5.0802,-5.0802,-4.937,-4.7792,-4.6397,-4.5847,-4.548,-4.5259,-4.6691,-4.7498,-4.715,-4.7645,-4.8086,-4.8306,-4.7333,-4.6507,-4.592,-4.4911,-4.4085,-4.3497,-4.3497,-4.3497,-4.3497,-4.3497,-4.3497,-4.3479,-4.3259,-4.3167,-4.3112,-4.2084,-4.1882,-4.2158,-4.0322,-3.9698,-3.9808,-3.9019,-3.8707,-3.8554,-3.7228,-3.6165,-3.5314,0.0,0.0,0.0,0.0,0.0,0.0,0.0,0.0,0.0,0.0,0.0,0.0,0.0,0.0,0.0,0.0,0.0,0.0,0.0,-2.8332,-3.097,-3.4404,-3.6755,-3.8988,-4.1153,-4.1204,-4.1931,-4.342,-4.342,-4.4139,-4.5511,-4.5511,-4.5815,-4.6383,-4.6383,-4.6383,-4.6383,-4.6348,-4.5906,-4.5174,-4.5042,-4.4043,-4.2348,-3.9798,-3.7393,-3.5518,-3.6295,0.0,0.0,-3.1192,-3.0545,-2.9266,-3.2278,-3.3183,0.0,-3.1291,-2.81,-2.5735,-2.8744,0.0,-3.3194,-3.8672,-4.2308,-4.5168,-4.7609,-4.8838,-4.9481,-4.9536,-4.9536,-4.9536,-4.9536,-4.9554,-4.9572,-4.9572,-5.0251,-5.0802,-5.0802,-4.937,-4.7994,-4.7186,-4.57,-4.4433,0.0,-4.5021,-4.6287,-4.702,-4.7094,-4.7498,-4.8269,-4.6801,-4.592,-4.5902,-4.436,-4.3516,-4.3497,-4.3497,-4.3497,-4.3497,-4.3497,-4.3497,-4.3461,-4.269,-4.2341,-4.2249,-4.0653,-4.0855,-4.2103,-3.9717,-3.9203,-3.9808,-3.9019,-3.8707,-3.8707,-3.864,-3.7804,-3.6777,0.0,0.0,0.0,0.0,0.0,0.0,0.0,0.0,0.0,0.0,0.0,0.0,0.0,0.0,0.0,0.0,0.0,0.0,0.0,-2.7701,-2.9626,-3.1764,-3.4754,-3.7126,-3.8797,-3.9765,-4.102,-4.2516,-4.2892,-4.3576,-4.4583,-4.4999,-4.5502,-4.6078,-4.6078,-4.6078,-4.6023,-4.5515,-4.5134,-4.4717,-4.3069,-4.1841,-4.0588,-3.7529,-3.4666,-3.2151,0.0,0.0,0.0,-2.8016,-2.7937,-2.7959,-2.9458,-2.9626,-2.932,-2.9353,-2.9471,-3.0415,-3.4013,0.0,-4.0044,-4.4444,-4.7169,-4.9095,-5.0453,-5.0563,-5.0233,-4.9701,-4.715,-4.5183,-4.5682,-4.3714,-4.3044,-4.6086,-4.7274,-4.8329,-4.9795,-4.9481,-4.8196,-4.581,-4.5039,0.0,0.0,0.0,0.0,-4.625,-4.6819,-4.7462,-4.8269,-4.7792,-4.726,-4.6728,-4.5645,-4.4837,-4.4305,-4.3754,-4.3497,-4.3497,-4.3497,-4.3497,-4.3479,-4.3222,-4.28,-4.2268,-4.1735,-4.1497,-4.1405,-4.0047,-3.9662,-3.9808,-3.9019,-3.8707,-3.8707,-3.8707,-3.8413,-3.8018,0.0,0.0,0.0,0.0,0.0,0.0,0.0,0.0,0.0,0.0,0.0,0.0,0.0,0.0,0.0,0.0,0.0,0.0,0.0,0.0,-2.8093,-2.9466,-3.2196,-3.4266,-3.5623,-3.662,-3.7753,-3.9016,-3.961,-4.043,-4.1474,-4.2408,-4.3139,-4.3773,-4.4066,-4.4176,-4.414,-4.3332,-4.2687,-4.2022,-4.0184,-3.8704,-3.7275,-3.4272,-3.1775,0.0,0.0,0.0,-2.6469,-2.6009,-2.6167,-2.6726,-2.7676,-2.79,-2.8089,-2.9425,-3.1111,-3.3487,-3.7894,-4.1452,-4.4727,-4.8289,-5.0453,-5.1646,-5.1573,-5.0949,-4.9759,-4.7537,-4.4295,-4.1731,-4.1446,-3.9158,-3.8833,-4.349,-4.466,-4.5941,-4.873,-4.86,-4.7443,-4.5369,-4.4892,-4.4305,0.0,0.0,0.0,-4.5461,-4.6489,-4.7352,-4.7847,-4.7884,-4.7645,-4.7094,-4.6049,-4.5223,-4.4727,-4.3901,-4.3497,-4.3497,-4.3497,-4.3332,-4.3057,-4.3057,-4.2782,-4.2268,-4.168,-4.1479,-4.1423,-4.0047,-3.9643,-3.9808,-3.9019,-3.8707,-3.8707,-3.8707,-3.8707,-3.8658,0.0,0.0,0.0,0.0,0.0,0.0,0.0,0.0,0.0,0.0,0.0,0.0,0.0,0.0,0.0,0.0,0.0,0.0,0.0,0.0,0.0,-2.7604,-2.9154,-3.0649,-3.2053,-3.2223,-3.268,-3.3476,-3.4164,-3.519,-3.654,-3.8003,-3.8985,-3.9638,-4.0464,-4.0781,-4.0689,-3.9987,-3.8847,-3.7451,-3.6602,-3.4939,-3.2713,-3.0238,0.0,0.0,0.0,0.0,0.0,0.0,0.0,0.0,-2.7167,-2.8206,-2.9347,-3.171,-3.3178,-3.5171,-4.0467,-4.4202,-4.7315,-5.0291,-5.2142,-5.2784,-5.1169,-4.9976,-4.796,-4.3407,-4.0974,-3.9061,0.0,0.0,-3.7005,-4.1696,-4.2575,-4.3976,-4.7756,-4.7021,-4.6067,0.0,0.0,0.0,0.0,0.0,0.0,-4.4947,0.0,-4.7205,-4.7241,-4.7241,-4.7205,-4.7113,-4.559,-4.4745,-4.4709,-4.3901,-4.3497,-4.3497,-4.3497,-4.3094,-4.2359,-4.2359,-4.2341,-4.2213,-4.0634,-4.0799,-4.1992,-3.9662,-3.9148,-3.9753,-3.9001,-3.8707,-3.8707,-3.8707,-3.8707,-3.8707,0.0,0.0,0.0,0.0,0.0,0.0,0.0,0.0,0.0,0.0,0.0,0.0,0.0,0.0,0.0,0.0,0.0,0.0,0.0,0.0,0.0,0.0,0.0,0.0,0.0,0.0,0.0,0.0,-3.3962,-3.4265,-3.4255,-3.5037,-3.5494,-3.5673,-3.6552,-3.657,-3.5988,-3.6422,-3.6022,-3.4971,0.0,-3.244,-3.1203,0.0,0.0,0.0,0.0,0.0,0.0,0.0,0.0,0.0,0.0,-3.1725,-3.3534,-3.7002,-3.9509,-4.2224,-4.7095,-5.0294,-5.2665,-5.4014,-5.3775,-5.2784,-5.1169,-4.7463,-4.3707,-4.1315,-3.6429,-3.2634,0.0,0.0,0.0,-3.8568,-4.1716,0.0,-4.7848,-4.8508,0.0,-4.6948,0.0,-4.6507,-4.6507,-4.6691,0.0,0.0,-4.7774,-4.8288,-4.893,-4.8948,-4.8398,-4.715,-4.6122,-4.5314,-4.4727,-4.3901,-4.3497,-4.3497,-4.3497,-4.3387,-4.3185,-4.3185,-4.2873,-4.2249,-4.124,-4.0689,-4.0414,-3.9203,-3.8817,-3.9001,-3.8781,-3.8707,-3.8707,-3.8707,-3.8707,-3.8707,0.0,0.0,0.0,0.0,0.0,0.0,0.0,0.0,0.0,0.0,0.0,0.0,0.0,0.0,0.0,0.0,0.0,0.0,0.0,0.0,0.0,0.0,0.0,0.0,0.0,0.0,0.0,0.0,0.0,0.0,-3.0143,-3.1129,-3.157,-3.1607,-3.2445,-3.2557,-3.2087,-3.224,0.0,0.0,0.0,0.0,0.0,0.0,0.0,0.0,0.0,0.0,0.0,0.0,0.0,-3.3189,-3.4577,-3.6124,-3.8164,-4.2055,0.0,-4.676,-5.075,-5.3628,-5.539,-5.5133,-5.4124,-5.2348,-4.901,-4.5057,-4.0966,-3.7061,-3.292,0.0,-2.9715,0.0,0.0,0.0,0.0,0.0,-4.6728,-4.7664,-4.7884,0.0,-4.7645,0.0,-4.8159,-4.8526,-4.8912,0.0,-4.8728,-4.8508,-4.9003,-4.9022,-4.8434,-4.715,-4.6324,-4.5333,-4.4176,-4.3718,-4.3497,-4.3497,-4.3497,-4.3497,-4.3497,-4.3497,-4.324,-4.2782,0.0,-4.1167,-4.0359,-3.9551,-3.9019,-3.8707,-3.8707,-3.8707,-3.8707,-3.8707,-3.8707,-3.8707,0.0,0.0,0.0,0.0,0.0,0.0,0.0,0.0,0.0,0.0,0.0,0.0,0.0,0.0,0.0,0.0,0.0,0.0,0.0,0.0,0.0,0.0,0.0,0.0,0.0,0.0,0.0,0.0,0.0,0.0,0.0,0.0,0.0,0.0,0.0,0.0,0.0,0.0,0.0,0.0,0.0,0.0,0.0,0.0,0.0,0.0,0.0,0.0,0.0,0.0,-3.4593,-3.6533,-3.8979,-4.0929,-4.301,-4.6544,-4.8384,-4.9861,-5.2716,-5.5133,-5.6418,-5.4803,-5.3555,-5.1323,-4.5904,-4.2421,-3.851,-3.2176,0.0,-2.8843,-2.7508,-2.8185,-3.0643,-3.5763,0.0,-4.0741,-4.524,-4.5993,-4.6581,-4.7976,-4.8343,-4.8802,-4.9664,-5.0288,-5.0729,-5.0949,-4.9315,-4.8361,-4.8471,-4.8581,-4.8122,-4.7003,-4.6067,-4.4928,-4.3582,-4.3582,-4.3597,-4.3664,-4.3597,-4.3582,-4.3563,-4.3513,-4.3497,-4.3442,-4.2653,-4.1901,-4.1203,-4.0396,-3.9643,-3.9019,-3.8909,-3.8854,-3.8854,-3.8744,-3.8707,-3.8707,0.0,0.0,0.0,0.0,0.0,0.0,0.0,0.0,0.0,0.0,-1.9381,-2.0333,0.0,0.0,0.0,0.0,0.0,0.0,0.0,0.0,0.0,0.0,0.0,0.0,0.0,0.0,0.0,0.0,0.0,0.0,0.0,0.0,0.0,0.0,0.0,0.0,0.0,0.0,0.0,0.0,0.0,0.0,0.0,0.0,0.0,0.0,0.0,0.0,0.0,0.0,-3.7285,-4.0748,-4.3008,-4.5276,-4.7499,-4.9554,-5.1206,-5.2808,-5.4656,-5.5978,-5.6418,-5.4803,-5.2289,-4.8952,-4.4124,-3.8662,0.0,0.0,-2.7044,-2.5272,-2.5491,-2.7879,-3.1293,-3.5875,0.0,0.0,0.0,0.0,-4.7021,0.0,0.0,0.0,0.0,0.0,0.0,0.0,-4.9627,-4.8618,-4.9334,-5.0013,-4.9058,-4.6195,-4.4672,-4.3907,-4.3893,-4.3893,-4.4076,-4.4392,-4.4076,-4.3893,-4.3893,-4.3631,-4.3497,-4.3442,-4.2653,0.0,-4.2029,-4.1222,-4.0818,-4.0634,-3.9955,-3.968,-3.9606,-3.8946,-3.8707,-3.8707,0.0,0.0,0.0,0.0,0.0,0.0,0.0,0.0,-1.8483,-1.8528,-1.9561,-2.0269,-2.0208,-2.0173,0.0,0.0,0.0,0.0,0.0,0.0,0.0,0.0,0.0,0.0,0.0,0.0,0.0,0.0,0.0,0.0,0.0,0.0,0.0,0.0,0.0,0.0,0.0,0.0,0.0,0.0,0.0,0.0,0.0,0.0,0.0,0.0,0.0,0.0,0.0,0.0,-3.4989,-3.9156,-4.3858,-4.7003,-4.8914,-4.8531,-5.0974,-5.3763,-5.3355,-5.4981,-5.6418,-5.4803,-5.1646,-4.7408,-4.1585,0.0,0.0,0.0,-2.5567,-2.4556,-2.5591,0.0,0.0,0.0,0.0,0.0,0.0,0.0,0.0,0.0,0.0,0.0,0.0,0.0,0.0,0.0,0.0,-5.0025,-4.9612,-4.8919,-4.7895,-4.6544,-4.4904,-4.4136,-4.429,-4.4318,-4.4419,-4.4599,-4.4175,-4.4016,-4.3986,-4.3646,-4.3497,-4.3461,-4.3075,-4.269,-4.2268,-4.1882,-4.1497,-4.1075,-4.0689,-4.0267,-3.9845,-3.946,-3.9056,-3.8707,0.0,0.0,0.0,0.0,0.0,0.0,0.0,-1.7283,-1.8095,-1.8585,-1.9522,-2.0025,-1.9727,-1.9797,-1.9935,0.0,0.0,0.0,0.0,0.0,0.0,0.0,0.0,0.0,0.0,0.0,0.0,0.0,0.0,0.0,0.0,0.0,0.0,0.0,0.0,0.0,0.0,0.0,0.0,0.0,0.0,0.0,0.0,0.0,0.0,0.0,0.0,0.0,0.0,0.0,-3.1345,-3.5206,-4.1046,-4.5088,-4.7389,-4.6073,-4.9362,-5.3148,-5.1869,-5.4018,-5.6124,-5.4326,-5.0692,-4.5842,-3.9345,-3.4419,0.0,0.0,-2.4639,-2.4457,-2.5871,0.0,-2.907,0.0,-3.2996,0.0,0.0,0.0,0.0,0.0,0.0,0.0,0.0,0.0,0.0,0.0,0.0,-5.0853,-4.9603,-4.7824,-4.6855,-4.7013,-4.5598,-4.4896,-4.4972,-4.4802,-4.4732,-4.4806,-4.4428,-4.4233,-4.4233,-4.3804,-4.3597,-4.3597,-4.3548,-4.313,-4.2561,-4.2561,-4.2176,-4.1607,-4.1423,-4.0965,-4.0359,-4.0029,-3.9496,-3.8927,0.0,0.0,0.0,0.0,0.0,0.0,0.0,-1.6931,-1.7701,-1.6945,-1.8277,-1.8988,-1.8117,-1.8673,-1.9369,0.0,0.0,0.0,0.0,0.0,0.0,0.0,0.0,0.0,0.0,0.0,0.0,0.0,0.0,0.0,0.0,0.0,0.0,0.0,0.0,0.0,0.0,0.0,0.0,0.0,0.0,0.0,0.0,0.0,0.0,0.0,0.0,0.0,0.0,0.0,0.0,-3.035,-3.2505,-3.6938,-4.1659,-4.3421,0.0,0.0,-5.25,-5.4308,-5.5133,-5.2803,-4.86,-4.3631,-3.8314,0.0,0.0,-2.4996,-2.3725,-2.3573,-2.5033,-2.5631,-2.7295,0.0,0.0,-3.3834,0.0,0.0,0.0,0.0,0.0,0.0,0.0,0.0,0.0,0.0,0.0,-4.9634,-4.942,-4.8587,-4.7778,-4.7013,-4.6145,-4.583,-4.6142,-4.5414,-4.5201,-4.5513,-4.5161,-4.4988,-4.4966,-4.4271,-4.3955,-4.3924,-4.3612,-4.3442,0.0,-4.3387,-4.3332,-4.3204,-4.2488,-4.2139,-4.1901,-4.0432,-3.9845,-3.968,0.0,0.0,0.0,0.0,0.0,0.0,0.0,-1.6777,-1.7279,-1.7414,-1.8008,-1.8279,-1.7896,-1.7669,-1.7844,0.0,0.0,0.0,0.0,0.0,0.0,0.0,0.0,0.0,0.0,0.0,0.0,0.0,0.0,0.0,0.0,0.0,0.0,0.0,0.0,0.0,0.0,0.0,0.0,0.0,0.0,0.0,0.0,0.0,0.0,0.0,0.0,0.0,0.0,0.0,0.0,0.0,-2.5513,-2.7869,0.0,0.0,-4.0849,-4.6826,-4.6363,-5.0098,-5.3683,-5.1756,-4.7957,-4.3207,-3.7568,0.0,-2.7702,-2.5531,-2.3961,-2.3498,-2.513,-2.5529,-2.6526,0.0,0.0,0.0,0.0,0.0,0.0,0.0,0.0,0.0,0.0,0.0,0.0,0.0,0.0,-4.9977,-4.9419,-4.889,-4.8319,-4.7685,-4.6882,-4.6277,-4.5879,-4.5554,-4.5476,-4.5605,-4.5263,-4.5096,-4.5074,-4.4606,-4.4346,-4.4346,-4.4223,-4.4154,0.0,-4.3881,-4.3804,-4.3735,-4.3214,-4.2727,-4.2158,-4.1038,-4.0322,-3.9772,0.0,0.0,0.0,0.0,0.0,-1.5574,-1.6181,-1.6519,-1.6836,-1.7187,-1.7408,-1.744,-1.719,-1.6611,-1.6435,-1.6888,0.0,0.0,0.0,0.0,0.0,0.0,0.0,0.0,0.0,0.0,0.0,-1.9877,0.0,0.0,0.0,0.0,0.0,0.0,0.0,0.0,0.0,0.0,0.0,0.0,0.0,0.0,0.0,0.0,0.0,0.0,0.0,0.0,0.0,0.0,0.0,0.0,0.0,0.0,0.0,0.0,-3.5004,-4.1585,-4.1556,-4.607,-5.0572,-4.9572,-4.614,-4.1613,0.0,0.0,-2.6886,-2.5214,-2.3689,-2.3174,-2.4905,-2.5221,-2.5814,0.0,0.0,-2.8814,-3.3824,0.0,0.0,0.0,0.0,0.0,0.0,0.0,0.0,0.0,-5.0702,-5.0317,-4.9452,-4.9137,-4.8713,-4.8125,-4.7317,-4.6605,-4.599,-4.572,-4.5586,-4.5586,-4.5362,-4.5243,-4.5243,-4.4896,-4.4751,-4.4732,-4.4631,-4.458,0.0,-4.429,-4.4087,-4.3986,-4.3758,-4.3247,-4.2525,-4.1497,-4.0891,-4.0451,0.0,0.0,0.0,0.0,0.0,0.0,0.0,-1.6105,-1.6395,-1.5542,-1.6171,-1.6385,-1.5513,-1.5416,-1.5384,-1.5321,0.0,0.0,0.0,0.0,0.0,0.0,0.0,0.0,0.0,0.0,-1.9877,-1.98,-1.993,-1.9949,-1.9818,0.0,0.0,0.0,0.0,0.0,0.0,0.0,0.0,0.0,0.0,0.0,0.0,0.0,0.0,0.0,0.0,0.0,0.0,0.0,0.0,0.0,0.0,0.0,0.0,0.0,-3.0309,-3.4771,-3.9984,-4.3193,-4.522,-4.5809,-4.2469,-3.804,0.0,0.0,-2.4741,-2.3397,-2.2434,-2.2317,-2.399,-2.4373,-2.4966,-2.663,-2.7636,0.0,-3.2737,0.0,0.0,0.0,0.0,0.0,0.0,0.0,0.0,0.0,-5.0702,0.0,-4.9452,-4.9394,-4.9009,-4.8125,-4.7317,-4.6913,-4.6894,-4.6028,-4.5586,-4.5586,-4.5605,-4.5586,-4.5586,-4.5243,-4.5096,-4.5074,-4.4732,-4.458,0.0,-4.4599,-4.4346,-4.4016,-4.4016,-4.3804,-4.3277,-4.1699,-4.1607,-4.2047,0.0,0.0,0.0,0.0,0.0,0.0,0.0,-1.5511,-1.565,-1.543,-1.5641,-1.5702,-1.5422,-1.5403,-1.5371,-1.5311,0.0,0.0,0.0,0.0,0.0,0.0,0.0,0.0,0.0,0.0,-1.9949,-1.9873,-1.9854,-1.9842,-1.98,-1.977,-1.942,0.0,0.0,0.0,0.0,0.0,0.0,0.0,0.0,0.0,0.0,0.0,0.0,0.0,0.0,0.0,0.0,0.0,0.0,0.0,0.0,0.0,0.0,0.0,0.0,0.0,-3.2879,-3.5974,-3.8495,-3.8119,-3.6096,-3.3371,-3.0151,0.0,-2.4713,-2.3388,-2.332,-2.3674,-2.4204,-2.4803,-2.5785,-2.7511,-2.8515,0.0,0.0,0.0,0.0,0.0,0.0,0.0,0.0,0.0,0.0,0.0,-4.926,-4.8798,-4.8529,-4.799,-4.7567,-4.7298,-4.7028,-4.6605,-4.6009,-4.574,-4.5586,-4.5586,-4.5586,-4.5586,-4.5605,-4.5495,-4.5438,-4.5438,-4.5342,-4.5283,-4.5263,-4.5052,-4.4872,-4.4688,-4.4204,-4.3943,-4.3706,-4.2386,-4.2084,-4.2158,0.0,0.0,0.0,0.0,0.0,0.0,0.0,-1.5237,-1.5315,-1.5394,-1.5398,-1.5409,-1.5409,-1.5401,-1.5381,-1.5339,0.0,0.0,0.0,0.0,0.0,0.0,0.0,0.0,0.0,-1.876,-1.9014,-1.8911,-1.89,-1.8877,-1.8819,-1.879,-1.8472,-1.7963,-1.7919,0.0,0.0,0.0,0.0,0.0,0.0,0.0,-1.8633,0.0,0.0,0.0,0.0,0.0,0.0,0.0,0.0,0.0,0.0,0.0,0.0,0.0,-2.2518,-2.5945,0.0,-3.044,-3.2619,-3.2957,-3.1654,0.0,0.0,0.0,-2.3514,-2.2367,-2.277,-2.3456,-2.3796,-2.4545,-2.5581,-2.6996,-2.8238,0.0,0.0,0.0,0.0,0.0,0.0,0.0,0.0,0.0,0.0,-4.8933,-4.8413,-4.7971,-4.7663,-4.7182,-4.6759,-4.6413,-4.6413,-4.6144,-4.5605,-4.5586,-4.5586,-4.5586,-4.5586,-4.5586,-4.5586,-4.5586,-4.5586,-4.5586,-4.5586,-4.5586,0.0,-4.5362,-4.5222,-4.5033,-4.4594,-4.4346,-4.4111,-4.3074,-4.2786,-4.2788,0.0,0.0,0.0,0.0,0.0,0.0,0.0,0.0,0.0,-1.5374,-1.5392,-1.5392,-1.5409,-1.539,-1.5407,-1.5392,0.0,0.0,0.0,0.0,0.0,0.0,0.0,0.0,0.0,-1.7473,-1.7434,-1.7307,-1.7365,-1.7323,-1.7202,-1.7195,-1.7172,-1.71,-1.7034,-1.7009,-1.7009,-1.6934,-1.6946,-1.6982,-1.6982,-1.7001,0.0,0.0,0.0,0.0,0.0,0.0,0.0,0.0,0.0,0.0,0.0,0.0,0.0,0.0,0.0,0.0,0.0,-2.6388,0.0,0.0,0.0,0.0,0.0,0.0,0.0,-2.0764,-2.1336,-2.2245,-2.3115,-2.3942,-2.4798,-2.5736,-2.7273,0.0,0.0,0.0,0.0,0.0,0.0,0.0,0.0,0.0,0.0,-4.8086,-4.7971,-4.7605,-4.6855,-4.6817,-4.6432,-4.5624,-4.5586,-4.5586,-4.5586,-4.5586,-4.5586,-4.5586,-4.5586,-4.5586,-4.5586,-4.5586,-4.5586,0.0,-4.5586,-4.5586,-4.5586,-4.5586,-4.5419,-4.5118,-4.5096,-4.4919,-4.4537,-4.37,-4.3678,-4.3804,0.0,0.0,0.0,0.0,0.0,0.0,0.0,0.0,0.0,0.0,-1.5313,-1.5348,-1.5398,-1.5408,-1.5409,0.0,0.0,0.0,0.0,0.0,0.0,0.0,0.0,0.0,0.0,-1.7187,-1.7454,-1.7377,-1.7334,-1.7302,-1.7283,-1.7214,-1.6839,-1.6198,-1.6193,-1.6127,-1.6018,-1.596,-1.6314,-1.6927,-1.6927,-1.6954,0.0,0.0,0.0,0.0,-1.5856,-1.6281,0.0,0.0,0.0,0.0,0.0,0.0,0.0,0.0,-1.974,-2.0682,-2.16,0.0,-2.2268,-2.2798,-2.2532,-2.2056,0.0,0.0,0.0,0.0,0.0,-2.3971,-2.4846,-2.5707,-2.679,-2.8325,-2.9444,-3.0185,0.0,0.0,0.0,0.0,0.0,0.0,0.0,0.0,-4.7413,-4.7201,-4.6567,-4.6105,-4.5913,-4.5913,-4.5797,-4.5605,-4.5586,-4.5586,-4.5586,-4.5586,-4.5586,-4.5586,-4.5586,-4.5586,-4.5586,-4.5586,-4.5586,-4.5586,-4.5586,-4.5586,-4.5586,-4.5586,-4.555,-4.5476,-4.5201,-4.5052,-4.4924,-4.4455,-4.4357,-4.4323,0.0,0.0,0.0,0.0,0.0,0.0,0.0,0.0,0.0,0.0,0.0,0.0,0.0,0.0,0.0,0.0,0.0,0.0,0.0,0.0,0.0,0.0,0.0,0.0,-1.5743,-1.6173,-1.6369,-1.6307,-1.6224,-1.6185,-1.6137,-1.6041,-1.5763,-1.5354,-1.5299,-1.5201,-1.5099,-1.5036,-1.5278,-1.5704,-1.5709,0.0,0.0,0.0,0.0,0.0,-1.5056,-1.5395,0.0,-1.5836,-1.6055,-1.6509,0.0,0.0,0.0,0.0,-1.9184,-1.9982,-2.0386,-2.049,-2.0492,-2.0497,-2.0503,-2.0506,0.0,0.0,0.0,0.0,0.0,-2.4141,-2.541,-2.633,-2.7332,-2.87,-3.0224,0.0,0.0,0.0,0.0,0.0,0.0,0.0,0.0,0.0,-4.674,-4.6336,-4.5874,-4.5586,-4.5586,-4.5586,-4.5586,-4.5586,-4.5586,-4.5586,-4.5586,-4.5586,-4.5586,-4.5586,-4.5586,-4.5586,-4.5586,-4.5586,-4.5586,-4.5586,-4.5586,-4.5586,-4.5586,-4.5586,-4.5586,-4.5586,-4.54,-4.5322,-4.5322,-4.5118,-4.4966,-4.4635,0.0,0.0,0.0,0.0,0.0,0.0,0.0,0.0,0.0,0.0,0.0,0.0,0.0,0.0,0.0,0.0,0.0,0.0,0.0,0.0,0.0,0.0,0.0,-1.5121,-1.5125,-1.5119,-1.5071,-1.5,-1.493,-1.4859,-1.4804,-1.4687,-1.4656,-1.4697,-1.4585,-1.4497,-1.4428,-1.4362,-1.4324,-1.4319,-1.433,0.0,0.0,0.0,0.0,0.0,0.0,0.0,0.0,-1.4971,-1.5045,-1.512,-1.512,0.0,0.0,0.0,0.0,0.0,-2.0287,-2.0501,-2.0497,-2.0499,-2.0497,-2.0494,0.0,0.0,0.0,0.0,0.0,0.0,0.0,-2.6836,0.0,0.0,0.0,0.0,0.0,0.0,0.0,0.0,0.0,0.0,0.0,-4.6701,-4.6394,-4.5663,-4.5586,-4.5586,-4.5586,-4.547,-4.5393,-4.5393,-4.5393,-4.5393,-4.5393,-4.5528,-4.5586,-4.5586,-4.5586,-4.5586,-4.5586,-4.5586,-4.5586,-4.5586,0.0,0.0,-4.5586,-4.5586,-4.5586,-4.5586,-4.5586,-4.5586,-4.5586,-4.5586,-4.5419,-4.4951,0.0,0.0,0.0,0.0,0.0,0.0,0.0,0.0,0.0,0.0,0.0,0.0,0.0,0.0,0.0,0.0,0.0,0.0,0.0,0.0,0.0,0.0,-1.5206,-1.519,-1.5184,-1.5139,-1.5064,-1.5006,-1.493,-1.4886,-1.4887,-1.4803,-1.4734,-1.4693,-1.4672,-1.4622,-1.4549,-1.4488,-1.4441,-1.4375,-1.4392,0.0,0.0,0.0,0.0,0.0,0.0,0.0,0.0,-1.4979,-1.5078,-1.5177,-1.5188,0.0,0.0,0.0,0.0,0.0,-2.033,-2.0547,-2.0508,-2.0498,-2.0494,-2.0513,0.0,0.0,0.0,0.0,0.0,0.0,0.0,-2.8987,-3.0547,0.0,0.0,0.0,0.0,0.0,0.0,0.0,0.0,0.0,-4.5855,-4.5797,-4.574,-4.5605,-4.5586,-4.5586,-4.5586,-4.4893,-4.4489,-4.4489,-4.4489,-4.4489,-4.4489,-4.522,-4.5586,-4.5586,-4.5586,-4.5586,-4.5586,-4.5586,-4.5586,-4.5586,0.0,-4.5586,-4.5586,-4.5586,-4.5586,-4.5586,-4.5586,-4.5586,-4.5586,-4.5586,-4.5568,-4.536,0.0,0.0,0.0,0.0,0.0,0.0,0.0,0.0,0.0,0.0,0.0,0.0,0.0,0.0,0.0,0.0,0.0,0.0,0.0,0.0,0.0,-1.5353,-1.4834,-1.4762,-1.518,-1.5127,-1.5078,-1.5053,-1.4955,-1.4904,-1.4896,-1.4785,-1.4734,-1.4701,-1.4622,-1.456,-1.4533,-1.4429,-1.4399,-1.4387,0.0,0.0,0.0,0.0,0.0,0.0,0.0,0.0,0.0,0.0,-1.5071,-1.5152,-1.518,0.0,0.0,0.0,0.0,0.0,-1.9648,-2.0188,-2.0615,-2.1089,-2.0873,-2.0546,0.0,0.0,0.0,0.0,0.0,0.0,0.0,0.0,0.0,0.0,0.0,0.0,0.0,0.0,0.0,0.0,0.0,-4.5528,-4.5586,-4.5586,-4.5586,-4.5586,-4.5586,-4.5586,-4.5586,-4.4759,-4.4297,-4.4297,-4.3874,-4.3643,-4.3643,-4.4047,-4.447,-4.4893,-4.5355,-4.5336,-4.4913,-4.5374,-4.5586,-4.5586,0.0,-4.5586,-4.5586,-4.5586,-4.5586,-4.5586,-4.5586,-4.5586,-4.5528,-4.5066,-4.4624,-4.4107,0.0,0.0,0.0,0.0,0.0,0.0,0.0,0.0,0.0,0.0,0.0,0.0,0.0,0.0,0.0,0.0,0.0,0.0,0.0,0.0,-1.5345,-1.5395,-1.4495,-1.438,-1.5188,-1.4953,-1.4896,-1.5076,-1.4968,-1.4921,-1.4877,-1.4588,-1.4549,-1.4714,-1.441,-1.4364,-1.4511,-1.4393,-1.4331,-1.4367,0.0,0.0,0.0,0.0,0.0,0.0,0.0,0.0,0.0,0.0,0.0,0.0,0.0,0.0,0.0,-1.6419,-1.7137,-1.7868,-1.8962,-1.9725,-2.0404,-2.1289,0.0,0.0,0.0,0.0,0.0,0.0,0.0,0.0,0.0,0.0,0.0,0.0,0.0,0.0,-4.441,-4.4605,-4.4855,-4.5509,-4.4836,-4.4566,-4.522,-4.5124,-4.5009,-4.5009,-4.5009,-4.5009,-4.5009,-4.4182,-4.3701,-4.3701,-4.3124,-4.2797,-4.2797,-4.3008,-4.3508,-4.4316,-4.4778,-4.4759,-4.4316,-4.4797,-4.5009,-4.5009,-4.5009,-4.5105,-4.5297,-4.5297,-4.5297,-4.5297,-4.5297,-4.5182,-4.4932,-4.4259,-4.3624,-4.3008,0.0,0.0,0.0,0.0,0.0,0.0,0.0,0.0,0.0,0.0,0.0,0.0,0.0,0.0,0.0,0.0,0.0,0.0,0.0,0.0,-1.5391,-1.5391,-1.449,-1.4374,-1.5187,-1.439,-1.4322,-1.5011,-1.5003,-1.4963,-1.4876,-1.4059,-1.4072,-1.4766,-1.3934,-1.395,-1.4578,-1.4439,-1.4362,-1.4293,-1.415,0.0,0.0,0.0,0.0,0.0,0.0,0.0,0.0,0.0,0.0,0.0,0.0,0.0,-1.5485,-1.643,-1.6734,-1.7148,-1.8775,-1.9249,-1.9497,-2.0375,-2.1109,0.0,-2.5615,-2.6974,0.0,-3.0661,0.0,0.0,0.0,0.0,0.0,0.0,0.0,0.0,0.0,0.0,-4.5528,-4.5586,-4.4836,-4.4316,-4.4393,-4.372,-4.3278,-4.3278,-4.3278,-4.3278,-4.3278,-4.245,-4.1989,-4.1989,-4.1931,-4.1893,-4.1893,-4.2701,-4.3508,-4.4297,-4.3605,-4.3643,-4.4278,-4.3585,-4.3278,-4.3278,-4.3278,-4.3701,-4.4393,-4.4393,-4.4393,-4.4393,-4.4393,-4.3932,-4.3278,-4.3201,-4.3143,-4.3085,0.0,0.0,0.0,0.0,0.0,0.0,0.0,0.0,0.0,0.0,0.0,0.0,0.0,0.0,0.0,0.0,0.0,0.0,0.0,0.0,-1.5155,-1.4629,-1.3723,-1.3403,-1.3704,-1.3836,-1.4021,-1.4258,-1.4749,-1.4984,-1.4944,-1.406,-1.4084,-1.4822,-1.3906,-1.3903,-1.453,-1.4398,-1.4277,-1.4167,-1.4082,-1.397,0.0,0.0,0.0,0.0,0.0,0.0,0.0,0.0,-1.4328,-1.4502,0.0,-1.5333,-1.5424,-1.5783,-1.6284,-1.6953,-1.8127,-1.9187,-2.0272,-2.1659,-2.2221,0.0,0.0,-2.7439,-2.924,-3.0749,-3.2326,0.0,0.0,0.0,0.0,0.0,0.0,0.0,0.0,0.0,-4.4778,-4.4778,-4.4066,-4.3547,-4.3547,-4.3278,-4.3104,-4.3104,-4.3104,-4.3104,-4.3104,-4.2277,-4.1797,-4.1797,-4.1277,-4.0989,-4.0989,-4.1316,-4.1912,-4.2758,-4.2989,-4.2989,-4.2758,-4.2989,-4.3104,-4.3104,-4.3104,-4.3278,-4.3585,-4.4085,-4.4008,-4.3547,-4.3547,-4.3374,-4.3028,-4.2489,-4.2297,-4.222,0.0,0.0,0.0,0.0,0.0,0.0,0.0,0.0,0.0,0.0,0.0,0.0,0.0,0.0,0.0,0.0,0.0,0.0,0.0,-1.5131,-1.4842,-1.4512,-1.3416,-1.28,-1.2801,-1.3013,-1.3219,-1.3415,-1.3978,-1.4237,-1.4218,-1.3325,-1.3346,-1.4098,-1.3401,-1.3456,-1.4099,-1.4217,-1.4188,-1.4056,-1.3952,-1.3695,0.0,0.0,0.0,0.0,0.0,0.0,0.0,0.0,-1.3616,-1.4043,0.0,0.0,-1.5401,-1.5395,-1.5816,-1.6543,-1.7655,-1.896,-2.0427,-2.2097,0.0,0.0,-2.6942,-2.8408,-2.9983,-3.2419,-3.4535,0.0,0.0,0.0,0.0,0.0,0.0,0.0,0.0,0.0,-4.3912,-4.3912,-4.3181,-4.2701,-4.2701,-4.2431,-4.2277,-4.2277,-4.2277,-4.2277,-4.2277,-4.172,-4.1393,-4.1393,-4.0796,-4.0489,-4.0489,-4.0489,-4.0796,-4.1393,-4.1989,-4.2104,-4.1816,-4.2124,-4.2277,-4.2277,-4.2277,-4.2431,-4.2739,-4.3278,-4.3181,-4.2662,-4.2393,-4.2277,-4.22,-4.1604,-4.1566,-4.1681,0.0,0.0,0.0,0.0,0.0,0.0,0.0,0.0,0.0,0.0,0.0,0.0,0.0,0.0,0.0,0.0,0.0,0.0,-1.5342,-1.4597,-1.4487,-1.5349,-1.373,-1.2807,-1.2789,-1.1934,-1.1844,-1.2603,-1.2602,-1.2602,-1.2584,-1.1632,-1.1667,-1.249,-1.2279,-1.2557,-1.3227,-1.3901,-1.4114,-1.3959,-1.3771,-1.3216,-1.2414,0.0,0.0,0.0,0.0,0.0,0.0,0.0,-1.3097,-1.3994,0.0,0.0,0.0,-1.5403,-1.5408,-1.5781,-1.7454,-1.8552,-1.9643,0.0,0.0,0.0,-3.0896,-3.0451,-3.0978,-3.6784,0.0,-3.8777,-3.7104,0.0,0.0,0.0,0.0,0.0,0.0,0.0,0.0,-4.3066,-4.2297,-4.1758,-4.1777,-4.0969,-4.0485,-4.0485,-4.0485,-4.0485,-4.0485,-4.0485,-4.0469,-4.0469,-4.0469,-4.0469,-4.0469,-4.0469,-4.0489,-4.0489,-4.0489,-4.095,-4.1758,-4.0893,-4.0489,-4.0489,-4.0489,-4.0989,-4.1797,-4.1797,-4.1797,-4.172,-4.0835,-4.0489,-4.0489,-4.0489,-4.1046,-4.1662,0.0,0.0,0.0,0.0,0.0,0.0,0.0,0.0,0.0,0.0,0.0,0.0,0.0,0.0,0.0,0.0,0.0,0.0,-1.5387,-1.5161,-1.4862,-1.4508,-1.3398,-1.2539,-1.197,-1.1052,-1.1275,-1.2663,-1.267,-1.268,-1.2647,-1.1763,-1.1768,-1.2478,-1.1746,-1.1763,-1.2393,-1.3022,-1.3174,-1.3015,-1.2901,-1.2925,-1.2904,0.0,0.0,0.0,0.0,0.0,0.0,0.0,0.0,0.0,-1.3804,0.0,-1.54,-1.5404,-1.6239,-1.7408,-1.8515,-2.028,0.0,0.0,0.0,0.0,0.0,-3.0967,0.0,0.0,0.0,-3.8059,-3.6996,0.0,0.0,0.0,0.0,0.0,0.0,0.0,0.0,0.0,-4.0088,-3.9185,-3.9333,-3.8975,-3.8799,-3.8926,-3.882,-3.8758,-3.882,-3.8772,-3.8738,-3.8738,-3.8738,-3.8738,-3.8738,-3.9354,-3.9662,-3.9662,-4.0219,-4.0642,-4.0873,-4.0623,-4.0489,-4.0489,-4.0489,-4.0642,-4.0893,-4.0893,-4.1258,-4.172,-4.0835,-4.0489,-4.0489,-4.0489,-4.0662,-4.0854,0.0,0.0,0.0,0.0,0.0,0.0,0.0,0.0,0.0,0.0,0.0,0.0,0.0,0.0,0.0,0.0,0.0,0.0,0.0,0.0,-1.3739,-1.3596,-1.2742,-1.1889,-1.1055,-1.0485,-1.0703,-1.1754,-1.1725,-1.1705,-1.1698,-1.113,-1.1115,-1.1493,-1.1217,-1.1278,-1.1617,-1.2267,-1.2406,-1.2196,-1.2133,-1.2194,-1.2253,0.0,0.0,0.0,0.0,0.0,0.0,0.0,0.0,0.0,-1.3175,0.0,0.0,-1.5301,-1.6348,-1.7649,-1.8878,-2.0764,0.0,0.0,0.0,0.0,0.0,0.0,0.0,0.0,0.0,0.0,0.0,0.0,0.0,0.0,0.0,0.0,0.0,0.0,0.0,0.0,-3.881,-3.8178,-3.8299,-3.8179,-3.8178,-3.8299,-3.8179,-3.8144,-3.819,-3.8136,-3.8129,-3.8129,-3.8129,-3.8092,-3.8041,-3.8562,-3.881,-3.8796,-3.9277,-3.9508,-3.9527,-4.02,-4.0489,-4.0489,-4.0489,-4.0489,-4.0489,-4.0489,-4.0796,-4.1239,-4.07,-4.0489,-4.0489,-4.0489,-4.0489,-4.0489,0.0,0.0,0.0,0.0,0.0,0.0,0.0,0.0,0.0,0.0,0.0,0.0,0.0,0.0,0.0,0.0,0.0,0.0,0.0,0.0,-1.1883,-1.2748,-1.1959,-1.1079,-1.0202,-1.0189,-1.0214,-1.0272,-1.0226,-1.0241,-1.0321,-1.0161,-1.0129,-1.0153,-1.0753,-1.0934,-1.0847,-1.1561,-1.1736,-1.1506,-1.1484,-1.1288,-1.1008,-1.0978,0.0,0.0,0.0,0.0,0.0,0.0,0.0,0.0,-1.2324,-1.3295,-1.427,-1.513,-1.6029,-1.7099,-1.8831,0.0,0.0,0.0,0.0,0.0,0.0,0.0,0.0,0.0,0.0,0.0,0.0,0.0,0.0,0.0,0.0,0.0,0.0,0.0,0.0,0.0,-3.807,-3.7965,-3.796,-3.7972,-3.7926,-3.7863,-3.7926,-3.7965,-3.7953,-3.8023,-3.8054,-3.8054,-3.8054,-3.7994,-3.7887,-3.7954,-3.795,-3.7901,-3.7983,-3.8007,-3.8046,-3.9585,-4.0315,-4.0392,-4.0296,-4.0354,-4.0489,-4.0412,-4.0431,-4.0489,-4.0489,-4.0489,-4.0489,-4.0489,-4.0489,-4.0489,0.0,0.0,0.0,0.0,0.0,0.0,0.0,0.0,0.0,0.0,0.0,0.0,0.0,0.0,0.0,0.0,0.0,0.0,0.0,0.0,-1.2377,-1.2622,-1.1854,-1.1002,-1.0147,-1.012,-1.0121,-1.013,-1.0174,-1.0558,-1.1205,-1.0515,-1.0515,-1.1076,-1.0555,-1.0217,-1.0091,-1.0701,-1.0889,-1.0765,-1.1119,-1.1497,-1.1823,-1.1597,-1.1547,0.0,0.0,0.0,0.0,0.0,0.0,0.0,-1.2305,-1.3284,-1.427,-1.5147,-1.6447,-1.7988,0.0,-2.1344,0.0,0.0,0.0,0.0,0.0,0.0,0.0,0.0,0.0,0.0,0.0,0.0,0.0,0.0,0.0,0.0,0.0,0.0,0.0,0.0,-3.6202,-3.5357,-3.5457,-3.5378,-3.5085,-3.45,-3.4983,-3.5334,-3.5388,-3.595,-3.6268,-3.6268,-3.6268,-3.6253,-3.6211,-3.6842,-3.7157,-3.7143,-3.7731,-3.8007,-3.8007,-3.8373,-3.8911,-3.9508,-3.8834,-3.9277,-4.045,-3.9815,-3.9931,-4.0489,-4.0489,-4.0489,-4.0489,-4.0489,-4.0489,-4.0489,0.0,0.0,0.0,0.0,0.0,0.0,0.0,0.0,0.0,0.0,0.0,0.0,0.0,0.0,0.0,0.0,0.0,0.0,0.0,0.0,0.0,-1.1231,-1.0832,-1.0417,-0.9972,-0.9978,-1.0001,-0.9996,-1.0497,-1.078,-1.0888,-1.0835,-1.0805,-1.0773,-1.0744,-1.0397,-0.9869,-1.0175,-1.0215,-1.0084,-1.0274,-1.0831,-1.1552,-1.1382,-1.1694,-1.2212,-1.1975,0.0,0.0,0.0,0.0,0.0,0.0,0.0,-1.3688,-1.4962,-1.6263,-1.7641,0.0,0.0,0.0,0.0,0.0,0.0,0.0,0.0,0.0,0.0,0.0,0.0,0.0,0.0,0.0,0.0,0.0,0.0,0.0,0.0,0.0,0.0,0.0,-3.4003,-3.4062,-3.401,-3.3807,-3.3437,-3.3754,-3.3994,-3.4012,-3.4387,-3.4581,-3.456,-3.4581,-3.4569,-3.4497,-3.495,-3.5154,-3.5135,-3.595,-3.6538,-3.6925,-3.7668,-3.8257,-3.8642,-3.82,-3.8507,-3.9258,-3.8854,-3.8911,-3.9335,-3.9758,-3.9931,-3.9969,-4.0354,-4.0258,-3.9931,0.0,0.0,0.0,0.0,0.0,0.0,0.0,0.0,0.0,0.0,0.0,0.0,0.0,0.0,0.0,0.0,0.0,0.0,0.0,0.0,0.0,0.0,-0.9715,-0.9768,-0.9757,-0.9813,-0.9863,-0.9872,-1.0656,-1.0814,-1.0397,-1.1289,-1.1376,-1.0796,-1.1373,-1.1088,-1.0163,-1.0133,-0.9938,-0.9633,-0.96,-1.0129,-1.092,-1.1068,-1.1745,-1.2573,-1.2124,-1.1647,-1.114,-1.0653,0.0,0.0,0.0,0.0,-1.3217,-1.4826,-1.5827,-1.6755,0.0,0.0,0.0,0.0,0.0,0.0,0.0,0.0,0.0,0.0,0.0,0.0,0.0,0.0,0.0,0.0,0.0,0.0,0.0,0.0,0.0,0.0,0.0,-3.3125,-3.2988,-3.2969,-3.291,-3.2754,-3.2871,-3.3027,-3.3184,-3.332,-3.3377,-3.3324,-3.3377,-3.335,-3.3234,-3.3286,-3.3278,-3.3239,-3.3946,-3.4627,-3.5327,-3.6748,-3.7558,-3.78,-3.7646,-3.7747,-3.7988,-3.7834,-3.7853,-3.8065,-3.8796,-3.9084,-3.9161,-3.9815,-3.9642,-3.9084,0.0,0.0,0.0,0.0,0.0,0.0,0.0,0.0,0.0,0.0,0.0,0.0,0.0,0.0,0.0,0.0,0.0,0.0,0.0,0.0,0.0,-0.9447,-0.9549,-0.9597,-0.9536,-0.9609,-0.9666,-0.9737,-0.9904,-1.0372,0.0,-1.2082,-1.2881,-1.3457,-1.2866,-1.2089,-1.1189,-1.1086,-1.0532,-0.9805,-1.0204,-1.0446,-1.0665,-1.165,-1.2146,-1.2332,-1.2216,-1.178,-1.1213,-1.0674,-1.0603,0.0,0.0,0.0,-1.3942,-1.4989,-1.5426,-1.5935,0.0,0.0,0.0,0.0,0.0,0.0,0.0,0.0,0.0,0.0,0.0,0.0,0.0,0.0,0.0,0.0,0.0,0.0,0.0,0.0,0.0,0.0,0.0,0.0,-3.1309,-3.123,-3.0918,-3.0156,-3.0801,-3.1562,-3.2324,-3.3027,-3.3398,-3.3398,-3.3398,-3.3398,-3.3377,-3.3319,-3.3298,-3.329,-3.3348,-3.3433,-3.3569,-3.454,-3.5736,-3.7011,-3.6256,-3.6697,-3.795,-3.7199,-3.7315,-3.8007,-3.8123,-3.8161,-3.818,-3.8296,-3.8277,-3.8161,0.0,0.0,0.0,0.0,0.0,0.0,0.0,0.0,0.0,0.0,0.0,0.0,0.0,0.0,0.0,0.0,0.0,0.0,0.0,0.0,0.0,-0.9515,-0.9673,-0.9617,-0.9285,-0.9665,-0.9761,-0.9536,-1.0576,0.0,0.0,-1.3277,-1.3681,0.0,-1.3408,-1.2968,-1.2119,-1.2076,-1.1499,-1.065,-1.0789,-1.1035,-1.1342,-1.1217,-1.1741,-1.2393,-1.1425,-1.1239,-1.1394,-1.0841,-1.0767,-1.1076,-1.2128,0.0,0.0,0.0,-1.4186,0.0,-1.7306,0.0,0.0,0.0,0.0,0.0,0.0,0.0,0.0,0.0,0.0,0.0,0.0,0.0,0.0,0.0,0.0,0.0,0.0,0.0,0.0,0.0,0.0,0.0,-2.9473,-2.9434,-2.9277,-2.8906,-2.9687,-3.0137,-3.0019,-3.1289,-3.1523,-3.0518,-3.0995,-3.1015,-3.0499,-3.0987,-3.1711,-3.2687,-3.2656,-3.2882,-3.3331,-3.3701,-3.4218,-3.4861,-3.5422,-3.5794,-3.6047,-3.6115,-3.6367,-3.6764,-3.7208,-3.7385,-3.743,-3.7858,-3.77,-3.7276,0.0,0.0,0.0,0.0,0.0,0.0,0.0,0.0,0.0,0.0,0.0,0.0,0.0,0.0,0.0,0.0,0.0,0.0,0.0,0.0,0.0,-0.9418,-0.9492,-0.934,-0.8928,-0.9525,-0.9749,-0.9551,0.0,0.0,-1.2509,-1.3883,-1.4023,0.0,-1.3969,-1.3834,0.0,-1.3035,-1.25,-1.166,-1.1523,-1.1755,-1.2071,-1.145,-1.1929,-1.2762,-1.1445,-1.1431,-1.1931,-1.1333,-1.1184,-1.1397,-1.2155,-1.2053,0.0,0.0,0.0,0.0,0.0,0.0,0.0,0.0,0.0,0.0,0.0,0.0,0.0,0.0,0.0,0.0,0.0,0.0,0.0,0.0,0.0,0.0,0.0,0.0,0.0,0.0,0.0,0.0,0.0,-2.7969,-2.7969,-2.7969,-2.8574,-2.875,-2.832,-2.9531,-2.9627,-2.8266,-2.8904,-2.8924,-2.8225,-2.8924,-3.0039,-3.1543,-3.1543,-3.1973,-3.2773,-3.2988,-3.2918,-3.2708,-3.4372,-3.4743,-3.4237,-3.5061,-3.5392,-3.5463,-3.6278,-3.661,-3.6648,-3.7216,-3.7006,-3.6433,0.0,0.0,0.0,0.0,0.0,0.0,0.0,0.0,0.0,0.0,0.0,0.0,0.0,-1.0323,-1.0246,-1.0134,-0.9693,-0.9281,-0.9011,-0.8723,-0.8652,-0.8931,-0.8715,0.0,-0.8449,-0.891,-0.9419,0.0,0.0,0.0,-1.2973,-1.3332,-1.3915,-1.4698,-1.5008,-1.4687,-1.3929,0.0,0.0,0.0,0.0,0.0,0.0,0.0,0.0,0.0,0.0,-1.316,-1.3085,-1.2299,-1.2122,-1.2258,-1.2354,-1.2452,0.0,0.0,0.0,0.0,0.0,0.0,0.0,0.0,0.0,0.0,0.0,0.0,0.0,0.0,0.0,0.0,0.0,0.0,0.0,0.0,0.0,0.0,0.0,0.0,0.0,0.0,0.0,0.0,0.0,-2.707,-2.707,-2.707,-2.7109,-2.748,-2.8262,-2.8398,-2.8398,-2.8301,-2.834,-2.834,-2.8301,-2.834,-2.8828,-2.9746,-2.9746,-3.0195,-3.1055,-3.1894,-3.1816,-3.1113,-3.2712,-3.3366,-3.3329,-3.4199,-3.4568,-3.4646,-3.5444,-3.5755,-3.5774,-3.5806,-3.5787,-3.5733,0.0,0.0,0.0,0.0,0.0,0.0,0.0,0.0,0.0,0.0,0.0,0.0,0.0,-0.8882,-0.8916,-0.903,-0.8894,-0.8524,-0.7911,-0.7853,-0.7911,-0.8059,-0.8193,-0.8236,-0.8201,-0.9044,-0.965,0.0,0.0,-1.1999,-1.2957,-1.3739,-1.434,-1.4811,-1.5044,-1.4994,-1.4778,-1.4825,0.0,0.0,0.0,0.0,0.0,0.0,0.0,0.0,0.0,0.0,0.0,0.0,0.0,0.0,0.0,0.0,0.0,0.0,0.0,0.0,0.0,0.0,0.0,0.0,0.0,0.0,0.0,0.0,0.0,0.0,0.0,0.0,0.0,0.0,0.0,0.0,0.0,0.0,0.0,0.0,0.0,0.0,0.0,0.0,0.0,0.0,-2.6172,-2.6172,-2.668,-2.6894,-2.6641,-2.7695,-2.7793,-2.668,-2.7168,-2.7461,-2.7461,-2.7461,-2.7891,-2.8769,-2.9336,-2.9473,-2.9277,-3.0703,-3.0898,-3.0137,-3.1267,-3.2061,-3.2675,-3.4064,-3.4298,-3.3866,-3.4675,-3.4993,-3.491,-3.4315,-3.4782,-3.5626,0.0,0.0,0.0,0.0,0.0,0.0,0.0,0.0,0.0,0.0,0.0,0.0,0.0,0.0,-0.7655,-0.7689,-0.7799,-0.764,-0.7107,-0.7267,-0.7462,-0.7598,-0.7867,-0.8082,-0.8221,-0.9204,-0.9933,0.0,0.0,0.0,0.0,-1.4065,-1.4541,-1.471,-1.4908,-1.5191,0.0,0.0,0.0,-1.4744,0.0,0.0,-1.455,0.0,0.0,0.0,0.0,0.0,0.0,0.0,0.0,0.0,0.0,0.0,0.0,0.0,0.0,0.0,-1.5169,0.0,0.0,0.0,0.0,0.0,0.0,0.0,0.0,0.0,0.0,0.0,0.0,0.0,0.0,0.0,0.0,0.0,0.0,0.0,0.0,0.0,0.0,0.0,0.0,0.0,0.0,-2.5703,-2.623,0.0,-2.5723,-2.6797,-2.6894,-2.5742,-2.6269,-2.6562,-2.6562,-2.6562,-2.6992,-2.7871,-2.8457,-2.8574,-2.8359,-2.9805,-3.0156,-2.9648,-3.0527,-3.123,-3.1875,-3.3281,-3.3516,-3.3086,-3.3877,-3.4203,-3.4122,-3.3505,-3.4155,-3.529,0.0,0.0,0.0,0.0,0.0,0.0,0.0,0.0,0.0,-0.7497,0.0,0.0,0.0,0.0,0.0,-0.6121,-0.638,-0.6575,-0.658,-0.6964,-0.7288,-0.756,-0.7753,-0.8083,-0.85,-0.9276,-1.0207,0.0,0.0,0.0,0.0,0.0,-1.4429,-1.4524,-1.4754,-1.5339,-1.6165,0.0,-1.6317,-1.6272,0.0,-1.546,-1.5786,0.0,0.0,0.0,-2.0853,-2.1188,0.0,-2.0315,0.0,0.0,0.0,0.0,0.0,0.0,0.0,0.0,0.0,0.0,0.0,0.0,0.0,0.0,0.0,0.0,0.0,0.0,0.0,0.0,0.0,0.0,0.0,0.0,0.0,0.0,0.0,0.0,0.0,0.0,0.0,0.0,0.0,0.0,0.0,-2.5703,-2.5703,-2.5703,-2.5703,-2.5703,-2.5703,-2.5703,-2.5703,-2.5703,-2.5703,-2.5703,-2.6113,-2.6953,-2.6992,-2.7422,-2.8242,-2.9141,-2.9551,-2.957,-3.0469,-3.0859,-3.0937,-3.1836,-3.2187,-3.2246,-3.3047,-3.3359,-3.3359,-3.334,-3.3906,-3.4687,0.0,0.0,0.0,0.0,0.0,0.0,0.0,0.0,0.0,0.0,0.0,0.0,-0.7425,-0.694,-0.6496,-0.6129,-0.6183,-0.6213,-0.6183,-0.6405,-0.6648,-0.6871,-0.7118,-0.7607,-0.8333,-0.914,-1.0026,0.0,0.0,0.0,0.0,0.0,0.0,0.0,-1.5898,-1.6693,-1.7422,-1.6639,0.0,-1.7213,-1.8482,-1.8597,0.0,0.0,0.0,0.0,0.0,-2.2486,-2.2452,0.0,-2.1488,-1.7847,0.0,0.0,0.0,0.0,0.0,0.0,-1.5338,0.0,0.0,0.0,0.0,0.0,0.0,0.0,0.0,0.0,0.0,0.0,0.0,0.0,0.0,0.0,0.0,0.0,0.0,0.0,0.0,0.0,0.0,0.0,0.0,0.0,-2.5703,0.0,-2.5703,-2.5703,-2.5703,-2.5703,-2.5703,-2.5703,-2.5703,-2.5703,-2.5703,-2.5703,-2.582,-2.6074,-2.6699,-2.6797,-2.6465,-2.7969,-2.832,-2.7793,-2.9316,-2.9961,-3.0078,-3.1582,-3.1836,-3.1348,-3.2207,-3.2539,-3.2461,-3.1816,-3.291,-3.4609,0.0,0.0,0.0,0.0,0.0,0.0,0.0,0.0,0.0,0.0,0.0,0.0,-0.7142,-0.6754,-0.6379,-0.6092,-0.6059,-0.6044,-0.6006,-0.636,-0.6634,-0.6837,-0.7255,-0.7907,-0.8744,-0.9419,-1.0217,0.0,0.0,0.0,0.0,0.0,0.0,0.0,0.0,0.0,0.0,0.0,0.0,0.0,-1.9089,0.0,0.0,-2.1526,-2.1715,0.0,0.0,0.0,-2.4768,-2.5343,-2.3392,0.0,0.0,0.0,0.0,0.0,0.0,0.0,0.0,0.0,0.0,0.0,0.0,0.0,-1.874,-1.9582,0.0,0.0,0.0,0.0,0.0,0.0,0.0,0.0,0.0,0.0,0.0,0.0,0.0,0.0,0.0,0.0,0.0,-2.5703,-2.5703,-2.5703,-2.5703,-2.5703,-2.5703,-2.5703,-2.5703,-2.5703,-2.5703,-2.5703,-2.5703,-2.5703,-2.5703,-2.5703,-2.6211,-2.6191,-2.5742,-2.7129,-2.748,-2.7109,-2.8848,-2.9609,-2.9707,-3.1094,-3.1367,-3.0957,-3.1465,-3.166,-3.1641,-3.1504,-3.2598,-3.4082,0.0,0.0,0.0,0.0,0.0,0.0,0.0,0.0,0.0,0.0,-0.6753,-0.679,-0.6613,-0.6602,-0.6469,-0.6178,-0.6149,-0.6137,-0.6145,-0.6665,-0.7054,-0.7255,-0.7871,-0.8559,-0.9316,-0.9843,-1.0548,0.0,0.0,0.0,0.0,0.0,0.0,0.0,0.0,0.0,0.0,0.0,0.0,-2.1309,-1.8954,-1.9161,0.0,0.0,-2.2758,-2.2471,-2.5698,-2.6836,-2.668,-2.5542,-2.4332,0.0,0.0,0.0,0.0,0.0,-1.4947,0.0,0.0,0.0,0.0,0.0,0.0,0.0,-1.8631,-1.9216,-1.9916,0.0,0.0,0.0,0.0,0.0,0.0,0.0,0.0,0.0,0.0,0.0,0.0,0.0,0.0,0.0,-2.5703,-2.5703,-2.5703,-2.5703,-2.5703,-2.5703,-2.5703,-2.5703,-2.5703,-2.5703,-2.5703,-2.5703,-2.5703,-2.5703,-2.5703,-2.5703,-2.5703,-2.5703,-2.5723,-2.6504,-2.6914,-2.709,-2.873,-2.9512,-2.9668,-3.0547,-3.0898,-3.0898,-3.0898,-3.0898,-3.0996,-3.1777,-3.2578,-3.3281,0.0,0.0,0.0,0.0,0.0,0.0,0.0,0.0,0.0,0.0,-0.757,-0.773,-0.728,-0.7537,-0.7608,-0.7178,-0.7123,-0.7128,-0.7129,-0.7324,-0.7521,-0.7676,-0.8078,-0.8508,-0.8981,-0.9651,-1.0317,0.0,0.0,0.0,0.0,0.0,0.0,0.0,0.0,0.0,0.0,0.0,0.0,-2.2817,-2.2603,0.0,-2.4615,-2.575,-2.5641,-2.4997,-2.5633,-2.5863,-2.5529,-2.3173,-2.362,-2.4354,0.0,0.0,0.0,-1.7597,0.0,0.0,0.0,0.0,0.0,0.0,0.0,0.0,-1.8779,-1.9239,-1.9963,0.0,0.0,0.0,0.0,0.0,0.0,0.0,0.0,0.0,0.0,0.0,0.0,0.0,0.0,0.0,-2.5703,-2.5703,-2.5703,-2.5703,-2.5703,-2.5703,-2.5703,-2.5703,-2.5703,-2.5703,-2.5703,-2.5703,-2.5703,-2.5703,-2.5703,-2.5703,-2.5703,-2.5703,-2.5703,-2.5879,-2.6348,-2.7051,-2.8105,-2.8945,-2.9668,-3.0547,-3.0898,-3.0898,-3.0898,-3.0898,-3.0918,-3.1094,-3.1699,-3.2539,0.0,0.0,0.0,0.0,0.0,0.0,0.0,0.0,0.0,0.0,-0.7928,-0.8277,0.0,0.0,0.0,0.0,0.0,0.0,0.0,-0.7895,-0.8055,-0.8962,-0.889,-0.9126,-0.9722,-1.023,-1.0844,-1.1551,0.0,0.0,0.0,0.0,0.0,0.0,0.0,0.0,0.0,0.0,-2.2565,-2.4388,-2.3339,0.0,-2.5272,-2.5401,-2.52,-2.497,-2.5874,-2.6478,-2.6572,-2.4821,-2.4822,0.0,-2.2032,-2.0192,-1.9168,0.0,-1.7707,-1.6007,0.0,0.0,0.0,-1.5602,0.0,0.0,0.0,-1.896,-1.9877,-2.1932,-2.174,-2.1435,-2.2218,-2.2383,-2.2569,0.0,0.0,0.0,0.0,0.0,0.0,0.0,0.0,0.0,-2.5703,-2.5703,-2.5703,-2.5703,-2.5703,-2.5703,-2.5703,-2.5703,-2.5703,-2.5703,-2.5703,-2.5703,-2.5703,-2.5703,-2.5683,-2.5658,-2.5658,-2.5658,-2.5658,-2.5627,-2.6104,-2.7051,-2.7888,-2.8768,-2.9668,-3.0547,-3.0898,-3.0898,-3.0898,-3.0898,-3.0957,-3.1387,-3.1816,-3.2266,-0.5933,0.0,0.0,0.0,0.0,0.0,0.0,0.0,0.0,0.0,0.0,0.0,0.0,0.0,0.0,0.0,0.0,0.0,0.0,0.0,-0.8691,-1.0091,-0.9764,-0.9863,-1.057,-1.0929,-1.1509,-1.2316,0.0,0.0,0.0,0.0,0.0,0.0,0.0,0.0,0.0,0.0,0.0,-2.5632,0.0,-2.403,-2.5407,-2.4915,-2.4593,-2.4648,-2.6392,-2.7569,-2.8158,-2.7151,-2.664,-2.6046,-2.3936,-2.1769,0.0,0.0,0.0,0.0,0.0,0.0,0.0,0.0,0.0,-1.8241,0.0,0.0,0.0,-2.1299,-2.1031,-2.0761,0.0,-2.1505,0.0,0.0,0.0,0.0,0.0,0.0,0.0,0.0,0.0,0.0,-2.5682,-2.5683,-2.5703,-2.5703,-2.5703,-2.5703,-2.5703,-2.5683,-2.5683,-2.5703,-2.5683,-2.5761,-2.5936,-2.5761,-2.5813,-2.6074,-2.5746,-2.5668,-2.5821,-2.5784,-2.6279,-2.726,-2.8062,-2.8945,-2.9859,-3.0542,-3.0835,-3.0856,-3.0879,-3.0898,-3.0996,-3.1699,-3.1953,-3.1973,-0.6556,-0.6992,0.0,0.0,0.0,0.0,0.0,0.0,0.0,0.0,0.0,0.0,0.0,0.0,0.0,0.0,0.0,0.0,-0.9544,0.0,0.0,-0.9917,-1.0059,-1.0229,-1.0524,-1.1167,-1.1806,-1.2388,0.0,0.0,0.0,0.0,0.0,0.0,-1.842,0.0,0.0,0.0,-2.445,0.0,-2.6598,-2.7005,0.0,-2.753,-2.6939,-2.6129,-2.7395,-2.8396,-2.8814,0.0,-2.8089,-2.9298,0.0,-2.3724,-2.3101,-2.0958,0.0,0.0,0.0,0.0,0.0,0.0,-1.8391,0.0,0.0,0.0,-2.0508,-2.0702,0.0,-2.0539,-2.0627,0.0,0.0,0.0,0.0,0.0,0.0,0.0,0.0,0.0,-2.5459,-2.5483,0.0,-2.568,-2.5703,-2.5703,-2.5703,-2.5703,-2.5703,-2.5637,-2.5636,-2.5703,-2.5637,-2.5976,-2.6752,-2.5996,-2.6344,-2.7799,-2.6252,-2.5926,-2.6656,-2.6665,-2.7142,-2.8019,-2.8821,-2.9663,-3.0492,-3.0589,-3.0628,-3.0643,-3.0834,-3.0898,-3.0918,-3.1016,-3.1055,-3.1152,-0.6605,-0.707,0.0,0.0,0.0,0.0,0.0,0.0,0.0,0.0,0.0,0.0,0.0,0.0,0.0,0.0,0.0,-1.3129,0.0,0.0,0.0,0.0,0.0,0.0,-1.4454,-1.3442,-1.3145,-1.367,-1.4279,0.0,0.0,0.0,0.0,0.0,-1.9747,0.0,-2.2785,0.0,-2.6148,0.0,0.0,0.0,0.0,-2.7758,-2.7933,-2.7951,-2.8463,-2.9187,-2.9785,0.0,-2.885,0.0,0.0,0.0,0.0,0.0,0.0,0.0,0.0,0.0,0.0,0.0,0.0,0.0,-1.9519,0.0,-2.036,0.0,0.0,0.0,0.0,0.0,0.0,0.0,-2.0869,0.0,0.0,0.0,0.0,0.0,0.0,0.0,-2.548,0.0,0.0,-2.5633,-2.5573,-2.5542,-2.5584,-2.6034,-2.6307,-2.6347,-2.6794,-2.7225,-2.7595,-2.7225,-2.739,-2.8027,-2.7297,-2.7142,-2.7484,-2.747,-2.7935,-2.8804,-2.911,-2.9765,-3.0606,-3.0606,-3.0606,-3.0611,-3.0685,-3.0723,-3.0726,-3.0767,-3.0772,-3.0852,-0.7021,0.0,0.0,0.0,0.0,0.0,0.0,0.0,0.0,0.0,0.0,0.0,-1.6723,-1.4358,0.0,0.0,-1.7173,-1.6318,0.0,0.0,-1.6124,0.0,0.0,0.0,0.0,0.0,-1.4819,-1.4544,0.0,0.0,0.0,0.0,0.0,0.0,0.0,-2.2417,-2.3746,0.0,-2.7177,-2.6362,-2.8567,-2.8783,-2.7821,-2.8007,-2.8653,-2.9467,-2.9467,-2.9871,-3.0402,-3.0452,-2.9571,0.0,-2.9511,0.0,-2.3271,0.0,0.0,0.0,-2.2142,0.0,0.0,0.0,0.0,0.0,0.0,0.0,0.0,0.0,0.0,0.0,0.0,0.0,-1.958,0.0,0.0,-2.0469,0.0,0.0,0.0,0.0,0.0,0.0,0.0,0.0,0.0,0.0,0.0,-2.5401,-2.5477,-2.6255,-2.6747,-2.6796,-2.7627,-2.8178,-2.8392,-2.8178,-2.8272,-2.8656,-2.8192,-2.8096,-2.8308,-2.824,-2.8589,-2.9256,-2.9455,-2.9918,-3.0552,-3.0552,-3.0552,-3.0552,-3.0552,-3.0552,-3.0567,-3.0648,-3.0677,-3.068,-0.817,-0.8062,0.0,0.0,0.0,0.0,0.0,0.0,0.0,0.0,0.0,0.0,0.0,0.0,0.0,0.0,0.0,-1.7537,-1.7817,0.0,-1.6055,0.0,0.0,-1.6546,0.0,0.0,0.0,0.0,0.0,0.0,0.0,0.0,0.0,0.0,-2.1295,-2.2963,-2.4996,-2.5743,-2.6759,-2.7898,-2.8764,-2.959,-3.0151,0.0,-2.932,-3.0359,-3.0359,0.0,0.0,-3.041,-3.0371,0.0,0.0,0.0,0.0,0.0,0.0,0.0,0.0,0.0,0.0,-2.4789,0.0,0.0,0.0,0.0,-2.0225,0.0,0.0,0.0,-2.0244,-2.0215,0.0,0.0,0.0,0.0,0.0,0.0,0.0,0.0,0.0,0.0,0.0,-2.3702,0.0,0.0,-2.4872,-2.5331,-2.5401,-2.6118,-2.661,-2.6796,-2.7574,-2.838,-2.9165,-2.8399,-2.8782,-3.0294,-2.869,-2.8305,-2.9055,-2.9055,-2.9074,-2.9162,-2.9998,-3.0371,-3.0421,-3.0421,-3.0421,-3.0421,-3.0421,-3.0421,-3.0417,-3.0547,-3.0606,-3.0606,0.0,0.0,0.0,0.0,0.0,0.0,0.0,-1.0859,0.0,0.0,0.0,0.0,0.0,-2.0821,-2.0857,0.0,0.0,-2.1696,-2.3136,-2.1984,0.0,0.0,0.0,-2.0417,0.0,0.0,0.0,0.0,0.0,0.0,0.0,0.0,0.0,0.0,0.0,-2.2753,0.0,0.0,0.0,0.0,0.0,-2.8241,-2.8254,0.0,-2.9901,-3.0398,-3.0398,-3.0398,0.0,-3.0398,-3.0398,-3.0283,-2.9694,-2.9039,-2.8288,-2.7178,-2.639,0.0,0.0,0.0,-2.6154,-2.6869,0.0,0.0,0.0,0.0,0.0,0.0,0.0,0.0,0.0,0.0,0.0,0.0,0.0,0.0,0.0,0.0,0.0,0.0,0.0,0.0,0.0,0.0,0.0,0.0,-2.4716,0.0,-2.5197,-2.6561,-2.7411,-2.7526,-2.8878,-2.9715,-2.9985,-2.9715,-2.9847,-3.0379,-2.9833,-2.9698,-2.9967,-2.9967,-2.9967,-2.9987,-3.0275,-3.0398,-3.0398,-3.0398,-3.0398,-3.0398,-3.0398,-3.0398,-3.0414,-3.0498,-3.0537,-3.0545,-0.9137,0.0,0.0,0.0,0.0,0.0,0.0,0.0,0.0,0.0,-1.7963,0.0,-2.3903,0.0,-2.3527,0.0,-2.4992,-2.4567,-2.6321,-2.494,0.0,-2.6894,-2.4739,0.0,0.0,0.0,0.0,0.0,0.0,-1.7074,0.0,0.0,0.0,0.0,0.0,-2.2832,-2.3436,-2.5597,-2.6209,0.0,0.0,-2.7986,0.0,0.0,-2.9823,-2.9927,0.0,-3.0142,-3.0142,-3.0142,-3.0142,-3.0142,-3.0142,-2.9894,-2.9516,-2.8998,-2.8451,-2.8174,-2.8867,-2.8368,0.0,-2.8608,-2.6905,0.0,-2.4506,0.0,-2.1687,0.0,0.0,0.0,0.0,0.0,0.0,0.0,0.0,0.0,0.0,-1.9457,0.0,0.0,0.0,0.0,0.0,0.0,0.0,-2.3348,-2.4105,-2.4727,0.0,-2.6771,-2.7769,-2.789,-2.9525,-3.0398,-3.0398,-3.0398,-3.0398,-3.0398,-3.0398,-3.0398,-3.0398,-3.0398,-3.0398,-3.0398,-3.0398,-3.0398,-3.0398,-3.0398,-3.0398,-3.0398,-3.0398,-3.0398,-3.0421,-3.0451,-3.0453,-3.0472,-1.004,0.0,0.0,0.0,-1.1586,0.0,0.0,0.0,-1.6928,0.0,-2.0161,-2.2998,-2.4241,-2.4619,-2.5561,-2.7642,-2.6427,-2.5993,-2.7054,-2.4919,0.0,0.0,-2.5201,-2.3549,-2.1464,0.0,0.0,0.0,0.0,0.0,0.0,0.0,0.0,0.0,-2.2372,0.0,-2.3429,-2.5425,-2.6265,-2.6334,-2.7622,-2.8737,-2.9604,-2.9446,-2.9222,-2.9035,-2.9513,-2.9696,-2.9696,-2.9696,-2.9696,-2.9696,-2.9753,-3.0318,-3.096,-3.096,-3.1176,-3.1397,-3.1359,-2.9594,-2.8186,-2.9985,-2.7746,0.0,0.0,0.0,-2.5302,0.0,0.0,0.0,0.0,0.0,0.0,0.0,0.0,0.0,0.0,0.0,0.0,0.0,0.0,0.0,0.0,0.0,-2.1581,-2.2286,-2.312,-2.4011,0.0,-2.6663,-2.7695,-2.7879,-2.9525,-3.0398,-3.0398,-3.0398,-3.0398,-3.0398,-3.0398,-3.0398,-3.0398,-3.0398,-3.0398,-3.0398,-3.0398,-3.0398,-3.0398,-3.0398,-3.0398,-3.0398,-3.0398,-3.0398,-3.0398,-3.0398,-3.0398,-3.0421,-1.1128,-1.2699,-1.3981,0.0,-1.3761,-1.3701,0.0,0.0,0.0,0.0,-2.2659,-2.4782,-2.571,-2.7217,-2.777,-2.6653,-2.6455,0.0,0.0,0.0,0.0,-2.5765,-2.7094,-2.5913,-2.1705,-2.1853,0.0,-1.8037,0.0,0.0,-1.8743,0.0,0.0,0.0,0.0,0.0,-2.3486,-2.4108,-2.5265,-2.6777,-2.8215,-2.8725,-2.8685,0.0,-2.8846,-2.8585,-2.942,-2.9696,-2.9696,-2.9696,-2.9696,-2.979,-3.0413,-3.1186,-3.1864,-3.1808,-3.2298,-3.2732,-3.2071,-3.0974,-3.0158,-3.0644,-2.8565,-2.6551,0.0,0.0,0.0,0.0,0.0,0.0,0.0,0.0,0.0,0.0,0.0,0.0,0.0,0.0,0.0,-1.9563,0.0,0.0,0.0,-2.0649,-2.1204,-2.1356,-2.2706,-2.3652,-2.3973,0.0,-2.765,-2.775,-2.9471,-3.0398,-3.0398,-3.0398,-3.0398,-3.0398,-3.0398,-3.0398,-3.0398,-3.0398,-3.0398,-3.0398,-3.0398,-3.0398,-3.0398,-3.0398,-3.0398,-3.0398,-3.0398,-3.0398,-3.0398,-3.0398,-3.0398,-3.0506,-1.2343,0.0,0.0,-1.6301,0.0,0.0,-1.766,-1.9124,0.0,-2.2982,-2.5613,0.0,-2.6373,-2.7757,-2.8117,-2.6507,-2.6588,0.0,-2.679,0.0,0.0,-2.6374,-2.7441,-2.6503,-2.3204,-2.2735,0.0,-1.9802,0.0,0.0,-1.8988,0.0,0.0,0.0,0.0,-2.2818,-2.3626,-2.463,-2.5928,-2.7368,-2.8541,-2.9061,0.0,-2.9421,-2.9562,-2.9708,-3.025,-2.9994,-2.9397,-2.9397,-2.9397,-2.9527,-3.0348,-3.1169,-3.1918,-3.2229,-3.2502,-3.2683,-3.2531,-3.1448,-3.0469,-3.0809,-2.9776,-2.8576,-2.8238,-2.766,-2.7232,0.0,-2.6472,-2.5466,0.0,0.0,0.0,0.0,0.0,0.0,0.0,0.0,0.0,0.0,-1.8607,0.0,0.0,-1.997,-2.0646,-2.0931,-2.1826,-2.2736,0.0,0.0,-2.6605,-2.7115,-2.8854,-2.9564,-2.9084,-2.9965,-3.0163,-2.9698,-3.0182,-3.0398,-3.0398,-3.0398,-3.0398,-3.0398,-3.0398,-3.0398,-3.0398,-3.0398,-3.0398,-3.0398,-3.0398,-3.0398,-3.0398,-3.0398,-3.0398,-3.0456,-1.391,0.0,0.0,0.0,0.0,0.0,0.0,-2.3391,0.0,-2.5274,0.0,-2.8865,-2.6403,-2.7155,-2.752,-2.6759,0.0,-2.7163,-2.8192,-2.7604,-2.7241,-2.7303,-2.6918,-2.6201,-2.5092,-2.3852,-2.2778,0.0,0.0,0.0,0.0,0.0,0.0,0.0,0.0,0.0,0.0,-2.595,-2.7206,-2.7987,-2.8835,-2.9587,-3.0194,-3.0331,-3.0794,-3.1384,-3.1384,-3.0503,-2.931,-2.92,-2.914,-2.931,-3.0099,-3.0834,-3.1568,-3.2504,-3.233,-3.2061,-3.2743,-3.1472,-3.0095,-3.0791,-3.096,-3.0772,-3.0077,-3.0396,-3.0829,-3.0941,-2.897,-2.7364,0.0,0.0,0.0,0.0,0.0,0.0,0.0,0.0,0.0,0.0,0.0,0.0,0.0,0.0,-2.0013,-2.0649,-2.091,0.0,0.0,0.0,-2.5352,-2.6282,-2.8052,-2.8572,-2.7759,-2.9519,-2.9985,-2.9186,-3.0004,-3.0367,-3.0355,-3.0355,-3.0355,-3.0355,-3.0355,-3.0367,-3.0398,-3.0398,-3.0398,-3.0398,-3.0398,-3.0398,-3.0398,-3.0398,-3.0398,-3.0417,-1.6423,0.0,0.0,0.0,0.0,-2.2439,-2.6497,-2.4641,-2.3229,-2.4594,-2.6665,-2.7352,-2.5583,-2.6839,-2.752,-2.6759,-2.6691,0.0,0.0,0.0,0.0,-2.6808,-2.6754,-2.6313,-2.5518,-2.4099,-2.2733,0.0,0.0,0.0,0.0,0.0,0.0,0.0,0.0,0.0,-2.5391,-2.6337,0.0,-2.8106,-2.9453,-3.0081,-3.0282,-3.094,-3.1272,-3.1384,-3.1384,-3.1219,-3.087,-3.021,-2.9989,-3.0136,-3.0944,-3.1274,-3.1678,-3.3164,-3.3044,-3.2488,-3.2636,-3.1912,-3.1149,-3.1278,-3.1315,-3.1278,-3.1131,-3.0706,-3.0387,-3.0626,-2.9749,-2.8554,-2.7269,0.0,0.0,0.0,0.0,0.0,0.0,0.0,0.0,0.0,0.0,-2.0234,0.0,0.0,0.0,0.0,0.0,0.0,0.0,0.0,-2.5724,0.0,-2.7813,0.0,0.0,0.0,-3.0667,-3.1181,-3.0648,-3.0279,-3.0075,-3.0075,-3.0075,-3.0075,-3.0075,-3.0196,-3.0398,-3.0398,-3.0398,-3.0398,-3.0398,-3.0398,-3.0398,-3.0398,-3.0398,-3.059,0.0,0.0,0.0,0.0,0.0,0.0,0.0,-2.6253,-2.6057,-2.7766,-2.8516,-2.8578,-2.7827,-2.7777,-2.7841,-2.7875,-2.7148,-2.686,-2.7249,-2.6911,-2.6691,-2.6691,-2.6691,-2.6522,-2.6184,-2.5275,-2.4083,-2.2541,0.0,0.0,0.0,0.0,0.0,0.0,0.0,-2.4729,0.0,0.0,0.0,-2.8276,-2.9195,-3.0044,-3.0818,-3.1196,-3.1593,-3.1982,-3.2246,-3.2329,-3.2192,-3.1169,-3.0815,-3.0962,-3.177,-3.2027,-3.2265,-3.344,-3.3238,-3.2706,-3.3109,-3.232,-3.1494,-3.1916,-3.2027,-3.1916,-3.1494,-3.1421,-3.1354,-3.1062,-3.0364,-2.916,-2.699,-2.5129,0.0,0.0,0.0,0.0,0.0,0.0,0.0,0.0,0.0,0.0,0.0,0.0,0.0,0.0,0.0,0.0,0.0,0.0,-2.4348,0.0,0.0,0.0,-2.7765,0.0,-2.9764,-2.9216,-2.9764,-2.9958,-2.9845,-2.9845,-2.9845,-2.9845,-2.9845,-2.9927,-3.0037,-3.0155,-3.0196,-3.0209,-3.0355,-3.0398,-3.0398,-3.0398,-3.0398,-3.0513,0.0,-2.1327,0.0,0.0,-2.3178,0.0,-2.6589,-2.7832,-2.9098,-3.0752,-3.0463,-3.004,-2.9888,-2.8789,-2.8247,-2.8687,-2.7774,-2.73,-2.7571,-2.7182,-2.686,-2.6708,-2.6691,-2.6691,-2.6691,-2.6253,-2.5311,0.0,0.0,0.0,0.0,0.0,0.0,0.0,0.0,0.0,0.0,0.0,-2.7848,-2.8596,-2.9228,-3.0221,-3.1335,-3.1494,-3.1936,-3.255,-3.2921,-3.3045,-3.2925,-3.1965,-3.1642,-3.177,-3.2412,-3.2614,-3.2761,-3.3568,-3.3238,-3.2742,-3.3366,-3.2614,-3.1806,-3.2449,-3.2742,-3.2706,-3.2045,-3.2265,-3.2375,-3.1568,-3.0613,-2.9318,-2.7323,-2.6617,0.0,0.0,0.0,0.0,0.0,0.0,0.0,0.0,0.0,0.0,-2.0318,0.0,0.0,0.0,0.0,0.0,-2.1768,0.0,0.0,0.0,0.0,-2.6451,-2.6153,0.0,-2.8855,-2.7793,-2.9079,-2.9678,-2.9644,-2.9644,-2.9644,-2.9644,-2.9644,-2.9661,-2.9713,-2.9877,-2.9969,-3.0013,-3.0222,-3.0355,-3.0398,-3.0398,-3.0398,-3.0398,0.0,0.0,0.0,0.0,0.0,0.0,-2.8511,-2.9026,-2.9377,-3.0106,-3.0142,-2.9854,-2.9161,-2.8958,-2.8619,-2.7977,-2.845,-2.8213,-2.6877,-2.7368,-2.7402,-2.6725,-2.6691,-2.6691,-2.6691,-2.6013,-2.533,0.0,0.0,-2.2907,0.0,0.0,0.0,0.0,0.0,0.0,0.0,-2.7586,-2.8209,-2.9077,-3.049,-3.1176,-3.1388,-3.2095,-3.2413,-3.2517,-3.255,-3.255,-3.2565,-3.2456,-3.2433,-3.2504,-3.2596,-3.2614,-3.2761,-3.3568,-3.3238,-3.2632,-3.2706,-3.2614,-3.2522,-3.2596,-3.3146,-3.366,-3.3587,-3.3073,-3.2375,-3.1568,-3.0173,-2.903,-2.881,-2.7369,-2.5556,0.0,0.0,0.0,0.0,0.0,-2.2105,-1.9996,0.0,0.0,0.0,-1.9178,0.0,0.0,-1.9739,0.0,0.0,0.0,0.0,-2.3992,-2.5,-2.6244,-2.7672,-2.8184,-2.9171,-3.0619,-2.9979,-2.9607,-2.9414,-2.9414,-2.9414,-2.9414,-2.9414,-2.9532,-2.9696,-2.9731,-2.9829,-2.9999,-3.0028,-3.0196,-3.0398,-3.0398,-3.0398,-3.0398,0.0,0.0,0.0,0.0,0.0,0.0,0.0,-2.9398,-2.9943,-3.0177,-3.0538,-3.0649,-3.0345,-2.9922,-2.9702,-2.9837,-2.9313,-2.8757,-2.8112,-2.7909,-2.7486,-2.6725,-2.6691,-2.6691,-2.6691,-2.6404,-2.5949,0.0,0.0,0.0,0.0,0.0,0.0,0.0,0.0,-2.7838,-2.827,-2.8647,-2.9263,-2.9983,-3.0404,-3.0833,-3.1263,-3.161,-3.1731,-3.175,-3.2004,-3.2057,-3.2127,-3.2417,-3.2499,-3.2529,-3.2529,-3.2726,-3.3019,-3.3346,-3.3201,-3.2964,-3.2964,-3.2755,-3.2529,-3.2529,-3.2762,-3.3027,-3.3027,-3.2762,-3.2373,-3.1873,-3.0666,-2.9586,-2.9085,-2.8375,-2.7191,-2.5094,0.0,0.0,0.0,0.0,0.0,-1.9717,0.0,-2.3119,0.0,0.0,0.0,0.0,0.0,0.0,0.0,0.0,0.0,-2.5415,0.0,-2.6576,-2.801,-2.789,-2.8225,-2.9033,-2.9198,-2.9249,-2.9156,-2.9156,-2.9156,-2.9156,-2.9156,-2.9203,-2.9293,-2.9455,-2.957,-2.9643,-2.9763,-2.9973,-3.015,-3.015,-3.0254,-3.0398,-2.7641,0.0,-2.7832,0.0,-2.8079,-2.8382,-2.8382,-2.9312,-3.0146,-3.0547,-3.0792,-3.1015,-3.119,-3.0734,-3.0548,-3.0852,-3.0108,-2.9448,-2.9008,-2.867,-2.8163,-2.7402,-2.7368,0.0,-2.7368,-2.7368,-2.716,-2.6733,-2.6509,0.0,0.0,0.0,0.0,0.0,-2.8452,-2.9008,-2.9091,-2.9505,-2.9987,-3.045,-3.0425,-3.0734,-3.119,-3.119,-3.119,-3.123,-3.1507,-3.1623,-3.166,-3.2021,-3.2127,-3.2162,-3.2417,-3.2713,-3.2983,-3.2983,-3.2983,-3.2983,-3.2983,-3.2745,-3.2484,-3.2484,-3.2484,-3.2484,-3.2484,-3.2484,-3.237,-3.1888,-3.0757,-2.9675,-2.9087,-2.8814,-2.8033,-2.6018,0.0,0.0,0.0,-2.3064,0.0,0.0,-2.1616,-2.3328,-2.3328,-2.06,0.0,0.0,0.0,0.0,0.0,0.0,0.0,0.0,0.0,0.0,-2.7514,-2.725,-2.7437,-2.8091,-2.8718,-2.8994,-2.8994,-2.8994,-2.8994,-2.8994,-2.8994,-2.8994,-2.8998,-2.9203,-2.933,-2.9394,-2.957,-2.9729,-2.9924,-2.9984,-3.0122,-3.0299,-3.1114,-3.0323,-2.9189,-2.8511,-2.8366,-2.8382,-2.8382,-2.8996,-2.9887,-3.1134,-3.0695,-3.0518,-3.1134,-3.119,-3.0903,-3.0192,-3.0768,-3.0548,-2.9076,-2.9668,-2.9736,0.0,0.0,-2.8994,-2.8994,-2.8994,-2.8958,-2.8958,0.0,0.0,-2.8174,0.0,-2.8608,-2.8769,-2.9232,-2.9416,-2.9506,-2.9921,-3.0108,-3.0176,-3.0903,-3.119,-3.119,-3.119,-3.119,-3.119,-3.119,-3.119,-3.119,-3.123,-3.123,-3.1368,-3.2213,-3.2517,-3.2517,-3.2517,-3.2517,-3.2517,-3.2517,-3.2517,-3.2484,-3.2484,-3.2484,-3.2484,-3.2484,-3.2484,-3.2254,-3.1458,-3.0079,-2.9001,-2.9012,-2.8393,-2.7384,-2.5782,0.0,0.0,0.0,0.0,0.0,-2.0179,-2.177,-2.32,-2.32,-2.162,0.0,0.0,0.0,0.0,0.0,0.0,0.0,-2.3277,-2.3348,0.0,-2.6105,-2.6188,-2.7149,-2.8975,-2.8975,-2.8994,-2.8994,-2.8994,-2.8994,-2.8994,-2.8994,-2.8994,-2.8994,-2.9017,-2.9156,-2.9412,-2.9412,-2.9532,-2.9731,-2.9924,-2.9999,-3.0028,-3.1217,-3.1172,-3.0761,-3.0554,-3.0131,-2.9684,-2.9265,-2.9377,-2.9437,-2.9422,-2.9534,-2.9761,-2.9935,-3.0699,-3.1106,0.0,-3.1055,-3.0784,0.0,-2.9973,-2.977,-2.9008,-2.9011,-2.9011,-2.9011,-2.9011,-2.9011,-2.9011,0.0,0.0,0.0,-2.9822,-3.0124,-2.9719,-3.0364,-3.0644,-3.0653,-3.0811,-3.0852,-3.0869,-3.1106,-3.119,-3.119,-3.119,-3.119,-3.119,-3.119,-3.119,-3.119,-3.119,-3.119,-3.1269,-3.1524,-3.1806,-3.2022,-3.2022,-3.2022,-3.2022,-3.2022,-3.1806,-3.162,-3.162,-3.162,-3.162,-3.162,-3.1408,-3.0993,-3.0227,-2.9492,-2.8841,-2.8357,-2.8057,-2.7254,-2.5281,-2.6321,0.0,-2.1607,0.0,-2.459,-2.1742,-2.2271,-2.3417,-2.4891,-2.3465,0.0,0.0,0.0,0.0,0.0,0.0,0.0,0.0,-2.6152,0.0,-2.8067,-2.7409,-2.7734,-2.8994,-2.8994,-2.8994,-2.8994,-2.8994,-2.8994,-2.8994,-2.8994,-2.8994,-2.8994,-2.8994,-2.9044,-2.9134,-2.9134,-2.9289,-2.9494,-2.957,-2.9678,-2.9796,-3.1319,-3.1482,-3.1317,-3.0881,-3.0447,-2.9939,-2.931,-2.897,-2.8805,-2.8881,-2.8983,-2.9134,-2.9361,-3.0081,0.0,-3.0518,-3.0518,-3.0336,-2.9847,-2.9855,-2.9736,-2.9482,-2.9465,-2.9597,-2.982,-2.982,0.0,-2.982,-2.9726,-2.9724,-2.9724,-3.074,-3.0954,-3.0531,-3.0987,-3.119,-3.119,-3.119,-3.119,-3.119,-3.119,-3.119,-3.119,-3.119,-3.119,-3.119,-3.119,-3.119,-3.119,-3.119,-3.119,-3.119,-3.119,-3.1389,-3.1565,-3.1565,-3.1565,-3.1565,-3.1565,-3.1372,-3.119,-3.119,-3.119,-3.119,-3.119,-3.0793,-3.0276,-2.9813,-2.9108,-2.8401,-2.7931,-2.7648,-2.7065,-2.5885,-2.6981,-2.6746,-2.321,0.0,-2.5341,0.0,0.0,0.0,0.0,-2.4504,-2.3857,0.0,0.0,0.0,0.0,0.0,0.0,-2.6874,-2.6952,-2.7445,-2.8429,-2.7807,-2.7994,-2.8994,-2.8994,-2.914,-2.9457,-2.9122,-2.8994,-2.8994,-2.8994,-2.8994,-2.8994,-2.8994,-2.8994,-2.8994,-2.8994,-2.9089,-2.9267,-2.9372,-2.9474,-2.9607,-3.1482,-3.1482,-3.115,0.0,-2.9669,0.0,-2.8771,-2.8083,-2.8082,-2.9246,-2.8801,-2.8638,-2.9225,-2.9271,-2.9271,-2.9271,0.0,0.0,-2.9451,-2.9496,-2.9761,-3.0351,-3.0335,-3.0617,-3.119,-3.119,-3.119,-3.119,-3.119,-3.119,-3.119,-3.119,-3.119,-3.119,-3.119,-3.119,-3.119,-3.119,-3.119,-3.119,-3.119,-3.119,-3.119,-3.119,-3.119,-3.119,-3.119,-3.119,-3.119,-3.119,-3.119,-3.119,-3.119,-3.119,-3.119,-3.119,-3.119,-3.119,-3.119,-3.119,-3.119,-3.119,-3.119,-3.119,-3.119,-3.0632,-3.0091,-3.004,-2.8856,-2.7772,-2.7722,-2.7165,-2.6808,-2.721,-2.7272,-2.6688,-2.488,-2.6371,-2.6156,0.0,0.0,0.0,-2.4918,-2.504,-2.5046,0.0,0.0,0.0,0.0,0.0,-2.5499,-2.6201,-2.6243,-2.6705,-2.7601,-2.7596,-2.8049,-2.8994,-2.9049,-2.9494,-3.0173,-2.9494,-2.9122,-2.9067,-2.9067,-2.9049,-2.8994,-2.9049,-2.9049,-2.8994,-2.9049,-2.9067,-2.9113,-2.9307,-2.9409,-2.9468,0.0,0.0,-3.1377,-3.112,-3.0642,-3.0073,-2.9445,-2.8786,-2.8269,-2.8097,-2.7901,-2.786,-2.8027,-2.8042,-2.8042,-2.8042,-2.93,-3.0081,-3.0081,-3.0518,-3.0838,-3.0975,-3.0975,-3.1055,-3.119,-3.119,-3.119,-3.119,-3.119,-3.119,-3.119,-3.119,-3.119,-3.119,-3.119,-3.119,-3.119,-3.119,-3.119,-3.119,-3.119,-3.119,-3.119,-3.119,-3.119,-3.119,-3.119,-3.119,-3.119,-3.119,-3.119,-3.119,-3.119,-3.119,-3.119,-3.119,-3.119,-3.119,-3.119,-3.119,-3.119,-3.119,-3.119,-3.119,-3.119,-3.0632,-2.9939,-2.9364,-2.8484,-2.7638,-2.7063,-2.681,-2.6725,-2.6825,-2.7083,-2.6516,-2.426,-2.4672,-2.4834,0.0,-2.4147,-2.5205,-2.6964,-2.7162,-2.6527,0.0,0.0,0.0,-2.391,-2.649,-2.8103,-2.8268,-2.8021,-2.8112,-2.8636,-2.8342,-2.8458,-2.8994,-2.9622,-3.0026,-3.021,-3.0632,-3.0503,-2.9934,-2.9934,-2.9586,-2.9049,-2.9659,-2.9549,-2.9049,-2.9696,-2.9934,-2.9843,-2.9306,-2.9476,-2.9941,-3.1482,-3.1482,-3.1377,-3.112,-3.0746,-3.0193,-2.9265,-2.8831,-2.8353,-2.7715,-2.7625,-2.7625,-2.7625,-2.7625,-2.7625,-2.7625,-2.848,-2.9073,-2.9073,-2.9374,-2.9657,-2.9935,-2.9995,-3.0081,-3.0393,-3.0393,-3.0393,-3.0393,-3.0393,-3.0393,-3.0393,-3.0658,-3.0797,-3.0797,-3.1072,-3.119,-3.119,-3.119,-3.119,-3.119,-3.119,-3.119,-3.119,-3.119,-3.119,-3.119,-3.119,-3.119,-3.119,-3.119,-3.119,-3.119,-3.119,-3.119,-3.119,-3.119,-3.119,-3.119,-3.119,-3.119,-3.119,-3.119,-3.119,-3.119,-3.119,-3.0362,-2.9482,-2.9059,-2.8095,-2.7182,-2.6776,-2.6691,-2.6691,-2.6691,-2.6303,-2.5497,-2.4128,-2.4182,-2.4364,-2.4265,-2.4958,-2.5965,-2.7247,-2.7348,-2.7034,-2.6224,-2.6759,0.0,-2.6179,-2.7636,-2.8376,-2.8082,-2.8793,-2.9107,-2.8994,-2.9162,-2.9527,-3.0099,-3.054,-3.0944,-3.1311,-3.1366,-3.1146,-3.0723,-3.0356,-2.9953,-2.9549,-2.9622,-2.9622,-2.9604,-3.0026,-3.021,-3.0155,-2.9714,-2.9604,-2.9604,-3.1482,-3.1392,-3.1195,-3.0612,-3.0417,-2.9968,-2.8786,-2.8607,-2.8353,-2.7715,-2.7625,-2.7625,-2.7625,-2.7625,-2.7625,-2.7625,-2.7625,-2.7625,-2.771,-2.781,-2.8091,-2.8591,-2.8654,-2.8873,-2.9406,-2.9406,-2.9406,-2.9406,-2.9406,-2.9406,-2.9406,-3.0038,-3.0251,-3.0208,-3.0797,-3.1055,-3.1055,-3.0975,-3.0975,-3.1055,-3.0958,-3.0975,-3.1055,-3.1055,-3.1112,-3.119,-3.1112,-3.1055,-3.1055,-3.0975,-3.0975,-3.1055,-3.1055,-3.1055,-3.1055,-3.1055,-3.1015,-3.0975,-3.1151,-3.119,-3.119,-3.119,-3.119,-3.119,-3.119,-3.0057,-2.9011,-2.9011,-2.7841,-2.6826,-2.6708,-2.6793,-2.6759,-2.6438,-2.5254,-2.4272,-2.3855,0.0,-2.4353,-2.4304,-2.5811,-2.6911,-2.7029,-2.7046,-2.73,-2.7943,-2.714,-2.7363,-2.9094,-2.8596,-2.79,-2.7184,-2.9024,-2.9739,-2.9199,-2.9905,-3.0656,-3.1384,-3.1513,-3.1935,-3.2596,-3.2027,-3.1696,-3.1531,-3.0723,-3.032,-3.0173,-2.9604,-2.9622,-3.0063,-3.043,-3.0485,-3.0375,-3.0246,-2.9934,-2.9489,-3.1482,-3.1061,-3.0627,-3.0522,-3.0073,-2.9475,-2.8712,-2.8607,-2.8353,-2.7715,-2.7625,-2.7625,-2.7625,-2.7625,-2.7625,-2.7625,-2.7625,-2.781,-2.8334,-2.8826,-2.918,-2.9271,-2.9271,-2.9316,-2.9406,-2.9406,-2.9406,-2.9406,-2.9406,-2.9406,-2.9406,-3.0038,-3.0038,-2.9585,-3.0166,-3.0435,-3.0393,-2.9892,-2.9978,-3.0393,-2.9892,-2.9978,-3.0435,-3.0435,-3.0757,-3.1151,-3.0601,-3.0435,-3.0335,-2.9848,-3.0038,-3.0435,-3.0435,-3.0435,-3.0435,-3.0435,-3.0081,-2.9892,-3.0918,-3.119,-3.119,-3.119,-3.119,-3.119,-3.119,-3.0057,-2.9011,-2.9011,-2.8264,-2.7452,-2.681,-2.7215,-2.7026,-2.5135,-2.4577,-2.3826,-2.2157,0.0,-2.4444,-2.4771,-2.6467,-2.7909,-2.8569,-2.8619,-2.867,-2.8789,-2.8651,-2.8325,-2.7816,-2.9056,-2.9172,-2.787,-2.8968,-2.9729,-2.9994,-3.0474,-3.0947,-3.1403,-3.21,-3.2485,-3.2632,-3.3164,-3.3054,-3.2375,-3.1549,-3.0834,-3.0246,-3.0797,-3.0301,-2.9379,-3.1439,-3.1806,-3.1127,-3.0448,-3.098,-3.177,-3.1482,-3.1285,-3.1061,-3.1061,-3.0821,-3.0298,-2.928,-2.9131,-2.8757,-2.776,-2.7625,-2.7625,-2.7625,-2.7625,-2.7625,-2.7625,-2.7625,-2.771,-2.7993,-2.8271,-2.8448,-2.8448,-2.8448,-2.8448,-2.8448,-2.8448,-2.8448,-2.8448,-2.8448,-2.8448,-2.8448,-2.9042,-2.918,-2.8966,-2.954,-2.9805,-2.9805,-2.954,-2.954,-2.9805,-2.9496,-2.9585,-2.9805,-2.9805,-2.9995,-3.0208,-2.9908,-2.9805,-2.9761,-2.9496,-2.9585,-2.9805,-2.9805,-2.9805,-2.9805,-2.9805,-2.9629,-2.954,-3.0081,-3.0477,-3.0699,-3.0699,-3.0975,-3.1095,-3.0797,-2.9605,-2.8553,-2.8515,-2.7614,-2.682,-2.6725,-2.6979,-2.6704,-2.511,-2.4596,0.0,-2.2359,-2.3756,-2.4977,-2.5085,-2.71,-2.8586,-2.8941,-2.9011,-2.9144,-2.955,-2.9583,-2.9563,-2.9484,-3.0273,-3.0383,-2.9731,-2.9798,-3.0012,-3.0414,-3.0849,-3.1172,-3.1376,-3.2169,-3.2565,-3.2565,-3.2925,-3.3027,-3.2847,-3.1628,-3.0987,-3.0797,-3.032,-2.9934,-2.9806,-3.1347,-3.1587,-3.1046,-3.0888,-3.0892,-3.0774,-3.1482,-3.1347,-3.13,-3.13,-3.13,-3.0911,-2.9759,-2.9579,-2.9146,-2.7964,-2.773,-2.7625,-2.7625,-2.7625,-2.7625,-2.7625,-2.7625,-2.7625,-2.7625,-2.7625,-2.7625,-2.7625,-2.7625,-2.7625,-2.7625,-2.7625,-2.7625,-2.7625,-2.7625,-2.7625,-2.761,-2.8238,-2.8431,-2.8319,-2.8904,-2.918,-2.918,-2.9042,-2.9042,-2.918,-2.9042,-2.9088,-2.918,-2.918,-2.9271,-2.9361,-2.9225,-2.918,-2.918,-2.9042,-2.9088,-2.918,-2.918,-2.918,-2.918,-2.918,-2.9088,-2.9042,-2.9316,-2.9717,-3.0081,-3.0081,-3.0435,-3.0658,-3.0208,-2.9124,-2.8158,-2.797,-2.7038,-2.6319,-2.6347,-2.657,-2.6362,-2.5051,0.0,-2.436,-2.3507,-2.477,-2.5912,-2.6351,-2.8106,-2.9313,-2.9482,-2.9499,-2.9803,-3.0565,-3.0615,-3.0937,-3.1664,-3.1715,-3.163,-3.1444,-3.075,-3.054,-3.0871,-3.1252,-3.1485,-3.16,-3.2183,-3.2484,-3.2484,-3.2484,-3.2681,-3.2973,-3.153,-3.0982,-3.1026,-2.978,-2.9416,-2.9769,-3.0753,-3.0849,-3.0438,-3.0765,-3.0414,-2.9665,-3.1482,-3.1016,-3.0582,-3.0582,-3.0582,-3.0357,-2.9684,-2.9579,-2.9325,-2.8622,-2.7979,-2.7625,-2.7625,-2.7625,-2.7625,-2.7625,-2.7625,-2.7625,-2.7625,-2.7625,-2.7625,-2.7625,-2.7625,-2.7625,-2.7625,-2.7625,-2.7625,-2.7625,-2.7625,-2.7625,-2.761,-2.8238,-2.8189,-2.766,-2.8286,-2.8559,-2.8511,-2.7944,-2.8042,-2.8511,-2.7944,-2.8091,-2.8559,-2.8559,-2.8919,-2.9316,-2.8779,-2.8559,-2.8463,-2.7894,-2.8091,-2.8559,-2.8559,-2.8559,-2.8559,-2.8559,-2.8174,-2.7993,-2.9088,-2.9451,-2.9451,-2.9451,-2.9496,-2.954,-2.9496,-2.8858,-2.8121,-2.7464,-2.7297,-2.6816,-2.5538,-2.6281,-2.6356,-2.4185,0.0,0.0,-2.5403,-2.6021,-2.7323,-2.9501,-2.9918,-3.0294,-3.097,-3.1038,-3.1326,-3.207,-3.2121,-3.2442,-3.3203,-3.3237,-3.2916,-3.2222,-3.1506,-3.1312,-3.1702,-3.1738,-3.1969,-3.2396,-3.2449,-3.2484,-3.2484,-3.2484,-3.2517,-3.2497,-3.1632,-3.0885,-3.029,-3.0166,-2.9313,-2.8213,-2.9781,-2.9923,-2.9236,-2.9265,-2.9692,-3.0036,-3.1482,-3.1258,-3.115,-3.115,-3.115,-3.0911,-3.0253,-3.0163,-2.9924,-2.9295,-2.8981,-2.8667,-2.8248,-2.8203,-2.8038,-2.7655,-2.7625,-2.7625,-2.7625,-2.7625,-2.7625,-2.7625,-2.7625,-2.7625,-2.7625,-2.7625,-2.7625,-2.7625,-2.7625,-2.7625,-2.7625,-2.781,-2.781,-2.7625,-2.786,-2.7944,-2.7944,-2.771,-2.771,-2.7894,-2.766,-2.771,-2.7944,-2.7944,-2.8076,-2.8255,-2.8042,-2.7944,-2.791,-2.7675,-2.776,-2.7944,-2.7944,-2.7944,-2.7944,-2.7944,-2.776,-2.771,-2.8174,-2.8543,-2.8826,-2.8826,-2.9134,-2.9316,-2.8919,-2.8323,-2.7617,-2.6898,-2.6757,-2.6545,-2.5911,-2.6567,-2.6662,-2.5102,0.0,-2.6883,-2.6245,-2.7683,-2.8948,-2.9493,-3.0673,-3.1426,-3.1333,-3.2068,-3.2679,-3.2949,-3.2983,-3.3102,-3.3389,-3.3406,-3.3271,-3.2983,-3.2713,-3.2405,-3.2093,-3.2132,-3.2192,-3.2366,-3.1918,-3.1694,-3.1694,-3.1694,-3.1806,-3.2022,-3.1202,-3.0881,-3.0804,-2.9849,-2.939,-2.9324,-2.9968,-3.0149,-3.0082,-3.037,-3.0451,-3.0361,-3.1482,-3.1482,-3.1482,-3.1482,-3.1482,-3.1317,-3.0896,-3.0642,-3.0357,-2.9924,-2.9699,-2.94,-2.8951,-2.8727,-2.8412,-2.7934,-2.7694,-2.7625,-2.7625,-2.7625,-2.7625,-2.7625,-2.7625,-2.7625,-2.7625,-2.7625,-2.7625,-2.7625,-2.7625,-2.7625,-2.7625,-2.7625,-2.7625,-2.7625,-2.7625,-2.7625,-2.7625,-2.7625,-2.7625,-2.7625,-2.7625,-2.7625,-2.7625,-2.7625,-2.7625,-2.7625,-2.7625,-2.7625,-2.7625,-2.7625,-2.7625,-2.7625,-2.7625,-2.7625,-2.7625,-2.7625,-2.7625,-2.7625,-2.7625,-2.791,-2.8238,-2.8238,-2.8543,-2.8717,-2.8319,-2.7854,-2.7317,-2.6612,-2.6489,-2.6366,-2.6065,-2.6529,-2.6698,-2.5955,-2.7142,-2.7906,-2.7194,-2.8672,-2.9748,-2.9328,-3.0875,-3.1766,-3.1127,-3.2303,-3.3071,-3.3129,-3.3322,-3.3614,-3.4057,-3.388,-3.3744,-3.3744,-3.3744,-3.3491,-3.2983,-3.2747,-3.2645,-3.2628,-3.1884,-3.1546,-3.1529,-3.1309,-3.1351,-3.1568,-3.1053,-3.0854,-3.0818,-2.9772,-2.9528,-2.9772,-2.9804,-2.9936,-3.0143,-3.0438,-3.0369,-3.0074,-3.1482,-3.1482,-3.1482,-3.1482,-3.1482,-3.1482,-3.1482,-3.0956,-3.0507,-3.0507,-2.9983,-2.9594,-2.9594,-2.9011,-2.8607,-2.8607,-2.7979,-2.7625,-2.7625,-2.7625,-2.7625,-2.7625,-2.7625,-2.7625,-2.7625,-2.7625,-2.7625,-2.7625,-2.7625,-2.7625,-2.7625,-2.7625,-2.7625,-2.7625,-2.7625,-2.7625,-2.7625,-2.7625,-2.7625,-2.7625,-2.7625,-2.7625,-2.7625,-2.7625,-2.7625,-2.7625,-2.7625,-2.7625,-2.7625,-2.7625,-2.7625,-2.7625,-2.7625,-2.7625,-2.7625,-2.7625,-2.7625,-2.7625,-2.7625,-2.7625,-2.7625,-2.7625,-2.7625,-2.7625,-2.7625,-2.7625,-2.738,-2.6722,-2.6587,-2.6393,-2.5734,-2.6047,-2.6392,-2.6408,-2.7469,-2.8307,-2.8323,-2.893,-2.9422,-2.9422,-3.057,-3.1144,-3.0462,-3.1632,-3.2457,-3.2526,-3.3096,-3.4101,-3.5526,-3.4912,-3.4506,-3.4506,-3.4506,-3.4506,-3.4506,-3.3778,-3.3406,-3.3406,-3.2645,-3.229,-3.2256,-3.1529,-3.1207,-3.1207,-3.119,-3.0784,-3.0125,-3.0108,-2.9668,-2.9045,-2.9011,-2.9028,-2.9045,-2.8991,-2.8991,-2.9045,-3.1482,-3.1482,-3.1482,-3.1482,-3.1482,-3.1482,-3.1482,-3.1302,-3.1225,-3.1225,-3.1061,-3.0761,-3.0283,-2.9669,-2.9101,-2.8637,-2.7979,-2.7625,-2.7625,-2.7625,-2.7625,-2.7625,-2.7625,-2.7625,-2.7625,-2.7625,-2.7625,-2.7625,-2.7625,-2.7625,-2.7625,-2.7625,-2.7625,-2.7625,-2.7625,-2.7625,-2.7625,-2.7625,-2.7625,-2.7625,-2.7625,-2.7625,-2.7625,-2.7625,-2.7625,-2.7625,-2.7625,-2.7625,-2.7625,-2.7625,-2.7625,-2.7625,-2.7625,-2.7625,-2.7625,-2.7625,-2.7625,-2.7625,-2.7625,-2.7625,-2.7625,-2.7625,-2.7625,-2.7625,-2.7625,-2.7625,-2.738,-2.6722,-2.6961,-2.7081,-2.6422,-2.6808,-2.7421,-2.7871,-2.8196,-2.8764,-2.9732,-2.999,-3.0148,-3.0172,-3.1357,-3.1934,-3.1303,-3.2458,-3.3255,-3.3262,-3.348,-3.3761,-3.4186,-3.3991,-3.3877,-3.3877,-3.3877,-3.4071,-3.4562,-3.4286,-3.4167,-3.4167,-3.3423,-3.3068,-3.3051,-3.2307,-3.1952,-3.1935,-3.141,-3.1072,-3.0835,-3.0311,-3.0277,-3.0429,-2.9381,-2.9617,-3.048,-2.9956,-3.0091,-3.0531,-3.1928,-3.1928,-3.1928,-3.1928,-3.1928,-3.1839,-3.1511,-3.1482,-3.1482,-3.1482,-3.1482,-3.1375,-3.0956,-3.0328,-2.9789,-2.9385,-2.8502,-2.7859,-2.764,-2.7625,-2.7625,-2.7625,-2.7829,-2.7844,-2.7625,-2.815,-2.815,-2.7625,-2.7844,-2.7844,-2.7625,-2.7625,-2.7625,-2.7625,-2.7625,-2.7625,-2.764,-2.7859,-2.7814,-2.764,-2.7874,-2.7814,-2.7625,-2.7625,-2.7625,-2.7625,-2.7625,-2.7625,-2.7625,-2.7625,-2.7625,-2.7625,-2.7625,-2.7625,-2.7625,-2.7625,-2.7625,-2.7625,-2.7625,-2.7625,-2.7625,-2.7625,-2.7625,-2.7625,-2.7625,-2.7625,-2.7505,-2.7066,-2.734,-2.758,-2.741,-2.7709,-2.8203,-2.8876,-2.8985,-2.9241,-3.0051,-3.0099,-3.0076,-3.0164,-3.1353,-3.1862,-3.1259,-3.242,-3.3182,-3.3182,-3.3182,-3.3339,-3.3582,-3.3582,-3.3582,-3.3582,-3.3582,-3.3786,-3.4186,-3.3914,-3.3996,-3.4472,-3.3457,-3.2949,-3.2949,-3.2493,-3.2121,-3.185,-3.1681,-3.1461,-3.1157,-3.0717,-3.0801,-3.1072,-2.9888,-2.9973,-3.0683,-2.9939,-3.0125,-3.0768,-3.2497,-3.2467,-3.2437,-3.2497,-3.2512,-3.2332,-3.1735,-3.1601,-3.1556,-3.1556,-3.1511,-3.1482,-3.1482,-3.0911,-3.0507,-3.0507,-2.9385,-2.8397,-2.7709,-2.7715,-2.7715,-2.7715,-2.8323,-2.8382,-2.7805,-2.8951,-2.8951,-2.7715,-2.8293,-2.8248,-2.7625,-2.7625,-2.7625,-2.7625,-2.7634,-2.7715,-2.7709,-2.8397,-2.8293,-2.7724,-2.8353,-2.8188,-2.7625,-2.7625,-2.7625,-2.7625,-2.7625,-2.7625,-2.7625,-2.7625,-2.7625,-2.7625,-2.7625,-2.7625,-2.7625,-2.7625,-2.7625,-2.7625,-2.7625,-2.7625,-2.7625,-2.7649,-2.7715,-2.7715,-2.7715,-2.776,-2.779,-2.773,-2.776,-2.7934,-2.8502,-2.8652,-2.8906,-2.9549,-2.9624,-2.9624,-2.9744,-2.9699,-2.9684,-2.9744,-3.0838,-3.1351,-3.0653,-3.1738,-3.2477,-3.2477,-3.2477,-3.2788,-3.3391,-3.3427,-3.3427,-3.3427,-3.3427,-3.3427,-3.3479,-3.278,-3.3062,-3.4324,-3.2976,-3.2336,-3.2336,-3.2309,-3.1921,-3.1331,-3.1894,-3.1759,-3.1112,-3.1055,-3.1055,-3.0971,-3.0234,-2.9964,-2.993,-2.9178,-2.9397,-3.0108,-3.2273,-3.2093,-3.1855,-3.2422,-3.2512,-3.2647,-3.3021,-3.2632,-3.2302,-3.2302,-3.1854,-3.1482,-3.1482,-3.0911,-3.0507,-3.0507,-2.9804,-2.9086,-2.8427,-2.8368,-2.8368,-2.8368,-2.9011,-2.931,-2.9146,-2.943,-2.919,-2.8368,-2.8532,-2.8248,-2.7625,-2.7625,-2.7625,-2.764,-2.8128,-2.8368,-2.8427,-2.9086,-2.8981,-2.8397,-2.8547,-2.8188,-2.7625,-2.7625,-2.7625,-2.7625,-2.7625,-2.7625,-2.7625,-2.7625,-2.7625,-2.7625,-2.7625,-2.7625,-2.7625,-2.7625,-2.7625,-2.7625,-2.7625,-2.7625,-2.7745,-2.8248,-2.8368,-2.8368,-2.8368,-2.8771,-2.8996,-2.8487,-2.8786,-2.9026,-2.8667,-2.9026,-2.9579,-3.0193,-2.9894,-2.9939,-3.0971,-3.0642,-3.0507,-3.1046,-3.1339,-3.1471,-3.1315,-3.1549,-3.1739,-3.1739,-3.1739,-3.1796,-3.1951,-3.1951,-3.1951,-3.1951,-3.1951,-3.2201,-3.2788,-3.1571,-3.1652,-3.3031,-3.2675,-3.2513,-3.2544,-3.2438,-3.2288,-3.2089,-3.1139,-3.0626,-3.0477,-2.9995,-2.9805,-2.9735,-2.8852,-2.8887,-2.9274,-2.8407,-2.8941,-3.0108,-3.1897,-3.1774,-3.1645,-3.1976,-3.2097,-3.224,-3.2742,-3.2526,-3.2458,-3.2915,-3.2407,-3.2003,-3.2003,-3.1405,-3.0866,-3.0537,-3.0208,-2.9744,-2.9116,-2.9071,-2.8921,-2.8607,-2.922,-2.9579,-2.9579,-2.9864,-2.9714,-2.9071,-2.8757,-2.8412,-2.8068,-2.8068,-2.8068,-2.8098,-2.8771,-2.9071,-2.9116,-2.9744,-2.9654,-2.9071,-2.9071,-2.8667,-2.8023,-2.7694,-2.7625,-2.7625,-2.7625,-2.7625,-2.7625,-2.7625,-2.7625,-2.7625,-2.7625,-2.7625,-2.7625,-2.7625,-2.7625,-2.7625,-2.7625,-2.7814,-2.8143,-2.8502,-2.9056,-2.943,-2.9131,-2.934,-2.949,-2.9146,-2.934,-2.9564,-2.952,-2.9789,-3.0238,-3.0881,-3.0717,-3.0746,-3.1377,-3.1225,-3.1135,-3.1437,-3.1482,-3.1482,-3.1482,-3.1482,-3.1482,-3.1482,-3.1482,-3.1482,-3.1482,-3.1482,-3.1482,-3.1482,-3.1482,-3.1697,-3.2064,-3.1028,-3.0876,-3.1622,-3.1559,-3.1726,-3.2046,-3.2321,-3.2075,-3.141,-3.1034,-3.0465,-2.9865,-2.954,-2.9198,-2.8826,-2.802,-2.7778,-2.7704,-2.6879,-2.7686,-2.9226,-3.1681,-3.1626,-3.1406,-3.1406,-3.1406,-3.1584,-3.2108,-3.2472,-3.2952,-3.3767,-3.3155,-3.2602,-3.2362,-3.1795,-3.13,-3.0731,-3.0672,-3.0462,-2.9953,-2.9909,-2.9609,-2.8906,-2.9101,-2.937,-2.957,-3.0313,-3.0372,-2.9744,-2.919,-2.8876,-2.8771,-2.8771,-2.8771,-2.8801,-2.9445,-2.9744,-2.9774,-3.0417,-3.0313,-2.9744,-2.9744,-2.9355,-2.8697,-2.8008,-2.779,-2.779,-2.767,-2.7625,-2.7625,-2.7625,-2.7625,-2.7625,-2.7625,-2.7625,-2.7625,-2.7625,-2.77,-2.779,-2.779,-2.8248,-2.8801,-2.8906,-2.9714,-3.0402,-2.9998,-2.9909,-2.9879,-2.9759,-2.9834,-3.0028,-3.0432,-3.0687,-3.1031,-3.1556,-3.1794,-3.1869,-3.1869,-3.1869,-3.1869,-3.1869,-3.1764,-3.1646,-3.1646,-3.1541,-3.1482,-3.1482,-3.1482,-3.1482,-3.1482,-3.1482,-3.1482,-3.1482,-3.1482,-3.1482,-3.1482,-3.0851,-3.0567,-3.0657,-3.0499,-3.0733,-3.1252,-3.1987,-3.1609,-3.0418,-3.0959,-3.0449,-2.9225,-2.9134,-2.877,-2.8196,-2.7445,-2.6818,-2.627,-2.5758,-2.6604,-2.8139,-3.1921,-3.1502,-3.0719,-3.0719,-3.0719,-3.1103,-3.2347,-3.3931,-3.5091,-3.5235,-3.4143,-3.2931,-3.1735,-3.1526,-3.1437,-3.1347,-3.1332,-3.1302,-3.127,-3.127,-3.0896,-3.0043,-2.8622,-2.8405,-2.9584,-3.0738,-3.1061,-3.0372,-3.0298,-2.9983,-2.9445,-2.9445,-2.9445,-2.9475,-3.0103,-3.0372,-3.0417,-3.1106,-3.1001,-3.0372,-3.0372,-2.9998,-2.937,-2.8712,-2.8457,-2.8382,-2.7784,-2.7625,-2.7625,-2.7625,-2.7625,-2.7625,-2.7625,-2.7625,-2.7625,-2.7625,-2.7993,-2.8457,-2.8457,-2.8951,-2.9579,-3.0118,-3.0372,-3.0642,-3.115,-3.127,-3.1106,-3.0507,-3.0851,-3.1106,-3.0597,-3.1465,-3.2273,-3.2362,-3.2856,-3.323,-3.323,-3.323,-3.323,-3.323,-3.2721,-3.2377,-3.2377,-3.1869,-3.1482,-3.1482,-3.1482,-3.1482,-3.1482,-3.1482,-3.1482,-3.1482,-3.1482,-3.1482,-3.1482,-3.0851,-3.0806,-3.139,-3.0764,-3.0543,-3.0633,-3.1274,-3.1151,-3.0472,-2.9974,-2.9321,-2.8606,-2.8091,-2.7799,-2.7637,-2.6826,-2.6448,-2.6442,-2.6872,-2.7176,-2.7515,-3.0742,-3.059,-3.0163,-3.0163,-3.0163,-3.0333,-3.0917,-3.1783,-3.2706,-3.3768,-3.3336,-3.2505,-3.1323,-3.1396,-3.1482,-3.1482,-3.1482,-3.1482,-3.1482,-3.1482,-3.1302,-3.0914,-3.0208,-2.9704,-2.9605,-3.0131,-3.0648,-3.1076,-3.0357,-3.0258,-3.0639,-2.9943,-2.9584,-2.9614,-3.0645,-3.1076,-3.1106,-3.1347,-3.1302,-3.1046,-3.0657,-3.0342,-3.0028,-2.9385,-2.8921,-2.8502,-2.7814,-2.7625,-2.7625,-2.7625,-2.7625,-2.7625,-2.7625,-2.7625,-2.7625,-2.7625,-2.8053,-2.8607,-2.8607,-2.934,-3.0163,-3.0432,-3.0791,-3.1165,-3.1407,-3.1482,-3.1497,-3.1614,-3.1869,-3.2093,-3.2168,-3.2662,-3.3066,-3.3066,-3.3305,-3.3499,-3.3499,-3.3499,-3.3499,-3.3499,-3.3245,-3.3066,-3.3066,-3.2467,-3.2228,-3.2602,-3.1943,-3.1631,-3.2063,-3.1676,-3.1482,-3.1482,-3.1482,-3.1482,-3.1482,-3.124,-3.124,-3.1482,-3.1225,-3.1076,-3.1076,-3.1328,-3.0919,-3.0,-2.9711,-2.8981,-2.8008,-2.771,-2.74,-2.701,-2.665,-2.6274,-2.6032,-2.6657,-2.7098,-2.7441]},{"header":{"parameterUnit":"m.s-1","parameterCategory":1,"la1":30.6,"la2":28.766,"lo1":-90.7593,"lo2":-88.6598,"dy":0.0162,"dx":0.0183,"nx":116,"ny":114,"refTime":"2023-05-29T06:00:00:Z","depth":0,"parameterNumber":3,"parameterNumberName":"V-component_of_WINDS"},"data":[0.0,0.0,0.0,0.0,0.0,0.0,0.0,0.0,0.0,0.0,0.0,0.0,0.0,0.0,0.0,0.0,0.0,0.0,0.0,0.0,0.0,0.0,0.0,0.0,0.0,0.0,0.0,0.0,0.0,0.0,0.0,0.0,0.0,0.0,0.0,0.0,0.0,0.0,0.0,0.0,0.0,0.0,0.0,0.0,0.0,0.0,0.0,0.0,0.0,0.0,0.0,0.0,0.0,0.0,0.0,0.0,0.0,0.0,0.0,0.0,0.0,0.0,0.0,0.0,0.0,0.0,0.0,0.0,0.0,0.0,0.0,0.0,0.0,0.0,0.0,0.0,0.0,0.0,0.0,0.0,0.0,0.0,0.0,0.0,0.0,0.0,0.0,0.0,0.0,0.0,0.0,0.0,0.0,0.0,0.0,0.0,0.0,0.0,0.0,0.0,0.0,0.0,0.0,0.0,0.0,0.0,0.0,0.0,0.0,0.0,0.0,0.0,0.0,0.0,0.0,0.0,0.0,0.0,0.0,0.0,0.0,0.0,0.0,0.0,0.0,0.0,0.0,0.0,0.0,0.0,0.0,0.0,0.0,0.0,0.0,0.0,0.0,0.0,0.0,0.0,0.0,0.0,0.0,0.0,0.0,0.0,0.0,0.0,0.0,0.0,0.0,0.0,0.0,0.0,0.0,0.0,0.0,0.0,0.0,0.0,0.0,0.0,0.0,0.0,0.0,0.0,0.0,0.0,0.0,0.0,0.0,0.0,0.0,0.0,0.0,0.0,0.0,0.0,0.0,0.0,0.0,0.0,0.0,0.0,0.0,0.0,0.0,0.0,0.0,0.0,0.0,0.0,0.0,0.0,0.0,0.0,0.0,0.0,0.0,0.0,0.0,0.0,0.0,0.0,0.0,0.0,0.0,0.0,0.0,0.0,0.0,0.0,0.0,0.0,0.0,0.0,0.0,0.0,0.0,0.0,0.0,0.0,0.0,0.0,0.0,0.0,0.0,0.0,0.0,0.0,0.0,0.0,0.0,0.0,0.0,0.0,0.0,0.0,0.0,0.0,0.0,0.0,0.0,0.0,0.0,0.0,0.0,0.0,0.0,0.0,0.0,0.0,0.0,0.0,0.0,0.0,0.0,0.0,0.0,0.0,0.0,0.0,0.0,0.0,0.0,0.0,0.0,0.0,0.0,0.0,0.0,0.0,0.0,0.0,0.0,0.0,0.0,0.0,0.0,0.0,0.0,0.0,0.0,0.0,0.0,0.0,0.0,0.0,0.0,0.0,0.0,0.0,0.0,0.0,0.0,0.0,0.0,0.0,0.0,0.0,0.0,0.0,0.0,0.0,0.0,0.0,0.0,0.0,0.0,0.0,0.0,0.0,0.0,0.0,0.0,0.0,0.0,0.0,0.0,0.0,0.0,0.0,0.0,0.0,0.0,0.0,0.0,0.0,0.0,0.0,0.0,0.0,0.0,0.0,0.0,0.0,0.0,0.0,0.0,0.0,0.0,0.0,0.0,0.0,0.0,0.0,0.0,0.0,0.0,0.0,0.0,0.0,0.0,0.0,0.0,0.0,0.0,0.0,0.0,0.0,0.0,0.0,0.0,0.0,0.0,0.0,0.0,0.0,0.0,0.0,0.0,0.0,0.0,0.0,0.0,0.0,0.0,0.0,0.0,0.0,0.0,0.0,0.0,0.0,0.0,0.0,0.0,0.0,0.0,0.0,0.0,0.0,0.0,0.0,0.0,0.0,0.0,0.0,0.0,0.0,0.0,0.0,0.0,0.0,0.0,0.0,0.0,0.0,0.0,0.0,0.0,0.0,0.0,0.0,0.0,0.0,0.0,0.0,0.0,0.0,0.0,0.0,0.0,0.0,0.0,0.0,0.0,0.0,0.0,0.0,0.0,0.0,0.0,0.0,0.0,0.0,0.0,0.0,0.0,0.0,0.0,0.0,0.0,0.0,0.0,0.0,0.0,0.0,0.0,0.0,0.0,0.0,0.0,0.0,0.0,0.0,0.0,0.0,0.0,0.0,0.0,0.0,0.0,0.0,0.0,0.0,0.0,0.0,0.0,0.0,0.0,0.0,0.0,0.0,0.0,0.0,0.0,0.0,0.0,0.0,0.0,0.0,0.0,0.0,0.0,0.0,0.0,0.0,0.0,0.0,0.0,0.0,0.0,0.0,0.0,0.0,0.0,0.0,0.0,0.0,0.0,0.0,0.0,0.0,0.0,0.0,0.0,0.0,0.0,0.0,0.0,0.0,0.0,0.0,0.0,0.0,0.0,0.0,0.0,0.0,0.0,0.0,0.0,0.0,0.0,0.0,0.0,0.0,0.0,0.0,0.0,0.0,0.0,0.0,0.0,0.0,0.0,0.0,0.0,0.0,0.0,0.0,0.0,0.0,0.0,0.0,0.0,0.0,0.0,0.0,0.0,0.0,0.0,0.0,0.0,0.0,0.0,0.0,0.0,0.0,0.0,0.0,0.0,0.0,0.0,0.0,0.0,0.0,0.0,0.0,0.0,0.0,0.0,0.0,0.0,0.0,0.0,0.0,0.0,0.0,0.0,0.0,0.0,0.0,0.0,0.0,0.0,0.0,0.0,0.0,0.0,0.0,0.0,0.0,0.0,0.0,0.0,0.0,0.0,0.0,0.0,0.0,0.0,0.0,0.0,0.0,0.0,0.0,0.0,0.0,0.0,0.0,0.0,0.0,0.0,0.0,0.0,0.0,0.0,0.0,0.0,0.0,0.0,0.0,0.0,0.0,0.0,0.0,0.0,0.0,0.0,0.0,0.0,0.0,0.0,0.0,0.0,0.0,0.0,0.0,0.0,0.0,0.0,0.0,0.0,0.0,0.0,0.0,0.0,0.0,0.0,0.0,0.0,0.0,0.0,0.0,0.0,0.0,0.0,0.0,0.0,0.0,0.0,0.0,0.0,0.0,0.0,0.0,0.0,0.0,0.0,0.0,0.0,0.0,0.0,0.0,0.0,0.0,0.0,0.0,0.0,0.0,0.0,0.0,0.0,0.0,0.0,0.0,0.0,0.0,0.0,0.0,0.0,0.0,0.0,0.0,0.0,0.0,0.0,0.0,0.0,0.0,0.0,0.0,0.0,0.0,0.0,0.0,0.0,0.0,0.0,0.0,0.0,0.0,0.0,0.0,0.0,0.0,0.0,0.0,0.0,0.0,0.0,0.0,0.0,0.0,0.0,0.0,0.0,0.0,0.0,0.0,0.0,0.0,0.0,0.0,0.0,0.0,0.0,0.0,0.0,0.0,0.0,0.0,0.0,0.0,0.0,0.0,0.0,0.0,0.0,0.0,0.0,0.0,0.0,0.0,0.0,0.0,0.0,0.0,0.0,0.0,0.0,0.0,0.0,0.0,0.0,0.0,0.0,0.0,0.0,0.0,0.0,0.0,0.0,0.0,0.0,0.0,0.0,0.0,0.0,0.0,0.0,0.0,0.0,0.0,0.0,0.0,0.0,0.0,0.0,0.0,0.0,0.0,0.0,0.0,0.0,0.0,0.0,0.0,0.0,0.0,0.0,0.0,0.0,0.0,0.0,0.0,0.0,0.0,0.0,0.0,0.0,0.0,0.0,0.0,0.0,0.0,0.0,0.0,0.0,0.0,0.0,0.0,0.0,0.0,0.0,0.0,0.0,0.0,0.0,0.0,0.0,0.0,0.0,0.0,0.0,0.0,0.0,0.0,0.0,0.0,0.0,0.0,0.0,0.0,0.0,0.0,0.0,0.0,0.0,0.0,0.0,0.0,0.0,0.0,0.0,0.0,0.0,0.0,0.0,0.0,0.0,0.0,0.0,0.0,0.0,0.0,0.0,0.0,0.0,0.0,0.0,0.0,0.0,0.0,0.0,0.0,0.0,0.0,0.0,0.0,0.0,0.0,0.0,0.0,0.0,0.0,0.0,0.0,0.0,0.0,0.0,0.0,0.0,0.0,0.0,0.0,0.0,0.0,0.0,0.0,0.0,0.0,0.0,0.0,0.0,0.0,0.0,0.0,0.0,0.0,0.0,0.0,0.0,0.0,0.0,0.0,0.0,0.0,0.0,0.0,0.0,0.0,0.0,0.0,0.0,0.0,0.0,0.0,0.0,0.0,0.0,0.0,0.0,0.0,0.0,0.0,0.0,0.0,0.0,0.0,0.0,0.0,0.0,0.0,0.0,0.0,0.0,0.0,0.0,0.0,0.0,0.0,0.0,0.0,0.0,0.0,0.0,0.0,0.0,0.0,0.0,0.0,0.0,0.0,0.0,0.0,0.0,0.0,0.0,0.0,0.0,0.0,0.0,0.0,0.0,0.0,0.0,0.0,0.0,0.0,0.0,0.0,0.0,0.0,0.0,0.0,0.0,0.0,0.0,0.0,0.0,0.0,0.0,0.0,0.0,0.0,0.0,0.0,0.0,0.0,0.0,0.0,0.0,0.0,0.0,0.0,0.0,0.0,0.0,0.0,0.0,0.0,0.0,0.0,0.0,0.0,0.0,0.0,0.0,0.0,0.0,0.0,0.0,0.0,0.0,0.0,0.0,0.0,0.0,0.0,0.0,0.0,0.0,0.0,0.0,0.0,0.0,0.0,0.0,0.0,0.0,0.0,0.0,0.0,0.0,0.0,0.0,0.0,0.0,0.0,0.0,0.0,0.0,0.0,0.0,0.0,0.0,0.0,0.0,0.0,0.0,0.0,0.0,0.0,0.0,0.0,0.0,0.0,0.0,0.0,0.0,0.0,0.0,0.0,0.0,0.0,0.0,0.0,0.0,0.0,0.0,0.0,0.0,0.0,0.0,0.0,0.0,0.0,0.0,0.0,0.0,0.0,0.0,0.0,0.0,0.0,0.0,0.0,0.0,0.0,0.0,0.0,0.0,0.0,0.0,0.0,0.0,0.0,0.0,0.0,0.0,0.0,0.0,0.0,0.0,0.0,0.0,0.0,0.0,0.0,0.0,0.0,0.0,0.0,0.0,0.0,0.0,0.0,0.0,0.0,0.0,0.0,0.0,0.0,0.0,0.0,0.0,0.0,0.0,0.0,0.0,0.0,0.0,0.0,0.0,0.0,0.0,0.0,0.0,0.0,0.0,0.0,0.0,0.0,0.0,0.0,0.0,0.0,0.0,0.0,0.0,0.0,0.0,0.0,0.0,0.0,0.0,0.0,0.0,0.0,0.0,0.0,0.0,0.0,0.0,0.0,0.0,0.0,0.0,0.0,0.0,0.0,0.0,0.0,0.0,0.0,0.0,0.0,0.0,0.0,0.0,0.0,0.0,0.0,0.0,0.0,0.0,0.0,0.0,0.0,0.0,0.0,0.0,0.0,0.0,0.0,0.0,0.0,0.0,0.0,0.0,0.0,0.0,0.0,0.0,0.0,0.0,0.0,0.0,0.0,0.0,0.0,0.0,0.0,0.0,0.0,0.0,0.0,0.0,0.0,0.0,0.0,0.0,0.0,0.0,0.0,0.0,0.0,0.0,0.0,0.0,0.0,0.0,0.0,0.0,0.0,0.0,0.0,0.0,0.0,0.0,0.0,0.0,0.0,0.0,0.0,0.0,0.0,0.0,0.0,0.0,0.0,0.0,0.0,0.0,0.0,0.0,0.0,0.0,0.0,0.0,0.0,0.0,0.0,0.0,0.0,0.0,0.0,0.0,0.0,0.0,0.0,0.0,0.0,0.0,0.0,0.0,0.0,0.0,0.0,0.0,0.0,0.0,0.0,0.0,0.0,0.0,0.0,0.0,0.0,0.0,0.0,0.0,0.0,0.0,0.0,0.0,0.0,0.0,0.0,0.0,0.0,0.0,0.0,0.0,0.0,0.0,0.0,0.0,0.0,0.0,0.0,0.0,0.0,0.0,0.0,0.0,0.0,0.0,0.0,0.0,0.0,0.0,0.0,0.0,0.0,0.0,0.0,0.0,0.0,0.0,0.0,0.0,0.0,0.0,0.0,0.0,0.0,0.0,0.0,0.0,0.0,0.0,0.0,0.0,0.0,0.0,0.0,0.0,0.0,0.0,0.0,0.0,0.0,0.0,0.0,0.0,0.0,0.0,0.0,0.0,0.0,0.0,0.0,0.0,0.0,0.0,0.0,-0.7503,0.0,0.0,0.0,0.0,0.0,0.0,0.0,0.0,0.0,0.0,0.0,0.0,0.0,0.0,0.0,0.0,0.0,0.0,0.0,0.0,0.0,0.0,0.0,0.0,0.0,0.0,0.0,0.0,0.0,0.0,0.0,0.0,0.0,0.0,0.0,0.0,0.0,0.0,0.0,0.0,0.0,0.0,0.0,0.0,0.0,0.0,0.0,0.0,0.0,0.0,0.0,0.0,0.0,0.0,0.0,0.0,0.0,0.0,0.0,0.0,0.0,0.0,0.0,0.0,0.0,0.0,0.0,0.0,0.0,0.0,0.0,0.0,0.0,0.0,0.0,0.0,0.0,0.0,0.0,0.0,0.0,0.0,0.0,0.0,0.0,0.0,0.0,0.0,0.0,0.0,0.0,0.0,0.0,0.0,0.0,0.0,0.0,0.0,0.0,0.0,0.0,0.0,0.0,0.0,0.0,0.0,0.0,0.0,0.0,0.0,0.0,0.0,0.0,0.0,0.0,0.0,-0.8569,0.0,0.0,0.0,0.0,0.0,0.0,0.0,0.0,0.0,0.0,0.0,0.0,0.0,0.0,0.0,0.0,0.0,0.0,0.0,0.0,0.0,0.0,0.0,0.0,0.0,0.0,0.0,0.0,0.0,0.0,0.0,0.0,0.0,0.0,0.0,0.0,0.0,0.0,0.0,0.0,0.0,0.0,0.0,0.0,0.0,0.0,0.0,0.0,0.0,0.0,0.0,0.0,0.0,0.0,0.0,0.0,0.0,0.0,0.0,0.0,0.0,0.0,0.0,0.0,0.0,0.0,0.0,0.0,0.0,0.0,0.0,0.0,0.0,0.0,0.0,0.0,0.0,0.0,0.0,0.0,0.0,0.0,0.0,0.0,0.0,0.0,0.0,0.0,0.0,0.0,0.0,0.0,0.0,0.0,0.0,0.0,0.0,0.0,0.0,0.0,0.0,0.0,0.0,0.0,0.0,0.0,0.0,0.0,-0.8944,-0.9419,-1.0186,-1.0358,-1.1096,-1.2182,-1.0244,-0.9314,-0.9164,-0.9798,0.0,0.0,0.0,0.0,0.0,0.0,0.0,0.0,0.0,0.0,0.0,0.0,0.0,0.0,0.0,0.0,0.0,0.0,0.0,0.0,0.0,0.0,0.0,0.0,0.0,0.0,0.0,0.0,0.0,0.0,0.0,0.0,0.0,0.0,0.0,0.0,0.0,0.0,-1.2841,-1.3781,-1.4009,-1.3484,-1.0307,0.0,0.0,0.0,0.0,0.0,0.0,0.0,0.0,0.0,0.0,0.0,0.0,0.0,0.0,0.0,0.0,0.0,0.0,0.0,0.0,0.0,0.0,0.0,0.0,0.0,0.0,0.0,0.0,0.0,0.0,0.0,0.0,0.0,0.0,0.0,0.0,0.0,0.0,0.0,0.0,0.0,0.0,0.0,0.0164,-0.1208,0.0,0.0,0.0,0.0,0.0,0.0,0.0,0.0,0.0,0.0,0.0,0.0,0.0,-0.8335,-0.9836,-0.9903,-1.0253,-1.0956,-1.1022,-1.1062,-1.1202,-1.1202,-1.1213,-1.124,-1.1121,0.0,-1.2647,-1.0708,0.0,0.0,0.0,0.0,0.0,0.0,0.0,0.0,0.0,0.0,0.0,0.0,0.0,0.0,0.0,0.0,0.0,0.0,0.0,0.0,0.0,0.0,0.0,0.0,0.0,0.0,0.0,0.0,0.0,0.0,0.0,0.0,0.0,0.0,0.0,0.0,-1.3025,-1.4429,-1.4841,-1.6333,-1.6524,-1.5566,-1.359,-1.1654,-0.984,-0.8816,0.0,0.0,0.0,0.0,0.0,0.0,0.0,0.0,0.0,0.0,0.0,0.0,0.0,0.0,0.0,0.0,0.0,0.0,0.0,0.0,0.0,0.0,0.0,0.0,0.0,0.0,0.0,0.0,0.0,0.0,0.0,0.0,0.0,0.0,0.0,0.0,0.0,0.0,0.0,-0.0253,-0.1974,-0.282,-0.342,-0.3579,0.0,0.0,0.0,0.0,0.0,0.0,0.0,0.0,0.0,-0.9163,-0.9572,-1.0438,-1.1706,-1.172,-1.2012,-1.2589,-1.2505,-1.2512,-1.2665,-1.2505,-1.2551,-1.2806,-1.3226,-1.3838,-1.4359,-1.2068,-1.1177,-1.1257,0.0,0.0,0.0,0.0,-1.1647,-1.1561,0.0,0.0,0.0,0.0,0.0,0.0,0.0,0.0,0.0,0.0,0.0,0.0,0.0,0.0,0.0,-1.0044,0.0,0.0,0.0,0.0,0.0,0.0,0.0,0.0,0.0,0.0,0.0,0.0,-1.5807,-1.6904,-1.7197,-1.8727,-1.8853,-1.7752,-1.6811,-1.4788,-1.1966,-1.014,-0.8899,0.0,0.0,0.0,0.0,0.0,0.0,0.0,0.0,0.0,0.0,0.0,0.0,0.0,0.0,0.0,0.0,0.0,0.0,0.0,0.0,0.0,0.0,0.0,0.0,0.0,0.0,0.0,0.0,0.0,0.0,0.0,0.0,0.0,0.0,0.0,0.0,0.0,0.0,-0.1903,-0.3709,-0.4002,-0.5197,-0.5679,0.0,0.0,0.0,0.0,0.0,0.0,-0.8402,-0.9297,-1.0252,-1.123,-1.1749,-1.2423,-1.3386,-1.3393,-1.35,-1.3868,-1.3647,-1.3621,-1.3748,-1.3534,-1.3657,-1.4096,-1.4364,-1.4537,-1.4479,-1.3376,-1.2465,-1.1846,-1.2809,-1.273,-1.2225,-1.2808,-1.285,-1.27,0.0,0.0,0.0,0.0,0.0,0.0,0.0,0.0,0.0,0.0,0.0,0.0,0.0,0.0,-1.2263,-1.3436,-1.3791,-1.3492,0.0,0.0,0.0,0.0,0.0,0.0,0.0,0.0,0.0,-1.7142,-1.8867,-2.0129,-2.0915,-2.1514,-2.1719,-2.1516,-1.9761,-1.685,-1.3096,-1.0809,-0.9674,-0.9241,0.0,0.0,0.0,0.0,0.0,0.0,0.0,0.0,0.0,0.0,0.0,0.0,0.0,0.0,0.0,0.0,0.0,0.0,0.0,0.0,0.0,0.0,0.0,0.0,0.0,0.0,0.0,0.0,0.0,0.0,0.0,0.0,0.0,0.0,0.0,0.0,0.0,0.0,0.0,-0.4207,-0.7683,0.0,0.0,0.0,0.0,-0.8015,-0.8437,-0.9304,-1.0566,-1.1045,-1.1948,-1.3393,-1.3801,-1.4242,-1.485,-1.485,-1.4723,-1.4476,-1.4462,-1.4315,-1.4062,-1.4048,-1.3881,-1.3581,-1.3366,-1.2966,-1.2587,-1.4453,-1.4982,-1.4541,-1.4236,-1.4388,-1.4615,-1.3848,-1.4076,-1.4635,0.0,0.0,0.0,0.0,0.0,0.0,0.0,0.0,0.0,0.0,0.0,0.0,0.0,-1.391,-1.5491,-1.7088,-1.7856,-1.7543,-1.5761,0.0,0.0,0.0,0.0,0.0,0.0,0.0,-1.7482,-1.9575,-2.0623,-2.1484,-2.207,-2.249,-2.2695,-2.258,-2.1025,-1.9389,-1.7588,-1.3816,-1.1802,-1.0938,-0.9446,-0.8476,0.0,0.0,0.0,0.0,0.0,0.0,0.0,0.0,0.0,0.0,0.0,0.0,0.0,0.0,0.0,0.0,0.0,0.0,0.0,0.0,0.0,0.0,0.0,0.0,0.0,0.0,0.0,0.0,0.0,0.0,0.0,0.0,0.0,0.0,0.0,0.0,0.0,-0.7484,-0.9639,0.0,-0.9484,-0.977,-1.0037,-1.0056,-1.1228,-1.2214,-1.2877,-1.3609,-1.4249,-1.4756,-1.5057,-1.5311,-1.5518,-1.5518,-1.5464,-1.5357,-1.4983,-1.475,-1.4636,-1.4262,-1.3928,-1.3634,-1.416,-1.444,-1.4514,-1.586,-1.5431,-1.396,-1.4705,-1.5093,-1.5193,-1.4884,-1.4964,-1.5196,0.0,0.0,0.0,0.0,0.0,0.0,0.0,0.0,0.0,0.0,0.0,-1.1266,-1.4009,-1.6331,-1.8229,-1.959,-2.0323,-1.9756,-1.7427,0.0,0.0,0.0,0.0,0.0,0.0,-1.8871,-2.0425,-2.1681,-2.2452,-2.2854,-2.2734,-2.3008,-2.3135,-2.3028,-2.1968,-2.1276,-2.0876,-1.715,-1.4592,-1.2702,-1.0641,-0.9361,-0.8626,0.0,0.0,0.0,0.0,0.0,0.0,0.0,0.0,0.0,0.0,0.0,0.0,0.0,0.0,0.0,0.0,0.0,0.0,0.0,0.0,0.0,0.0,0.0,0.0,0.0,0.0,0.0,0.0,0.0,0.0,0.0,0.0,0.0,0.0,0.0,-0.8969,-0.9777,-1.1652,-1.2625,-1.1945,-1.2043,-1.2286,-1.2557,-1.3625,-1.4469,-1.4663,-1.5231,-1.5538,-1.5538,-1.5732,-1.5832,-1.5832,-1.5832,-1.5778,-1.5678,-1.5197,-1.491,-1.4796,-1.4309,-1.3981,-1.3788,-1.4321,-1.4734,-1.4996,-1.5741,-1.5288,-1.4289,-1.5589,-1.6074,-1.6064,-1.5918,-1.5947,-1.6094,0.0,0.0,0.0,0.0,0.0,0.0,0.0,0.0,0.0,0.0,-1.0615,-1.3292,-1.5945,-1.8408,-2.022,-2.0996,-2.0961,-1.9837,-1.7348,-1.6197,0.0,0.0,0.0,0.0,-2.0095,-2.2512,-2.3765,-2.3594,-2.4346,-2.4211,-2.3135,-2.3154,-2.3154,-2.3125,-2.2734,-2.2549,-2.2386,-2.0605,-1.7899,-1.4574,-1.2135,-1.0458,-0.9324,0.0,0.0,0.0,0.0,0.0,0.0,0.0,0.0,0.0,0.0,0.0,0.0,0.0,0.0,0.0,0.0,0.0,0.0,0.0,0.0,0.0,0.0,0.0,0.0,0.0,0.0,0.0,0.0,0.0,0.0,0.0,0.0,0.0,-0.6506,-0.9787,-1.1775,-1.0924,-1.3741,-1.5418,-1.4289,-1.4943,-1.5438,-1.5438,-1.5698,-1.5852,-1.5845,-1.5845,-1.5838,-1.5832,-1.5832,-1.5832,-1.5832,-1.5832,-1.5691,-1.5404,-1.5117,-1.4823,-1.4536,-1.4242,-1.4102,-1.4082,-1.3788,-1.3647,-1.3675,-1.4084,-1.477,-1.5698,-1.6896,-1.7412,-1.7353,-1.6924,-1.7031,-1.7324,0.0,0.0,0.0,0.0,0.0,0.0,0.0,0.0,0.0,0.0,-1.059,-1.3037,-1.6228,-1.8627,-2.0618,-2.2088,-2.1666,-2.0571,-1.8747,0.0,0.0,0.0,0.0,0.0,-2.2842,-2.3576,-2.4271,-2.5029,-2.4019,-2.3387,-2.3144,-2.3467,-2.3437,-2.3144,-2.335,-2.3262,-2.2862,-2.1447,-2.022,-1.8885,-1.5964,-1.3299,-1.1048,0.0,0.0,0.0,0.0,0.0,0.0,0.0,0.0,0.0,0.0,0.0,0.0,0.0,0.0,0.0,0.0,0.0,0.0,0.0,0.0,0.0,0.0,0.0,0.0,0.0,0.0,0.0,0.0,0.0,0.0,0.0,0.0,-1.0404,-1.0286,-1.1629,-1.3188,-1.483,-1.5866,-1.642,-1.6319,-1.6326,-1.6346,-1.6346,-1.642,-1.6373,-1.6159,-1.6152,-1.6052,-1.5838,-1.5832,-1.5832,-1.5832,-1.5832,-1.5792,-1.5705,-1.5418,-1.5231,-1.5137,-1.4629,-1.4402,-1.4389,-1.4095,-1.4248,-1.4735,-1.4793,-1.5119,-1.5675,-1.6795,-1.7467,-1.7822,-1.7705,-1.7549,-1.7363,0.0,0.0,0.0,0.0,0.0,0.0,0.0,0.0,0.0,0.0,-1.1423,-1.3975,-1.6602,-1.8712,-2.0476,-2.1728,-2.039,-1.8991,-1.7943,0.0,0.0,0.0,0.0,-2.3207,-2.4661,-2.5391,-2.5599,-2.5289,-2.4248,-2.365,-2.3418,-2.3672,-2.375,-2.3682,-2.3935,-2.3906,-2.3582,-2.2915,-2.2122,-2.1174,-1.9188,-1.6264,-1.311,-1.2438,-1.1354,-1.0034,-0.9583,-0.9361,-0.9058,-0.7715,0.0,0.0,0.0,0.0,0.0,0.0,0.0,0.0,0.0,0.0,0.0,0.0,0.0,0.0,0.0,0.0,0.0,0.0,0.0,0.0,0.0,0.0,0.0,0.0,-1.1025,-1.3501,-1.4254,-1.4684,-1.5543,-1.6879,-1.7188,-1.7281,-1.7328,-1.7174,-1.7021,-1.6901,-1.6774,-1.658,-1.6286,-1.6152,-1.6005,-1.5832,-1.5832,-1.5832,-1.5832,-1.5832,-1.5832,-1.5825,-1.5531,-1.5398,-1.5384,-1.4917,-1.4703,-1.4689,-1.4396,-1.4501,-1.4802,-1.4621,-1.4835,0.0,0.0,0.0,0.0,0.0,-1.8008,-1.7646,0.0,0.0,0.0,0.0,0.0,0.0,0.0,0.0,0.0,0.0,0.0,-1.5101,-1.6618,-1.8436,-1.9673,-2.0196,-1.8042,-1.6534,0.0,0.0,0.0,-2.0941,-2.372,-2.5325,-2.5772,-2.7035,-2.6801,-2.4871,-2.4786,-2.441,-2.3789,-2.3887,-2.4082,-2.4346,-2.4443,-2.4463,-2.4414,-2.4414,-2.3537,-2.2236,-2.1437,-1.8852,-1.5315,-1.3533,-1.2434,-1.1682,-1.132,-1.0866,-1.0365,-0.9629,0.0,0.0,0.0,0.0,0.0,0.0,0.0,0.0,0.0,0.0,0.0,0.0,0.0,0.0,0.0,0.0,0.0,0.0,0.0,0.0,0.0,0.0,0.0,0.0,-1.2616,-1.5347,-1.7802,-1.8143,-1.8043,-1.7769,-1.7889,-1.7909,-1.7702,-1.7622,-1.7475,-1.7215,-1.6921,-1.6627,-1.6339,0.0,0.0,0.0,0.0,-1.5832,-1.5832,-1.5832,-1.5832,-1.5825,-1.5571,-1.5444,-1.5438,-1.5144,-1.5017,-1.4997,-1.4696,-1.4569,-1.4529,-1.3975,-1.426,-1.5238,-1.657,-1.7252,-1.7532,-1.8289,-1.8369,-1.8008,0.0,0.0,0.0,0.0,0.0,0.0,0.0,0.0,0.0,-0.9081,-1.1595,-1.3555,-1.4175,-1.6643,-1.8083,-1.7611,-1.7299,-1.7066,0.0,0.0,-1.952,-2.3258,-2.4744,-2.5977,-2.6913,-2.5928,-2.5391,-2.5277,-2.4432,-2.3969,-2.3809,-2.4502,-2.4492,-2.3935,-2.4639,-2.4746,-2.4414,-2.4414,-2.4181,-2.3687,-2.1287,-1.8823,-1.644,-1.5705,-1.444,-1.3187,-1.2895,-1.3021,-1.3055,-1.1526,-1.1319,-1.1462,-0.9939,0.0,0.0,0.0,0.0,0.0,0.0,0.0,0.0,0.0,0.0,0.0,0.0,0.0,0.0,0.0,0.0,0.0,0.0,0.0,0.0,-1.2673,-1.531,-1.7595,-1.8526,-1.8758,-1.8731,-1.8671,-1.8076,-1.7842,-1.827,-1.7869,-1.7562,-1.7502,-1.7228,-1.6934,-1.664,-1.6346,-1.6079,-1.5838,-1.5832,-1.5832,-1.5832,-1.5832,-1.5832,-1.5832,0.0,0.0,-1.5732,-1.5444,-1.5311,-1.5297,-1.5003,-1.4877,-1.485,-1.4496,-1.4636,-1.526,-1.6935,-1.811,-1.8894,-1.8689,-1.8369,-1.8008,0.0,0.0,0.0,0.0,0.0,0.0,0.0,0.0,0.0,0.0,-1.1129,-1.2786,-1.3183,-1.4553,-1.5429,-1.545,-1.5174,0.0,0.0,-1.7948,-2.0161,-2.4248,-2.5159,-2.5847,-2.6345,-2.553,-2.5037,-2.4886,-2.4364,-2.4219,-2.4443,-2.4873,-2.4961,-2.4785,-2.5215,-2.5283,-2.5078,-2.5078,-2.4951,-2.451,-2.1587,-1.9674,-1.8273,-1.6606,-1.5418,-1.4703,-1.4409,-1.4402,-1.4389,-1.3338,-1.3054,-1.2942,-1.1926,-1.0368,-0.8661,0.0,0.0,0.0,0.0,0.0,0.0,0.0,0.0,0.0,0.0,0.0,0.0,0.0,0.0,-0.8413,0.0,0.0,-1.3471,-1.4349,-1.6568,-1.8424,-1.8865,-1.8671,-1.8537,-1.8691,-1.831,-1.8036,-1.8036,-1.7903,-1.7749,-1.7595,-1.7315,-1.7081,-1.6934,-1.6513,-1.6206,-1.6052,-1.5905,-1.5832,-1.5832,-1.5832,-1.5832,-1.5832,-1.5832,-1.5832,-1.5825,-1.5678,-1.5611,-1.5598,-1.5304,-1.5097,-1.493,-1.4489,-1.4699,-1.5523,-1.6389,-1.7301,-1.8225,-1.874,-1.8691,-1.8291,0.0,0.0,0.0,0.0,0.0,0.0,0.0,0.0,0.0,0.0,-1.063,-1.201,-1.2443,-1.2811,-1.3181,0.0,0.0,0.0,0.0,-1.8155,-2.0521,-2.4655,-2.5195,-2.5456,-2.5403,-2.5161,-2.4905,-2.4541,-2.4541,-2.4727,-2.5068,-2.5156,-2.5352,-2.5605,-2.5703,-2.5742,-2.5742,-2.5742,-2.5527,-2.4946,-2.2005,-2.0579,-1.9894,-1.6883,-1.5832,-1.5792,-1.5504,-1.5006,-1.4608,-1.4629,-1.409,-1.3464,-1.3492,-1.2426,-1.0811,-0.9039,-0.8201,0.0,0.0,0.0,0.0,0.0,0.0,0.0,0.0,0.0,-0.8717,-0.9414,-1.009,-1.0781,-1.1326,-1.3338,-1.5143,-1.5821,-1.7388,-1.8591,-1.8885,-1.8417,-1.8136,-1.8377,-1.835,-1.8143,-1.7716,-1.7842,-1.7856,-1.7602,-1.7315,-1.7148,-1.7148,-1.6593,-1.6273,-1.6273,-1.5985,-1.5832,-1.5832,-1.5832,-1.5832,-1.5832,-1.5832,-1.5832,-1.5832,-1.5832,-1.5832,-1.5812,-1.5524,-1.5231,-1.4923,-1.4389,-1.4628,-1.5379,-1.5621,-1.6039,-1.6854,-1.8526,-1.8783,-1.8312,0.0,0.0,0.0,0.0,0.0,0.0,0.0,0.0,0.0,0.0,0.0,0.0,0.0,0.0,0.0,0.0,0.0,0.0,-1.7276,-1.876,-2.1185,-2.479,-2.4919,-2.504,-2.5403,-2.4474,-2.4362,-2.5,-2.5,-2.5019,-2.5078,-2.5478,-2.5478,-2.5166,-2.5557,-2.5742,-2.5742,-2.5742,-2.5713,-2.5383,-2.2119,-2.0737,-2.0334,-1.7063,-1.5832,-1.5792,-1.5504,-1.4432,-1.331,-1.4568,-1.4084,-1.3182,-1.4435,-1.3607,-1.1945,-1.0916,0.0,-0.7521,-0.5731,-0.5508,-0.5898,-0.6557,-0.7345,-0.8678,0.0,0.0,-1.3176,-1.4968,-1.6045,-1.6577,-1.6419,-1.7048,-1.7649,-1.7661,-1.8121,-1.8591,-1.8885,-1.8417,-1.8056,-1.809,-1.7849,-1.7769,-1.7976,-1.7776,-1.7615,-1.7589,-1.7315,-1.7148,-1.7148,-1.6593,-1.6273,-1.6273,-1.5985,-1.5832,-1.5832,-1.5832,-1.5832,-1.5832,-1.5832,-1.5832,-1.5832,-1.5832,-1.5832,-1.5812,-1.5524,-1.5231,-1.4937,-1.4609,-1.4401,-1.4412,-1.5296,-1.5538,-1.5582,-1.7656,-1.7904,-1.737,0.0,0.0,0.0,0.0,0.0,0.0,0.0,0.0,0.0,0.0,0.0,0.0,0.0,0.0,0.0,0.0,0.0,0.0,-1.6815,-1.8087,-2.0201,-2.3522,-2.3753,-2.4012,-2.4464,-2.4048,-2.4209,-2.5068,-2.5068,-2.4794,-2.4249,-2.4426,-2.4005,-2.3135,-2.3304,-2.3384,-2.3367,-2.3135,-2.3037,-2.2868,-2.0361,-1.9311,-1.905,-1.6532,-1.5257,-1.4796,-1.4405,-1.358,0.0,0.0,-1.3052,-1.2913,-1.3853,-1.3192,-1.1818,-1.1013,-0.9641,0.0,-0.8315,-0.7846,-0.7965,0.0,-1.0858,-1.1672,-1.4084,-1.4981,-1.5628,-1.686,-1.7328,-1.7655,-1.7889,-1.7989,-1.8143,0.0,-1.8524,-1.8537,-1.8651,-1.8156,-1.7649,-1.7308,-1.7154,-1.7121,-1.7255,-1.7455,-1.7515,-1.7341,-1.7375,-1.7402,-1.7402,-1.7007,-1.67,-1.6526,-1.6239,-1.6005,-1.5832,-1.5832,-1.5832,-1.5832,-1.5832,-1.5832,-1.5832,-1.5832,-1.5832,-1.5812,-1.5524,-1.5331,-1.5177,-1.471,-1.4449,-1.4322,-1.4642,-1.4657,-1.4764,-1.6626,-1.6988,-1.671,0.0,0.0,0.0,0.0,0.0,0.0,0.0,0.0,0.0,0.0,0.0,0.0,0.0,0.0,0.0,0.0,0.0,0.0,0.0,-1.6812,-1.8804,-2.1799,-2.2496,-2.3105,-2.3779,-2.3789,-2.4209,-2.5068,-2.5068,-2.4592,-2.3692,-2.3692,-2.2968,-2.1752,-2.1752,-2.1752,-2.1727,-2.1462,-2.1288,-2.1048,-1.9194,-1.8288,-1.7946,-1.586,-1.4396,-1.3474,-1.3214,-1.2393,0.0,0.0,-1.1384,-1.1389,-1.2355,-1.2067,-1.1135,-1.0423,-0.9213,-0.8372,-0.9545,-0.9508,0.0,-1.293,-1.3761,-1.4327,-1.5963,-1.6707,-1.7194,-1.7622,-1.7709,-1.7842,-1.8277,-1.819,-1.8183,-1.8604,-1.8571,-1.849,-1.849,-1.7969,-1.7395,-1.6887,-1.6687,-1.6553,-1.6473,-1.6994,-1.7288,-1.7161,-1.7341,-1.7502,-1.7582,-1.7228,-1.6927,-1.6714,-1.6346,-1.6046,-1.5832,-1.5832,-1.5832,-1.5832,-1.5832,-1.5832,-1.5825,-1.5745,-1.5712,-1.5691,-1.5317,-1.5244,-1.5344,-1.4676,-1.4449,-1.4489,-1.4202,-1.4088,-1.4223,-1.5516,-1.5913,-1.6094,0.0,0.0,0.0,0.0,0.0,0.0,0.0,0.0,0.0,0.0,0.0,0.0,0.0,0.0,0.0,0.0,0.0,0.0,0.0,-1.4985,-1.7167,-1.9863,-2.1221,-2.251,-2.376,-2.3789,-2.4209,-2.5068,-2.5068,-2.4592,-2.3692,-2.3692,-2.2968,-2.1752,-2.1752,-2.1752,-2.1752,-2.1736,-2.1528,-2.1065,-1.9352,-1.8356,-1.7649,-1.5078,-1.3241,-1.197,-1.2232,0.0,0.0,-0.9536,-0.8903,-0.8116,-0.9791,-1.0304,0.0,-0.9343,-0.7793,-0.6656,-0.8242,0.0,-1.0466,-1.3128,-1.4982,-1.644,-1.7328,-1.7776,-1.8009,-1.8029,-1.8029,-1.8029,-1.8029,-1.8036,-1.8043,-1.8043,-1.829,-1.849,-1.849,-1.7969,-1.7468,-1.7174,-1.6633,-1.6172,0.0,-1.6386,-1.6847,-1.723,-1.7257,-1.7288,-1.7569,-1.7034,-1.6714,-1.6707,-1.6146,-1.5838,-1.5832,-1.5832,-1.5832,-1.5832,-1.5832,-1.5832,-1.5818,-1.5538,-1.5411,-1.5378,-1.4796,-1.487,-1.5324,-1.4456,-1.4269,-1.4489,-1.4202,-1.4088,-1.4088,-1.4159,-1.4606,-1.5328,0.0,0.0,0.0,0.0,0.0,0.0,0.0,0.0,0.0,0.0,0.0,0.0,0.0,0.0,0.0,0.0,0.0,0.0,0.0,-1.4038,-1.6002,-1.7426,-1.9763,-2.1005,-2.0846,-2.1479,-2.2156,-2.3084,-2.2209,-2.1726,-2.1624,-2.0745,-1.9667,-1.8383,-1.8383,-1.8383,-1.8361,-1.8159,-1.8007,-1.784,-1.6749,-1.5748,-1.4974,-1.3382,-1.1683,-1.0137,0.0,0.0,0.0,-0.7507,-0.7421,-0.7492,-0.8516,-0.8495,-0.7994,-0.7797,-0.8035,-0.8793,-1.0724,0.0,-1.3399,-1.5738,-1.7052,-1.7869,-1.8364,-1.8404,-1.8283,-1.809,-1.6581,-1.5337,-1.5507,-1.4309,-1.3778,-1.5532,-1.6163,-1.6877,-1.8001,-1.8009,-1.7542,-1.6673,-1.6393,0.0,0.0,0.0,0.0,-1.6834,-1.7041,-1.7275,-1.7569,-1.7395,-1.7201,-1.7007,-1.6613,-1.6319,-1.6126,-1.5925,-1.5832,-1.5832,-1.5832,-1.5832,-1.5825,-1.5732,-1.5578,-1.5384,-1.519,-1.5104,-1.507,-1.4576,-1.4436,-1.4489,-1.4202,-1.4088,-1.4088,-1.4088,-1.4266,-1.4594,0.0,0.0,0.0,0.0,0.0,0.0,0.0,0.0,0.0,0.0,0.0,0.0,0.0,0.0,0.0,0.0,0.0,0.0,0.0,0.0,-1.4083,-1.5176,-1.7119,-1.8219,-1.8151,-1.8559,-1.9132,-1.988,-1.9212,-1.8853,-1.8683,-1.811,-1.7211,-1.5932,-1.6039,-1.6079,-1.6066,-1.5772,-1.5431,-1.5087,-1.4427,-1.3516,-1.2382,-1.1384,-1.0095,0.0,0.0,0.0,-0.6294,-0.5945,-0.6041,-0.6478,-0.7416,-0.7411,-0.7069,-0.7678,-0.8555,-0.984,-1.2312,-1.387,-1.5401,-1.7457,-1.8364,-1.8798,-1.8771,-1.8544,-1.7988,-1.6951,-1.5036,-1.3459,-1.3068,-1.1599,-1.1319,-1.3921,-1.4619,-1.5595,-1.7616,-1.7689,-1.7268,-1.6513,-1.6339,-1.6126,0.0,0.0,0.0,-1.6547,-1.6921,-1.7235,-1.7415,-1.7428,-1.7341,-1.7257,-1.676,-1.646,-1.6279,-1.5979,-1.5832,-1.5832,-1.5832,-1.5772,-1.5671,-1.5671,-1.5571,-1.5384,-1.517,-1.5097,-1.5077,-1.4576,-1.4429,-1.4489,-1.4202,-1.4088,-1.4088,-1.4088,-1.4088,-1.4166,0.0,0.0,0.0,0.0,0.0,0.0,0.0,0.0,0.0,0.0,0.0,0.0,0.0,0.0,0.0,0.0,0.0,0.0,0.0,0.0,0.0,-1.2945,-1.3595,-1.4455,-1.5547,-1.5283,-1.5413,-1.5878,-1.6295,-1.6037,-1.5135,-1.5839,-1.5553,-1.4329,-1.4628,-1.4843,-1.481,-1.4455,-1.3756,-1.2896,-1.2603,-1.1606,-1.0236,-0.9317,0.0,0.0,0.0,0.0,0.0,0.0,0.0,0.0,-0.6648,-0.7163,-0.759,-0.9093,-0.9357,-0.9919,-1.3051,-1.5005,-1.6523,-1.818,-1.8978,-1.9212,-1.8624,-1.819,-1.7101,-1.4735,-1.3511,-1.2316,0.0,0.0,-1.0611,-1.3247,-1.3833,-1.4821,-1.7264,-1.7114,-1.6767,0.0,0.0,0.0,0.0,0.0,0.0,-1.6359,0.0,-1.7181,-1.7194,-1.7194,-1.7181,-1.7148,-1.6593,-1.6286,-1.6273,-1.5979,-1.5832,-1.5832,-1.5832,-1.5685,-1.5418,-1.5418,-1.5411,-1.5364,-1.479,-1.485,-1.5284,-1.4436,-1.4249,-1.4469,-1.4195,-1.4088,-1.4088,-1.4088,-1.4088,-1.4088,0.0,0.0,0.0,0.0,0.0,0.0,0.0,0.0,0.0,0.0,0.0,0.0,0.0,0.0,0.0,0.0,0.0,0.0,0.0,0.0,0.0,0.0,0.0,0.0,0.0,0.0,0.0,0.0,-1.2952,-1.2811,-1.3493,-1.2752,-1.2221,-1.1936,-1.2141,-1.2148,-1.2041,-1.2098,-1.1878,-1.1447,0.0,-0.9995,-0.9021,0.0,0.0,0.0,0.0,0.0,0.0,0.0,0.0,0.0,0.0,-0.9322,-1.0092,-1.2023,-1.3028,-1.4025,-1.6562,-1.8057,-1.8909,-1.9659,-1.9573,-1.9212,-1.8624,-1.6808,-1.4943,-1.3724,-1.0704,-0.8136,0.0,0.0,0.0,-1.0968,-1.3053,0.0,-1.7297,-1.7655,0.0,-1.7088,0.0,-1.6927,-1.6927,-1.6994,0.0,0.0,-1.7388,-1.7575,-1.7809,-1.7816,-1.7615,-1.7161,-1.6787,-1.6493,-1.6279,-1.5979,-1.5832,-1.5832,-1.5832,-1.5792,-1.5718,-1.5718,-1.5605,-1.5378,-1.501,-1.481,-1.471,-1.4269,-1.4128,-1.4195,-1.4115,-1.4088,-1.4088,-1.4088,-1.4088,-1.4088,0.0,0.0,0.0,0.0,0.0,0.0,0.0,0.0,0.0,0.0,0.0,0.0,0.0,0.0,0.0,0.0,0.0,0.0,0.0,0.0,0.0,0.0,0.0,0.0,0.0,0.0,0.0,0.0,0.0,0.0,-1.06,-1.0189,-1.003,-1.0042,-1.0308,-1.0343,-1.0271,-1.0243,0.0,0.0,0.0,0.0,0.0,0.0,0.0,0.0,0.0,0.0,0.0,0.0,0.0,-0.9674,-1.0819,-1.1563,-1.2492,-1.4583,0.0,-1.6215,-1.8346,-1.9519,-2.016,-2.0067,-1.97,-1.8924,-1.7355,-1.5404,-1.341,-1.0978,-0.8361,0.0,-0.6181,0.0,0.0,0.0,0.0,0.0,-1.6892,-1.7348,-1.7428,0.0,-1.7341,0.0,-1.7528,-1.7662,-1.7802,0.0,-1.7736,-1.7655,-1.7836,-1.7842,-1.7629,-1.7161,-1.686,-1.65,-1.6079,-1.5912,-1.5832,-1.5832,-1.5832,-1.5832,-1.5832,-1.5832,-1.5738,-1.5571,0.0,-1.4983,-1.4689,-1.4396,-1.4202,-1.4088,-1.4088,-1.4088,-1.4088,-1.4088,-1.4088,-1.4088,0.0,0.0,0.0,0.0,0.0,0.0,0.0,0.0,0.0,0.0,0.0,0.0,0.0,0.0,0.0,0.0,0.0,0.0,0.0,0.0,0.0,0.0,0.0,0.0,0.0,0.0,0.0,0.0,0.0,0.0,0.0,0.0,0.0,0.0,0.0,0.0,0.0,0.0,0.0,0.0,0.0,0.0,0.0,0.0,0.0,0.0,0.0,0.0,0.0,0.0,-1.1157,-1.2135,-1.3137,-1.3893,-1.481,-1.6826,-1.7134,-1.729,-1.9057,-2.0067,-2.0535,-1.9947,-1.9492,-1.8427,-1.5582,-1.3988,-1.205,-0.7873,0.0,-0.5868,-0.5472,-0.567,-0.7145,-1.1019,0.0,-1.3533,-1.6354,-1.674,-1.6954,-1.7462,-1.7595,-1.7762,-1.8076,-1.8303,-1.8464,-1.8544,-1.7949,-1.7602,-1.7642,-1.7682,-1.7515,-1.7108,-1.6767,-1.6241,-1.554,-1.554,-1.5439,-1.5248,-1.5439,-1.554,-1.5534,-1.573,-1.5832,-1.5812,-1.5524,-1.5251,-1.4997,-1.4703,-1.4429,-1.4202,-1.4162,-1.4142,-1.4142,-1.4102,-1.4088,-1.4088,0.0,0.0,0.0,0.0,0.0,0.0,0.0,0.0,0.0,0.0,-0.3461,-0.3998,0.0,0.0,0.0,0.0,0.0,0.0,0.0,0.0,0.0,0.0,0.0,0.0,0.0,0.0,0.0,0.0,0.0,0.0,0.0,0.0,0.0,0.0,0.0,0.0,0.0,0.0,0.0,0.0,0.0,0.0,0.0,0.0,0.0,0.0,0.0,0.0,0.0,0.0,-1.2475,-1.3634,-1.523,-1.6256,-1.7171,-1.8036,-1.8637,-1.909,-1.9893,-2.0374,-2.0535,-1.9947,-1.9032,-1.7576,-1.4871,-1.2283,0.0,0.0,-0.5196,-0.4116,-0.4897,-0.5609,-0.7368,-1.1054,0.0,0.0,0.0,0.0,-1.7114,0.0,0.0,0.0,0.0,0.0,0.0,0.0,-1.8063,-1.7695,-1.7956,-1.8203,-1.7856,-1.6814,-1.6259,-1.5441,-1.4262,-1.4262,-1.3686,-1.2624,-1.3686,-1.4262,-1.4262,-1.5343,-1.5832,-1.5812,-1.5524,0.0,-1.5297,-1.5003,-1.4856,-1.479,-1.4543,-1.4442,-1.4416,-1.4175,-1.4088,-1.4088,0.0,0.0,0.0,0.0,0.0,0.0,0.0,0.0,-0.2024,-0.2152,-0.2836,-0.3483,-0.3928,-0.4104,0.0,0.0,0.0,0.0,0.0,0.0,0.0,0.0,0.0,0.0,0.0,0.0,0.0,0.0,0.0,0.0,0.0,0.0,0.0,0.0,0.0,0.0,0.0,0.0,0.0,0.0,0.0,0.0,0.0,0.0,0.0,0.0,0.0,0.0,0.0,0.0,-1.12,-1.2912,-1.5639,-1.7108,-1.7682,-1.7186,-1.8302,-1.9435,-1.8894,-1.974,-2.0535,-1.9947,-1.8798,-1.6788,-1.3211,0.0,0.0,0.0,-0.3878,-0.3506,-0.457,0.0,0.0,0.0,0.0,0.0,0.0,0.0,0.0,0.0,0.0,0.0,0.0,0.0,0.0,0.0,0.0,-1.6375,-1.7935,-1.7083,-1.5909,-1.4564,-1.405,-1.3494,-1.2909,-1.2813,-1.2528,-1.195,-1.3295,-1.3878,-1.3974,-1.5242,-1.5832,-1.5818,-1.5678,-1.5538,-1.5384,-1.5244,-1.5104,-1.495,-1.481,-1.4656,-1.4502,-1.4362,-1.4215,-1.4088,0.0,0.0,0.0,0.0,0.0,0.0,0.0,-0.0868,-0.1345,-0.1585,-0.2224,-0.2903,-0.3523,-0.3893,-0.4192,0.0,0.0,0.0,0.0,0.0,0.0,0.0,0.0,0.0,0.0,0.0,0.0,0.0,0.0,0.0,0.0,0.0,0.0,0.0,0.0,0.0,0.0,0.0,0.0,0.0,0.0,0.0,0.0,0.0,0.0,0.0,0.0,0.0,0.0,0.0,-0.9434,-1.1354,-1.4334,-1.5967,-1.6665,-1.5752,-1.7238,-1.8951,-1.8114,-1.9129,-2.0428,-1.9773,-1.845,-1.6121,-1.1655,-0.9707,0.0,0.0,-0.2862,-0.322,-0.4445,0.0,-0.5519,0.0,-0.8918,0.0,0.0,0.0,0.0,0.0,0.0,0.0,0.0,0.0,0.0,0.0,0.0,-1.4822,-1.6959,-1.5309,-1.3879,-1.2597,-1.2218,-1.182,-1.1526,-1.1482,-1.1361,-1.1068,-1.2425,-1.3102,-1.3102,-1.4657,-1.5439,-1.5439,-1.5635,-1.5698,-1.5491,-1.5491,-1.5351,-1.5144,-1.5077,-1.491,-1.4689,-1.4569,-1.4376,-1.4168,0.0,0.0,0.0,0.0,0.0,0.0,0.0,-0.0296,-0.0695,-0.0962,-0.1519,-0.208,-0.2587,-0.3083,-0.3634,0.0,0.0,0.0,0.0,0.0,0.0,0.0,0.0,0.0,0.0,0.0,0.0,0.0,0.0,0.0,0.0,0.0,0.0,0.0,0.0,0.0,0.0,0.0,0.0,0.0,0.0,0.0,0.0,0.0,0.0,0.0,0.0,0.0,0.0,0.0,0.0,-0.9351,-1.0249,-1.1646,-1.3235,-1.4634,0.0,0.0,-1.8849,-1.9766,-2.0067,-1.9219,-1.7689,-1.5343,-1.1077,0.0,0.0,-0.3457,-0.2598,-0.2894,-0.4245,-0.3431,-0.3654,0.0,0.0,-0.7192,0.0,0.0,0.0,0.0,0.0,0.0,0.0,0.0,0.0,0.0,0.0,-1.3532,-1.3938,-1.336,-1.2914,-1.2597,-1.2365,-1.1639,-1.0335,-1.0276,-0.9608,-0.8333,-0.9702,-1.0386,-1.0485,-1.2904,-1.407,-1.4166,-1.5337,-1.5812,0.0,-1.5792,-1.5772,-1.5725,-1.5464,-1.5337,-1.5251,-1.4716,-1.4502,-1.4442,0.0,0.0,0.0,0.0,0.0,0.0,0.0,-0.0037,-0.0452,-0.0532,-0.118,-0.172,-0.1999,-0.2405,-0.2946,0.0,0.0,0.0,0.0,0.0,0.0,0.0,0.0,0.0,0.0,0.0,0.0,0.0,0.0,0.0,0.0,0.0,0.0,0.0,0.0,0.0,0.0,0.0,0.0,0.0,0.0,0.0,0.0,0.0,0.0,0.0,0.0,0.0,0.0,0.0,0.0,0.0,-0.6657,-0.7143,0.0,0.0,-1.3076,-1.5781,-1.5626,-1.7618,-1.9539,-1.8838,-1.7455,-1.5194,-1.0772,0.0,-0.6843,-0.3135,-0.2413,-0.2522,-0.303,-0.2627,-0.2671,0.0,0.0,0.0,0.0,0.0,0.0,0.0,0.0,0.0,0.0,0.0,0.0,0.0,0.0,-1.0623,-1.0617,-1.1287,-1.1155,-1.0136,-0.9965,-0.952,-0.8918,-0.8855,-0.8531,-0.8041,-0.9312,-0.9998,-1.0096,-1.1848,-1.2716,-1.2716,-1.3204,-1.3499,0.0,-1.4364,-1.4657,-1.474,-1.5409,-1.5551,-1.5344,-1.4937,-1.4676,-1.4476,0.0,0.0,0.0,0.0,0.0,0.126,0.099,0.036,-0.0073,-0.0075,-0.0684,-0.1181,-0.1391,-0.1709,-0.22,-0.2978,0.0,0.0,0.0,0.0,0.0,0.0,0.0,0.0,0.0,0.0,0.0,-0.528,0.0,0.0,0.0,0.0,0.0,0.0,0.0,0.0,0.0,0.0,0.0,0.0,0.0,0.0,0.0,0.0,0.0,0.0,0.0,0.0,0.0,0.0,0.0,0.0,0.0,0.0,0.0,0.0,-1.0286,-1.3211,-1.3302,-1.5639,-1.8033,-1.8043,-1.6566,-1.4126,0.0,0.0,-0.5961,-0.2817,-0.2177,-0.2231,-0.2179,-0.2151,-0.2088,0.0,0.0,-0.3793,-0.5433,0.0,0.0,0.0,0.0,0.0,0.0,0.0,0.0,0.0,-0.894,-0.8872,-0.872,-0.9663,-0.969,-0.8486,-0.8343,-0.8218,-0.8109,-0.8062,-0.8038,-0.8038,-0.892,-0.941,-0.941,-1.0779,-1.1365,-1.1361,-1.175,-1.1945,0.0,-1.2909,-1.3584,-1.3974,-1.4854,-1.5315,-1.5478,-1.5104,-1.4883,-1.4723,0.0,0.0,0.0,0.0,0.0,0.0,0.0,0.095,0.0608,0.0407,0.0106,-0.025,-0.0677,-0.101,-0.1414,-0.1983,0.0,0.0,0.0,0.0,0.0,0.0,0.0,0.0,0.0,0.0,-0.528,-0.5491,-0.5154,-0.5159,-0.5496,0.0,0.0,0.0,0.0,0.0,0.0,0.0,0.0,0.0,0.0,0.0,0.0,0.0,0.0,0.0,0.0,0.0,0.0,0.0,0.0,0.0,0.0,0.0,0.0,0.0,-0.7768,-0.9236,-1.2895,-1.4452,-1.535,-1.6447,-1.452,-1.1721,0.0,0.0,-0.3974,-0.2356,-0.1963,-0.1952,-0.2099,-0.1972,-0.191,-0.1921,-0.1811,0.0,-0.3369,0.0,0.0,0.0,0.0,0.0,0.0,0.0,0.0,0.0,-0.894,0.0,-0.872,-0.871,-0.8642,-0.8486,-0.8343,-0.8272,-0.8269,-0.8116,-0.8038,-0.8038,-0.8041,-0.8038,-0.8038,-0.941,-0.9998,-1.0096,-1.1361,-1.1945,0.0,-1.195,-1.2716,-1.3878,-1.3878,-1.4657,-1.5752,-1.5177,-1.5144,-1.5304,0.0,0.0,0.0,0.0,0.0,0.0,0.0,0.1528,0.1026,0.0775,0.0307,-0.0137,-0.0471,-0.0908,-0.1345,-0.1744,0.0,0.0,0.0,0.0,0.0,0.0,0.0,0.0,0.0,0.0,-0.5159,-0.5371,-0.5366,-0.541,-0.5491,-0.5669,-0.5752,0.0,0.0,0.0,0.0,0.0,0.0,0.0,0.0,0.0,0.0,0.0,0.0,0.0,0.0,0.0,0.0,0.0,0.0,0.0,0.0,0.0,0.0,0.0,0.0,0.0,-0.9195,-1.0656,-1.1769,-1.1927,-1.0864,-0.9176,-0.6753,0.0,-0.4025,-0.2252,-0.2143,-0.2332,-0.2118,-0.2224,-0.2199,-0.1924,-0.2119,0.0,0.0,0.0,0.0,0.0,0.0,0.0,0.0,0.0,0.0,0.0,-0.8686,-0.8604,-0.8557,-0.8462,-0.8387,-0.834,-0.8292,-0.8218,-0.8113,-0.8065,-0.8038,-0.8038,-0.8038,-0.8038,-0.8041,-0.8432,-0.8627,-0.8627,-0.9019,-0.9213,-0.9312,-1.0194,-1.0877,-1.1453,-1.3199,-1.4172,-1.4518,-1.5114,-1.5317,-1.5344,0.0,0.0,0.0,0.0,0.0,0.0,0.0,0.1871,0.1306,0.1043,0.0605,0.0202,-0.0168,-0.0538,-0.0941,-0.1477,0.0,0.0,0.0,0.0,0.0,0.0,0.0,0.0,0.0,-0.4764,-0.4873,-0.5111,-0.5153,-0.5235,-0.5441,-0.561,-0.5648,-0.5578,-0.565,0.0,0.0,0.0,0.0,0.0,0.0,0.0,-0.592,0.0,0.0,0.0,0.0,0.0,0.0,0.0,0.0,0.0,0.0,0.0,0.0,0.0,-0.4326,-0.5693,0.0,-0.7731,-0.874,-0.8985,-0.8186,0.0,0.0,0.0,-0.32,-0.2055,-0.2142,-0.2362,-0.2082,-0.2255,-0.2294,-0.2006,-0.216,0.0,0.0,0.0,0.0,0.0,0.0,0.0,0.0,0.0,0.0,-0.8628,-0.8537,-0.8459,-0.8404,-0.8319,-0.8245,-0.8184,-0.8184,-0.8136,-0.8041,-0.8038,-0.8038,-0.8038,-0.8038,-0.8038,-0.8038,-0.8038,-0.8038,-0.8038,-0.8038,-0.8038,0.0,-0.892,-0.9509,-1.019,-1.1741,-1.2716,-1.3171,-1.3684,-1.4316,-1.4733,0.0,0.0,0.0,0.0,0.0,0.0,0.0,0.0,0.0,0.1311,0.1076,0.0739,0.0202,0.0067,-0.0303,-0.1076,0.0,0.0,0.0,0.0,0.0,0.0,0.0,0.0,0.0,-0.4356,-0.4509,-0.4759,-0.4694,-0.4845,-0.5259,-0.5216,-0.5291,-0.5392,-0.5535,-0.5609,-0.5609,-0.5831,-0.5918,-0.5931,-0.5931,-0.5937,0.0,0.0,0.0,0.0,0.0,0.0,0.0,0.0,0.0,0.0,0.0,0.0,0.0,0.0,0.0,0.0,0.0,-0.5489,0.0,0.0,0.0,0.0,0.0,0.0,0.0,-0.1771,-0.196,-0.2093,-0.2022,-0.22,-0.2279,-0.2082,-0.1967,0.0,0.0,0.0,0.0,0.0,0.0,0.0,0.0,0.0,0.0,-0.8479,-0.8459,-0.8394,-0.8262,-0.8255,-0.8187,-0.8045,-0.8038,-0.8038,-0.8038,-0.8038,-0.8038,-0.8038,-0.8038,-0.8038,-0.8038,-0.8038,-0.8038,0.0,-0.8038,-0.8038,-0.8038,-0.8038,-0.8726,-0.9899,-0.9998,-1.0681,-1.1726,-1.1607,-1.2421,-1.3706,0.0,0.0,0.0,0.0,0.0,0.0,0.0,0.0,0.0,0.0,0.1542,0.1141,0.0605,0.0235,-0.0168,0.0,0.0,0.0,0.0,0.0,0.0,0.0,0.0,0.0,0.0,-0.4126,-0.4352,-0.4575,-0.4807,-0.492,-0.4915,-0.5222,-0.5309,-0.5263,-0.534,-0.5475,-0.5672,-0.5888,-0.6059,-0.6203,-0.6203,-0.6129,0.0,0.0,0.0,0.0,-0.4509,-0.4286,0.0,0.0,0.0,0.0,0.0,0.0,0.0,0.0,-0.238,-0.2219,-0.227,0.0,-0.308,-0.3103,-0.2717,-0.2221,0.0,0.0,0.0,0.0,0.0,-0.2308,-0.2174,-0.2419,-0.258,-0.2291,-0.2511,-0.2774,0.0,0.0,0.0,0.0,0.0,0.0,0.0,0.0,-0.836,-0.8323,-0.8211,-0.813,-0.8096,-0.8096,-0.8075,-0.8041,-0.8038,-0.8038,-0.8038,-0.8038,-0.8038,-0.8038,-0.8038,-0.8038,-0.8038,-0.8038,-0.8038,-0.8038,-0.8038,-0.8038,-0.8038,-0.8038,-0.8237,-0.8531,-0.9608,-1.0194,-1.0578,-1.1497,-1.2093,-1.2292,0.0,0.0,0.0,0.0,0.0,0.0,0.0,0.0,0.0,0.0,0.0,0.0,0.0,0.0,0.0,0.0,0.0,0.0,0.0,0.0,0.0,0.0,0.0,0.0,-0.3526,-0.366,-0.3854,-0.4028,-0.4423,-0.4565,-0.4589,-0.4981,-0.5084,-0.4952,-0.5119,-0.5346,-0.557,-0.5847,-0.598,-0.6068,-0.6109,0.0,0.0,0.0,0.0,0.0,-0.4531,-0.427,0.0,-0.3729,-0.3376,-0.3097,0.0,0.0,0.0,0.0,-0.189,-0.1748,-0.1336,-0.1523,-0.1748,-0.1433,-0.1344,-0.1299,0.0,0.0,0.0,0.0,0.0,-0.2165,-0.2,-0.2246,-0.2451,-0.2259,-0.2777,0.0,0.0,0.0,0.0,0.0,0.0,0.0,0.0,0.0,-0.8241,-0.817,-0.8089,-0.8038,-0.8038,-0.8038,-0.8038,-0.8038,-0.8038,-0.8038,-0.8038,-0.8038,-0.8038,-0.8038,-0.8038,-0.8038,-0.8038,-0.8038,-0.8038,-0.8038,-0.8038,-0.8038,-0.8038,-0.8038,-0.8038,-0.8038,-0.8825,-0.9118,-0.9118,-0.9899,-1.0485,-1.1025,0.0,0.0,0.0,0.0,0.0,0.0,0.0,0.0,0.0,0.0,0.0,0.0,0.0,0.0,0.0,0.0,0.0,0.0,0.0,0.0,0.0,0.0,0.0,-0.2973,-0.3146,-0.3179,-0.3307,-0.3532,-0.3896,-0.4156,-0.428,-0.4666,-0.4762,-0.4634,-0.4915,-0.5169,-0.5358,-0.5693,-0.5787,-0.5749,-0.5826,0.0,0.0,0.0,0.0,0.0,0.0,0.0,0.0,-0.3733,-0.3335,-0.2871,-0.2768,0.0,0.0,0.0,0.0,0.0,-0.1019,-0.103,-0.1119,-0.1074,-0.1119,-0.1164,0.0,0.0,0.0,0.0,0.0,0.0,0.0,-0.2053,0.0,0.0,0.0,0.0,0.0,0.0,0.0,0.0,0.0,0.0,0.0,-0.8235,-0.818,-0.8052,-0.8038,-0.8038,-0.8038,-0.8018,-0.8004,-0.8004,-0.8004,-0.8004,-0.8004,-0.8028,-0.8038,-0.8038,-0.8038,-0.8038,-0.8038,-0.8038,-0.8038,-0.8038,0.0,0.0,-0.8038,-0.8038,-0.8038,-0.8038,-0.8038,-0.8038,-0.8038,-0.8038,-0.8726,-0.9657,0.0,0.0,0.0,0.0,0.0,0.0,0.0,0.0,0.0,0.0,0.0,0.0,0.0,0.0,0.0,0.0,0.0,0.0,0.0,0.0,0.0,0.0,-0.2374,-0.2815,-0.2849,-0.308,-0.334,-0.3672,-0.3896,-0.4058,-0.4129,-0.442,-0.4646,-0.4774,-0.4838,-0.4928,-0.5081,-0.5309,-0.5435,-0.5554,-0.5669,0.0,0.0,0.0,0.0,0.0,0.0,0.0,0.0,-0.37,-0.3274,-0.2779,-0.261,0.0,0.0,0.0,0.0,0.0,-0.031,-0.0045,0.0,-0.0626,-0.076,-0.0761,0.0,0.0,0.0,0.0,0.0,0.0,0.0,-0.2791,-0.3278,0.0,0.0,0.0,0.0,0.0,0.0,0.0,0.0,0.0,-0.8085,-0.8075,-0.8065,-0.8041,-0.8038,-0.8038,-0.8038,-0.7916,-0.7845,-0.7845,-0.7845,-0.7845,-0.7845,-0.7974,-0.8038,-0.8038,-0.8038,-0.8038,-0.8038,-0.8038,-0.8038,-0.8038,0.0,-0.8038,-0.8038,-0.8038,-0.8038,-0.8038,-0.8038,-0.8038,-0.8038,-0.8038,-0.8137,-0.8407,0.0,0.0,0.0,0.0,0.0,0.0,0.0,0.0,0.0,0.0,0.0,0.0,0.0,0.0,0.0,0.0,0.0,0.0,0.0,0.0,0.0,-0.1074,-0.1789,-0.2305,-0.254,-0.294,-0.3274,-0.3475,-0.3798,-0.3993,-0.4096,-0.4415,-0.4646,-0.4812,-0.4928,-0.5049,-0.5182,-0.5467,-0.5599,-0.5631,0.0,0.0,0.0,0.0,0.0,0.0,0.0,0.0,0.0,0.0,-0.3307,-0.2808,-0.254,0.0,0.0,0.0,0.0,0.0,0.0043,0.0529,0.063,-0.046,-0.0501,-0.0224,0.0,0.0,0.0,0.0,0.0,0.0,0.0,0.0,0.0,0.0,0.0,0.0,0.0,0.0,0.0,0.0,0.0,-0.8028,-0.8038,-0.8038,-0.8038,-0.8038,-0.8038,-0.8038,-0.8038,-0.7892,-0.7811,-0.7811,-0.7736,-0.7695,-0.7695,-0.7767,-0.7841,-0.7916,-0.7997,-0.7994,-0.7919,-0.8001,-0.8038,-0.8038,0.0,-0.8038,-0.8038,-0.8038,-0.8038,-0.8038,-0.8038,-0.8038,-0.8028,-0.7946,-0.7868,-0.7876,0.0,0.0,0.0,0.0,0.0,0.0,0.0,0.0,0.0,0.0,0.0,0.0,0.0,0.0,0.0,0.0,0.0,0.0,0.0,0.0,-0.0435,-0.0672,-0.1268,-0.1798,-0.2236,-0.2704,-0.3098,-0.3377,-0.3663,-0.3928,-0.4091,-0.4321,-0.4518,-0.471,-0.4822,-0.5016,-0.5246,-0.5561,-0.5718,-0.5732,0.0,0.0,0.0,0.0,0.0,0.0,0.0,0.0,0.0,0.0,0.0,0.0,0.0,0.0,0.0,-0.0932,-0.0636,-0.0351,0.0331,0.0904,0.1025,-0.0046,0.0,0.0,0.0,0.0,0.0,0.0,0.0,0.0,0.0,0.0,0.0,0.0,0.0,0.0,-0.7731,-0.7865,-0.7909,-0.8024,-0.7906,-0.7858,-0.7974,-0.7957,-0.7936,-0.7936,-0.7936,-0.7936,-0.7936,-0.779,-0.7706,-0.7706,-0.7604,-0.7546,-0.7546,-0.7584,-0.7672,-0.7814,-0.7896,-0.7892,-0.7814,-0.7899,-0.7936,-0.7936,-0.7936,-0.7953,-0.7987,-0.7987,-0.7987,-0.7987,-0.7987,-0.7967,-0.7923,-0.7804,-0.7692,-0.7584,0.0,0.0,0.0,0.0,0.0,0.0,0.0,0.0,0.0,0.0,0.0,0.0,0.0,0.0,0.0,0.0,0.0,0.0,0.0,0.0,0.0034,0.0034,-0.0791,-0.1511,-0.2101,-0.2408,-0.2881,-0.3569,-0.3602,-0.3765,-0.4021,-0.3899,-0.4068,-0.4409,-0.4326,-0.4533,-0.5055,-0.5327,-0.5585,-0.5811,-0.6153,0.0,0.0,0.0,0.0,0.0,0.0,0.0,0.0,0.0,0.0,0.0,0.0,0.0,-0.1389,-0.0717,-0.0365,-0.0037,0.0738,0.1051,0.115,0.1202,0.0415,0.0,-0.2354,-0.2895,0.0,-0.3493,0.0,0.0,0.0,0.0,0.0,0.0,0.0,0.0,0.0,0.0,-0.8028,-0.8038,-0.7906,-0.7814,-0.7828,-0.7709,-0.7631,-0.7631,-0.7631,-0.7631,-0.7631,-0.7485,-0.7404,-0.7404,-0.7394,-0.7387,-0.7387,-0.7529,-0.7672,-0.7811,-0.7689,-0.7695,-0.7807,-0.7685,-0.7631,-0.7631,-0.7631,-0.7706,-0.7828,-0.7828,-0.7828,-0.7828,-0.7828,-0.7746,-0.7631,-0.7617,-0.7607,-0.7597,0.0,0.0,0.0,0.0,0.0,0.0,0.0,0.0,0.0,0.0,0.0,0.0,0.0,0.0,0.0,0.0,0.0,0.0,0.0,0.0,0.0165,-0.0032,-0.0449,-0.0967,-0.1531,-0.2161,-0.2694,-0.3096,-0.3405,-0.3597,-0.3761,-0.3669,-0.3807,-0.4145,-0.4218,-0.4551,-0.5074,-0.5383,-0.5696,-0.6014,-0.6307,-0.6551,0.0,0.0,0.0,0.0,0.0,0.0,0.0,0.0,-0.2753,-0.2329,0.0,-0.1544,-0.118,-0.0758,-0.0391,0.0037,0.0791,0.067,0.0265,-0.0189,-0.0485,0.0,0.0,-0.234,-0.3009,-0.3232,-0.354,0.0,0.0,0.0,0.0,0.0,0.0,0.0,0.0,0.0,-0.7896,-0.7896,-0.777,-0.7678,-0.7678,-0.7631,-0.76,-0.76,-0.76,-0.76,-0.76,-0.7455,-0.737,-0.737,-0.7278,-0.7227,-0.7227,-0.7285,-0.739,-0.7539,-0.758,-0.758,-0.7539,-0.758,-0.76,-0.76,-0.76,-0.7631,-0.7685,-0.7773,-0.776,-0.7678,-0.7678,-0.7648,-0.7587,-0.7492,-0.7458,-0.7444,0.0,0.0,0.0,0.0,0.0,0.0,0.0,0.0,0.0,0.0,0.0,0.0,0.0,0.0,0.0,0.0,0.0,0.0,0.0,0.0429,0.0227,0.0032,-0.0234,-0.0559,-0.0895,-0.1713,-0.2301,-0.2638,-0.3003,-0.3189,-0.3185,-0.323,-0.3389,-0.3679,-0.4065,-0.4535,-0.5062,-0.5529,-0.5913,-0.6221,-0.6543,-0.6717,0.0,0.0,0.0,0.0,0.0,0.0,0.0,0.0,-0.2524,-0.2099,0.0,0.0,-0.0942,-0.0672,-0.038,0.0072,0.0848,0.0414,-0.0357,-0.0723,0.0,0.0,-0.1943,-0.2236,-0.2623,-0.3407,-0.4164,0.0,0.0,0.0,0.0,0.0,0.0,0.0,0.0,0.0,-0.7743,-0.7743,-0.7614,-0.7529,-0.7529,-0.7482,-0.7455,-0.7455,-0.7455,-0.7455,-0.7455,-0.7356,-0.7299,-0.7299,-0.7193,-0.7139,-0.7139,-0.7139,-0.7193,-0.7299,-0.7404,-0.7424,-0.7373,-0.7428,-0.7455,-0.7455,-0.7455,-0.7482,-0.7536,-0.7631,-0.7614,-0.7522,-0.7475,-0.7455,-0.7441,-0.7336,-0.7329,-0.735,0.0,0.0,0.0,0.0,0.0,0.0,0.0,0.0,0.0,0.0,0.0,0.0,0.0,0.0,0.0,0.0,0.0,0.0,0.0938,0.0605,0.0379,0.0301,-0.015,-0.0363,-0.0307,-0.0965,-0.1612,-0.2307,-0.2421,-0.2421,-0.2304,-0.2579,-0.2774,-0.2941,-0.3725,-0.4385,-0.4945,-0.5687,-0.6137,-0.6435,-0.6829,-0.6843,-0.6566,0.0,0.0,0.0,0.0,0.0,0.0,0.0,-0.2635,-0.2029,0.0,0.0,0.0,-0.0471,-0.0269,0.0069,0.0953,0.0283,-0.0471,0.0,0.0,0.0,-0.4136,-0.3066,-0.2438,-0.4272,0.0,-0.6489,-0.5297,0.0,0.0,0.0,0.0,0.0,0.0,0.0,0.0,-0.7594,-0.7458,-0.7363,-0.7366,-0.7224,-0.7048,-0.7048,-0.7048,-0.7048,-0.7048,-0.7048,-0.7136,-0.7136,-0.7136,-0.7136,-0.7136,-0.7136,-0.7139,-0.7139,-0.7139,-0.7221,-0.7363,-0.721,-0.7139,-0.7139,-0.7139,-0.7227,-0.737,-0.737,-0.737,-0.7356,-0.72,-0.7139,-0.7139,-0.7139,-0.7238,-0.7346,0.0,0.0,0.0,0.0,0.0,0.0,0.0,0.0,0.0,0.0,0.0,0.0,0.0,0.0,0.0,0.0,0.0,0.0,0.1143,0.1027,0.0779,0.0317,0.0117,-0.0055,-0.0235,-0.07,-0.1285,-0.1949,-0.2035,-0.2093,-0.2173,-0.2233,-0.2501,-0.2909,-0.3396,-0.3993,-0.4665,-0.5461,-0.6039,-0.6418,-0.6645,-0.7018,-0.7375,0.0,0.0,0.0,0.0,0.0,0.0,0.0,0.0,0.0,-0.1512,0.0,-0.0571,-0.0437,-0.0603,-0.0684,-0.0081,-0.1152,0.0,0.0,0.0,0.0,0.0,-0.3391,0.0,0.0,0.0,-0.6284,-0.4789,0.0,0.0,0.0,0.0,0.0,0.0,0.0,0.0,0.0,-0.6081,-0.6294,-0.483,-0.5999,-0.6232,-0.478,-0.5975,-0.6486,-0.5715,-0.6401,-0.6831,-0.6831,-0.6831,-0.6831,-0.6831,-0.6939,-0.6993,-0.6993,-0.7092,-0.7166,-0.7207,-0.7163,-0.7139,-0.7139,-0.7139,-0.7166,-0.721,-0.721,-0.7275,-0.7356,-0.72,-0.7139,-0.7139,-0.7139,-0.717,-0.7204,0.0,0.0,0.0,0.0,0.0,0.0,0.0,0.0,0.0,0.0,0.0,0.0,0.0,0.0,0.0,0.0,0.0,0.0,0.0,0.0,0.1172,0.0683,0.0556,0.0363,0.0048,-0.0252,-0.0655,-0.121,-0.1466,-0.1619,-0.167,-0.1888,-0.2186,-0.2574,-0.3111,-0.3719,-0.4343,-0.4987,-0.5556,-0.6048,-0.6216,-0.6725,-0.729,0.0,0.0,0.0,0.0,0.0,0.0,0.0,0.0,0.0,-0.1676,0.0,0.0,-0.0601,-0.0785,-0.0964,-0.0577,-0.1771,0.0,0.0,0.0,0.0,0.0,0.0,0.0,0.0,0.0,0.0,0.0,0.0,0.0,0.0,0.0,0.0,0.0,0.0,0.0,0.0,-0.4765,-0.4941,-0.3688,-0.4772,-0.4941,-0.3688,-0.4772,-0.5191,-0.452,-0.5105,-0.5444,-0.5444,-0.5444,-0.5693,-0.6025,-0.6108,-0.6408,-0.6841,-0.6926,-0.6966,-0.697,-0.7088,-0.7139,-0.7139,-0.7139,-0.7139,-0.7139,-0.7139,-0.7193,-0.7272,-0.7177,-0.7139,-0.7139,-0.7139,-0.7139,-0.7139,0.0,0.0,0.0,0.0,0.0,0.0,0.0,0.0,0.0,0.0,0.0,0.0,0.0,0.0,0.0,0.0,0.0,0.0,0.0,0.0,0.1617,0.1284,0.1125,0.0872,0.0512,0.0356,0.0134,-0.0179,-0.076,-0.1031,-0.1017,-0.1519,-0.1832,-0.2019,-0.2806,-0.3448,-0.3948,-0.438,-0.4891,-0.5457,-0.5726,-0.6225,-0.6746,-0.6793,0.0,0.0,0.0,0.0,0.0,0.0,0.0,0.0,-0.209,-0.1662,-0.1154,-0.0892,-0.091,-0.1008,-0.0781,0.0,0.0,0.0,0.0,0.0,0.0,0.0,0.0,0.0,0.0,0.0,0.0,0.0,0.0,0.0,0.0,0.0,0.0,0.0,0.0,0.0,-0.3414,-0.3488,-0.3321,-0.3406,-0.3485,-0.3313,-0.3485,-0.3488,-0.3404,-0.3494,-0.358,-0.358,-0.358,-0.3993,-0.4904,-0.4997,-0.5587,-0.6513,-0.6612,-0.6702,-0.6709,-0.698,-0.7109,-0.7122,-0.7105,-0.7115,-0.7139,-0.7126,-0.7129,-0.7139,-0.7139,-0.7139,-0.7139,-0.7139,-0.7139,-0.7139,0.0,0.0,0.0,0.0,0.0,0.0,0.0,0.0,0.0,0.0,0.0,0.0,0.0,0.0,0.0,0.0,0.0,0.0,0.0,0.0,0.2127,0.169,0.1534,0.1424,0.1336,0.1064,0.0841,0.0731,-0.0178,-0.0761,-0.1005,-0.1221,-0.1525,-0.1854,-0.21,-0.2618,-0.3327,-0.3948,-0.4538,-0.5106,-0.5881,-0.6571,-0.721,-0.7531,-0.7643,0.0,0.0,0.0,0.0,0.0,0.0,0.0,-0.2308,-0.1749,-0.1154,-0.0926,-0.1114,-0.1455,0.0,-0.2621,0.0,0.0,0.0,0.0,0.0,0.0,0.0,0.0,0.0,0.0,0.0,0.0,0.0,0.0,0.0,0.0,0.0,0.0,0.0,0.0,-0.2214,-0.255,-0.0928,-0.2241,-0.253,-0.0903,-0.2293,-0.2858,-0.2087,-0.275,-0.3173,-0.3173,-0.3173,-0.3331,-0.3567,-0.4442,-0.5057,-0.5303,-0.6229,-0.6702,-0.6702,-0.6766,-0.6861,-0.6966,-0.6848,-0.6926,-0.7132,-0.7021,-0.7041,-0.7139,-0.7139,-0.7139,-0.7139,-0.7139,-0.7139,-0.7139,0.0,0.0,0.0,0.0,0.0,0.0,0.0,0.0,0.0,0.0,0.0,0.0,0.0,0.0,0.0,0.0,0.0,0.0,0.0,0.0,0.0,0.249,0.2302,0.219,0.212,0.1894,0.1651,0.1427,0.0803,0.0165,-0.0475,-0.0734,-0.1088,-0.1514,-0.1582,-0.2092,-0.2923,-0.3257,-0.3743,-0.4385,-0.4955,-0.5881,-0.6941,-0.7251,-0.774,-0.816,-0.7703,0.0,0.0,0.0,0.0,0.0,0.0,0.0,-0.1499,-0.1309,-0.1459,-0.1815,0.0,0.0,0.0,0.0,0.0,0.0,0.0,0.0,0.0,0.0,0.0,0.0,0.0,0.0,0.0,0.0,0.0,0.0,0.0,0.0,0.0,0.0,0.0,-0.1187,-0.0074,-0.0965,-0.1181,-0.0073,-0.1031,-0.141,-0.0891,-0.1351,-0.1812,-0.2189,-0.1812,-0.2039,-0.3018,-0.3211,-0.354,-0.4081,-0.4653,-0.4973,-0.5025,-0.6135,-0.6746,-0.6814,-0.6736,-0.679,-0.6922,-0.6851,-0.6861,-0.6936,-0.701,-0.7041,-0.7048,-0.7115,-0.7099,-0.7041,0.0,0.0,0.0,0.0,0.0,0.0,0.0,0.0,0.0,0.0,0.0,0.0,0.0,0.0,0.0,0.0,0.0,0.0,0.0,0.0,0.0,0.0,0.3157,0.2987,0.289,0.2767,0.2505,0.2121,0.1879,0.1352,0.0522,0.0,-0.0497,-0.0968,-0.1095,-0.1657,-0.251,-0.255,-0.2967,-0.3626,-0.3976,-0.494,-0.6241,-0.6683,-0.7482,-0.8322,-0.7724,-0.6895,-0.5923,-0.4883,0.0,0.0,0.0,0.0,-0.1946,-0.1689,-0.1698,-0.1835,0.0,0.0,0.0,0.0,0.0,0.0,0.0,0.0,0.0,0.0,0.0,0.0,0.0,0.0,0.0,0.0,0.0,0.0,0.0,0.0,0.0,0.0,0.0,0.0,0.0,0.0,0.0,0.0,0.0,0.0,0.0,0.0,-0.0364,-0.1018,-0.0364,-0.08,-0.2397,-0.189,-0.2035,-0.2835,-0.3045,-0.3106,-0.3168,-0.5165,-0.6201,-0.641,-0.6384,-0.6486,-0.6698,-0.6671,-0.6675,-0.6712,-0.6841,-0.6892,-0.6905,-0.7021,-0.699,-0.6892,0.0,0.0,0.0,0.0,0.0,0.0,0.0,0.0,0.0,0.0,0.0,0.0,0.0,0.0,0.0,0.0,0.0,0.0,0.0,0.0,0.0,0.3986,0.3737,0.3612,0.3661,0.3521,0.3305,0.3023,0.2654,0.2394,0.0,0.127,0.0506,0.0,-0.0365,-0.0978,-0.1772,-0.223,-0.2724,-0.3257,-0.4149,-0.4678,-0.5087,-0.6458,-0.7048,-0.7156,-0.716,-0.6665,-0.5868,-0.4977,-0.4204,0.0,0.0,0.0,-0.2239,-0.1807,-0.1384,-0.1149,0.0,0.0,0.0,0.0,0.0,0.0,0.0,0.0,0.0,0.0,0.0,0.0,0.0,0.0,0.0,0.0,0.0,0.0,0.0,0.0,0.0,0.0,0.0,0.0,0.0,0.0,0.0,0.0,0.0,0.0,0.0,0.0,-0.0073,-0.0146,-0.0073,-0.0146,-0.0364,-0.1164,-0.1672,-0.1818,-0.2698,-0.3072,-0.3085,-0.3402,-0.4151,-0.5119,-0.5015,-0.5648,-0.6692,-0.6559,-0.658,-0.6702,-0.6722,-0.6729,-0.6732,-0.6753,-0.6749,-0.6729,0.0,0.0,0.0,0.0,0.0,0.0,0.0,0.0,0.0,0.0,0.0,0.0,0.0,0.0,0.0,0.0,0.0,0.0,0.0,0.0,0.0,0.5274,0.5062,0.4742,0.4305,0.4507,0.4295,0.3661,0.3539,0.0,0.0,0.2731,0.2014,0.0,0.0527,-0.017,-0.1087,-0.1643,-0.2157,-0.2655,-0.3324,-0.3827,-0.4297,-0.529,-0.5822,-0.6045,-0.6011,-0.5819,-0.5465,-0.4602,-0.4052,-0.3706,-0.3335,0.0,0.0,0.0,-0.1616,0.0,-0.1628,0.0,0.0,0.0,0.0,0.0,0.0,0.0,0.0,0.0,0.0,0.0,0.0,0.0,0.0,0.0,0.0,0.0,0.0,0.0,0.0,0.0,0.0,0.0,0.0,0.0,0.0,0.0,0.0,0.0,0.0,0.0,-0.0206,-0.0733,-0.027,-0.0203,-0.0732,-0.0744,-0.0692,-0.0713,-0.114,-0.1364,-0.1382,-0.1398,-0.2318,-0.3895,-0.3801,-0.4157,-0.4666,-0.4594,-0.4626,-0.4758,-0.5395,-0.5671,-0.5761,-0.642,-0.6647,-0.6573,0.0,0.0,0.0,0.0,0.0,0.0,0.0,0.0,0.0,0.0,0.0,0.0,0.0,0.0,0.0,0.0,0.0,0.0,0.0,0.0,0.0,0.6874,0.6739,0.6271,0.5391,0.5611,0.5293,0.4428,0.0,0.0,0.3974,0.3948,0.3334,0.0,0.1437,0.0604,0.0,-0.0911,-0.1397,-0.1795,-0.224,-0.2741,-0.3319,-0.3942,-0.4401,-0.474,-0.4829,-0.4911,-0.4881,-0.4266,-0.3933,-0.3731,-0.3457,-0.2922,0.0,0.0,0.0,0.0,0.0,0.0,0.0,0.0,0.0,0.0,0.0,0.0,0.0,0.0,0.0,0.0,0.0,0.0,0.0,0.0,0.0,0.0,0.0,0.0,0.0,0.0,0.0,0.0,0.0,0.0,0.0,0.0,0.0,0.0,0.0,0.0,-0.0323,-0.0925,-0.0315,-0.0316,-0.0986,-0.0316,0.0,0.0,0.0,0.0,0.0,0.0,-0.0862,-0.2359,-0.263,-0.2887,-0.3071,-0.3067,-0.3096,-0.3181,-0.4053,-0.4414,-0.4581,-0.5479,-0.5696,-0.5689,0.0,0.0,0.0,0.0,0.0,0.0,0.0,0.0,0.0,0.0,0.0,0.0,0.0,1.107,1.1036,1.1059,1.0349,0.9527,0.8664,0.8761,0.8804,0.8662,0.8715,0.0,0.728,0.6837,0.6294,0.0,0.0,0.0,0.5274,0.4656,0.4254,0.4007,0.2377,0.1317,0.0669,0.0,0.0,0.0,0.0,0.0,0.0,0.0,0.0,0.0,0.0,-0.4181,-0.4094,-0.4235,-0.4027,-0.366,-0.3397,-0.2846,0.0,0.0,0.0,0.0,0.0,0.0,0.0,0.0,0.0,0.0,0.0,0.0,0.0,0.0,0.0,0.0,0.0,0.0,0.0,0.0,0.0,0.0,0.0,0.0,0.0,0.0,0.0,0.0,0.0,0.0,0.0,0.0,0.0,0.0,0.0,0.0,0.0,-0.0062,0.0,0.0,-0.0062,0.0,0.0,0.0,0.0,0.0,0.0,0.0,-0.0069,-0.0204,-0.1214,-0.2187,-0.3136,-0.3067,-0.31,-0.3107,-0.3179,-0.3207,-0.3209,-0.329,-0.3288,-0.3441,0.0,0.0,0.0,0.0,0.0,0.0,0.0,0.0,0.0,0.0,0.0,0.0,0.0,1.2281,1.216,1.1929,1.159,1.116,1.0546,1.0516,1.0498,1.0409,1.0254,0.9686,0.8642,0.8657,0.8098,0.0,0.0,0.5917,0.5466,0.5137,0.4659,0.4038,0.2856,0.2074,0.1586,0.0745,0.0,0.0,0.0,0.0,0.0,0.0,0.0,0.0,0.0,0.0,0.0,0.0,0.0,0.0,0.0,0.0,0.0,0.0,0.0,0.0,0.0,0.0,0.0,0.0,0.0,0.0,0.0,0.0,0.0,0.0,0.0,0.0,0.0,0.0,0.0,0.0,0.0,0.0,0.0,0.0,0.0,0.0,0.0,0.0,0.0,0.0,0.0,0.0,0.0,0.0,0.0,0.0,0.0,0.0,0.0,0.0,0.0,0.0,0.0,0.0,0.0,0.0,0.0,0.0,0.0,0.0,-0.0409,-0.077,-0.1141,-0.1115,-0.1123,-0.1183,-0.1893,-0.214,-0.2212,-0.2851,-0.312,-0.3117,0.0,0.0,0.0,0.0,0.0,0.0,0.0,0.0,0.0,0.0,0.0,0.0,0.0,0.0,1.3126,1.2925,1.279,1.259,1.2248,1.2153,1.2058,1.1926,1.1774,1.1124,0.9929,0.987,0.9223,0.0,0.0,0.0,0.0,0.554,0.5042,0.4392,0.3579,0.3022,0.0,0.0,0.0,0.1096,0.0,0.0,-0.0127,0.0,0.0,0.0,0.0,0.0,0.0,0.0,0.0,0.0,0.0,0.0,0.0,0.0,0.0,0.0,-0.0895,0.0,0.0,0.0,0.0,0.0,0.0,0.0,0.0,0.0,0.0,0.0,0.0,0.0,0.0,0.0,0.0,0.0,0.0,0.0,0.0,0.0,0.0,0.0,0.0,0.0,0.0,0.0,0.0,0.0,0.0,0.0,0.0,0.0,0.0,0.0,0.0,0.0,0.0,0.0,0.0,0.0,0.0,0.0,0.0,0.0,0.0,0.0,0.0,0.0,0.0,-0.0072,-0.0813,-0.1045,-0.1117,-0.1829,-0.2089,-0.2081,0.0,0.0,0.0,0.0,0.0,0.0,0.0,0.0,0.0,1.3665,0.0,0.0,0.0,0.0,0.0,1.4078,1.392,1.3786,1.3718,1.3594,1.3423,1.3226,1.3227,1.2566,1.1178,1.0439,0.956,0.0,0.0,0.0,0.0,0.0,0.5467,0.5322,0.4581,0.4182,0.403,0.0,0.3061,0.2759,0.0,0.1217,0.0689,0.0,0.0,0.0,-0.1047,-0.1342,0.0,-0.2946,0.0,0.0,0.0,0.0,0.0,0.0,0.0,0.0,0.0,0.0,0.0,0.0,0.0,0.0,0.0,0.0,0.0,0.0,0.0,0.0,0.0,0.0,0.0,0.0,0.0,0.0,0.0,0.0,0.0,0.0,0.0,0.0,0.0,0.0,0.0,0.0,0.0,0.0,0.0,0.0,0.0,0.0,0.0,0.0,0.0,0.0,0.0,0.0,0.0,0.0,0.0,0.0,0.0,0.0,0.0,0.0,0.0,0.0,0.0,0.0,0.0,0.0,0.0,0.0,0.0,-0.0151,0.0,0.0,0.0,0.0,0.0,0.0,0.0,0.0,0.0,0.0,0.0,0.0,1.4652,1.4151,1.3931,1.4096,1.4051,1.4038,1.4051,1.3973,1.3859,1.3706,1.3601,1.3176,1.2355,1.1646,1.0893,0.0,0.0,0.0,0.0,0.0,0.0,0.0,0.5944,0.587,0.5914,0.4149,0.0,0.3659,0.2515,0.1873,0.0,0.0,0.0,0.0,0.0,-0.1228,-0.1472,0.0,-0.2211,-0.1718,0.0,0.0,0.0,0.0,0.0,0.0,-0.1005,0.0,0.0,0.0,0.0,0.0,0.0,0.0,0.0,0.0,0.0,0.0,0.0,0.0,0.0,0.0,0.0,0.0,0.0,0.0,0.0,0.0,0.0,0.0,0.0,0.0,0.0,0.0,0.0,0.0,0.0,0.0,0.0,0.0,0.0,0.0,0.0,0.0,0.0,0.0,0.0,0.0,0.0,0.0,0.0,0.0,0.0,0.0,0.0,0.0,0.0,0.0,0.0,0.0,0.0,0.0,0.0,-0.0076,0.0,0.0,0.0,0.0,0.0,0.0,0.0,0.0,0.0,0.0,0.0,0.0,1.5762,1.4994,1.4584,1.4706,1.436,1.4154,1.4149,1.4037,1.3909,1.3789,1.3573,1.3159,1.2546,1.1948,1.1248,0.0,0.0,0.0,0.0,0.0,0.0,0.0,0.0,0.0,0.0,0.0,0.0,0.0,0.3538,0.0,0.0,0.1552,0.0996,0.0,0.0,0.0,-0.0919,-0.155,-0.1738,0.0,0.0,0.0,0.0,0.0,0.0,0.0,0.0,0.0,0.0,0.0,0.0,0.0,-0.0613,-0.1026,0.0,0.0,0.0,0.0,0.0,0.0,0.0,0.0,0.0,0.0,0.0,0.0,0.0,0.0,0.0,0.0,0.0,0.0,0.0,0.0,0.0,0.0,0.0,0.0,0.0,0.0,0.0,0.0,0.0,0.0,0.0,0.0,0.0,0.0,0.0,0.0,0.0,0.0,0.0,0.0,0.0,0.0,0.0,0.0,0.0,0.0,0.0,0.0,0.0,0.0,0.0,0.0,0.0,0.0,0.0,0.0,0.0,0.0,0.0,0.0,1.682,1.6805,1.6896,1.6038,1.5522,1.5683,1.4936,1.437,1.4217,1.4132,1.392,1.3573,1.3362,1.2932,1.2251,1.1679,1.1019,0.0,0.0,0.0,0.0,0.0,0.0,0.0,0.0,0.0,0.0,0.0,0.0,0.4094,0.455,0.3681,0.0,0.0,0.1841,0.1473,0.0505,0.0117,0.0058,-0.0502,-0.1062,0.0,0.0,0.0,0.0,0.0,-0.0653,0.0,0.0,0.0,0.0,0.0,0.0,0.0,-0.0285,-0.0923,-0.183,0.0,0.0,0.0,0.0,0.0,0.0,0.0,0.0,0.0,0.0,0.0,0.0,0.0,0.0,0.0,0.0,0.0,0.0,0.0,0.0,0.0,0.0,0.0,0.0,0.0,0.0,0.0,0.0,0.0,0.0,0.0,0.0,0.0,0.0,0.0,0.0,0.0,0.0,0.0,0.0,0.0,0.0,0.0,0.0,0.0,0.0,0.0,0.0,0.0,0.0,0.0,0.0,0.0,0.0,0.0,0.0,0.0,0.0,0.0,1.741,1.7361,1.7575,1.6634,1.6041,1.6217,1.6092,1.564,1.4863,1.5441,1.5085,1.343,1.3852,1.3615,1.2475,1.1812,1.1209,0.0,0.0,0.0,0.0,0.0,0.0,0.0,0.0,0.0,0.0,0.0,0.0,0.5689,0.4189,0.0,0.1613,0.0787,0.0392,0.0382,0.0783,0.0903,0.0947,0.1519,0.0773,-0.0266,0.0,0.0,0.0,-0.0077,0.0,0.0,0.0,0.0,0.0,0.0,0.0,0.0,-0.1354,-0.1219,-0.1221,0.0,0.0,0.0,0.0,0.0,0.0,0.0,0.0,0.0,0.0,0.0,0.0,0.0,0.0,0.0,0.0,0.0,0.0,0.0,0.0,0.0,0.0,0.0,0.0,0.0,0.0,0.0,0.0,0.0,0.0,0.0,0.0,0.0,0.0,0.0,0.0,0.0,0.0,0.0,0.0,0.0,0.0,0.0,0.0,0.0,0.0,0.0,0.0,0.0,0.0,0.0,0.0,0.0,0.0,0.0,0.0,0.0,0.0,0.0,1.8234,1.8057,0.0,0.0,0.0,0.0,0.0,0.0,0.0,1.4693,1.4606,1.4067,1.409,1.3658,1.2727,1.2246,1.168,1.1009,0.0,0.0,0.0,0.0,0.0,0.0,0.0,0.0,0.0,0.0,0.7715,0.625,0.5442,0.0,0.3159,0.2334,0.1928,0.1856,0.1809,0.1852,0.1916,0.2008,0.1736,0.0,0.0914,0.097,0.1088,0.0,0.0541,0.0524,0.0,0.0,0.0,-0.0306,0.0,0.0,0.0,-0.0952,-0.0998,-0.1871,-0.1282,-0.0655,-0.063,0.0,0.064,0.0,0.0,0.0,0.0,0.0,0.0,0.0,0.0,0.0,0.0,0.0,0.0,0.0,0.0,0.0,0.0,0.0,0.0,0.0,0.0,0.0,0.0,0.0,0.0168,0.056,0.056,0.056,0.056,0.0951,0.0684,0.0,0.0365,0.0314,0.0,0.0,0.0,0.0,0.0,0.0,0.0,0.0,0.0,0.0,1.9712,0.0,0.0,0.0,0.0,0.0,0.0,0.0,0.0,0.0,0.0,0.0,0.0,0.0,0.0,0.0,0.0,0.0,0.0,0.0,1.4465,1.482,1.4476,1.3956,1.3229,1.2909,1.2342,1.1536,0.0,0.0,0.0,0.0,0.0,0.0,0.0,0.0,0.0,0.0,0.0,0.651,0.0,0.5991,0.4709,0.4002,0.3785,0.3684,0.3007,0.2837,0.2835,0.2495,0.2507,0.2565,0.1516,0.1713,0.0,0.0,0.0,0.0,0.0,0.0,0.0,0.0,0.0,-0.0159,0.0,0.0,0.0,-0.1116,-0.0413,0.0181,0.0,0.0892,0.0,0.0,0.0,0.0,0.0,0.0,0.0,0.0,0.0,0.0,0.028,0.0112,0.0,0.0,0.0,0.0,0.0,0.0112,0.0168,0.0,0.0112,0.0225,0.0226,0.0225,0.062,0.1424,0.1349,0.1345,0.141,0.1973,0.1607,0.0535,0.1164,0.1074,0.0521,0.0533,0.0538,0.0471,0.0135,0.0,0.0,0.0,0.0,0.0,1.9452,1.9341,0.0,0.0,0.0,0.0,0.0,0.0,0.0,0.0,0.0,0.0,0.0,0.0,0.0,0.0,0.0,0.0,1.6366,0.0,0.0,1.5054,1.5638,1.5527,1.4419,1.3852,1.3286,1.2717,0.0,0.0,0.0,0.0,0.0,0.0,1.0905,0.0,0.0,0.0,0.8479,0.0,0.6508,0.5494,0.0,0.3197,0.3367,0.408,0.3789,0.3675,0.3793,0.0,0.376,0.2821,0.0,0.3387,0.3041,0.2713,0.0,0.0,0.0,0.0,0.0,0.0,0.0522,0.0,0.0,0.0,-0.0089,-0.0181,0.0,0.0583,0.0856,0.0,0.0,0.0,0.0,0.0,0.0,0.0,0.0,0.0,0.2339,0.2062,0.0,0.0448,0.0,0.0,0.0,0.0,0.0,0.0615,0.0671,0.0,0.0615,0.1021,0.1168,0.1021,0.1496,0.2493,0.2239,0.2154,0.2332,0.245,0.2375,0.2205,0.2458,0.2465,0.24,0.2407,0.241,0.221,0.0605,0.0,0.0,0.0,0.0,0.0,1.9456,1.9292,0.0,0.0,0.0,0.0,0.0,0.0,0.0,0.0,0.0,0.0,0.0,0.0,0.0,0.0,0.0,1.4328,0.0,0.0,0.0,0.0,0.0,0.0,1.2844,1.3267,1.326,1.2747,1.2688,0.0,0.0,0.0,0.0,0.0,1.0946,0.0,1.0145,0.0,0.7932,0.0,0.0,0.0,0.0,0.4645,0.4299,0.4677,0.4572,0.4623,0.4717,0.0,0.4376,0.0,0.0,0.0,0.0,0.0,0.0,0.0,0.0,0.0,0.0,0.0,0.0,0.0,0.1108,0.0,0.0667,0.0,0.0,0.0,0.0,0.0,0.0,0.0,0.2933,0.0,0.0,0.0,0.0,0.0,0.0,0.0,0.1558,0.0,0.0,0.0783,0.1284,0.1506,0.1453,0.1763,0.1782,0.1438,0.1815,0.2083,0.2111,0.2083,0.2457,0.3317,0.317,0.3152,0.3253,0.3677,0.343,0.2647,0.3124,0.3063,0.2678,0.2678,0.2678,0.2611,0.1877,0.1543,0.1476,0.094,0.0739,0.0673,1.9289,0.0,0.0,0.0,0.0,0.0,0.0,0.0,0.0,0.0,0.0,0.0,1.5257,1.6087,0.0,0.0,1.208,1.213,0.0,0.0,1.1931,0.0,0.0,0.0,0.0,0.0,1.3168,1.3153,0.0,0.0,0.0,0.0,0.0,0.0,0.0,1.0934,1.0141,0.0,0.7537,0.7187,0.6924,0.711,0.7325,0.5953,0.531,0.5196,0.5196,0.5267,0.5292,0.4619,0.4816,0.0,0.3885,0.0,0.5212,0.0,0.0,0.0,0.3656,0.0,0.0,0.0,0.0,0.0,0.0,0.0,0.0,0.0,0.0,0.0,0.0,0.0,0.2839,0.0,0.0,0.3701,0.0,0.0,0.0,0.0,0.0,0.0,0.0,0.0,0.0,0.0,0.0,0.2726,0.2565,0.2817,0.2811,0.2521,0.2843,0.3024,0.3047,0.3024,0.3409,0.4219,0.415,0.4136,0.4168,0.4726,0.44,0.3398,0.4009,0.3939,0.3413,0.3413,0.3413,0.3413,0.3413,0.3413,0.328,0.2143,0.1675,0.1608,1.8789,1.8878,0.0,0.0,0.0,0.0,0.0,0.0,0.0,0.0,0.0,0.0,0.0,0.0,0.0,0.0,0.0,1.2977,1.2826,0.0,1.3712,0.0,0.0,1.3458,0.0,0.0,0.0,0.0,0.0,0.0,0.0,0.0,0.0,0.0,1.3501,1.189,0.9159,0.9561,0.7863,0.4982,0.5137,0.5284,0.5588,0.0,0.6165,0.5422,0.5422,0.0,0.0,0.5362,0.5355,0.0,0.0,0.0,0.0,0.0,0.0,0.0,0.0,0.0,0.0,0.3926,0.0,0.0,0.0,0.0,0.2887,0.0,0.0,0.0,0.3025,0.3337,0.0,0.0,0.0,0.0,0.0,0.0,0.0,0.0,0.0,0.0,0.0,0.2805,0.0,0.0,0.2889,0.2998,0.2726,0.3613,0.3621,0.2521,0.3325,0.3799,0.3969,0.3802,0.4301,0.5342,0.4994,0.4927,0.5058,0.5058,0.5061,0.5011,0.5222,0.5355,0.5296,0.5296,0.5296,0.5296,0.5296,0.5296,0.509,0.3278,0.2678,0.2678,0.0,0.0,0.0,0.0,0.0,0.0,0.0,1.8809,0.0,0.0,0.0,0.0,0.0,1.5336,1.4135,0.0,0.0,1.0407,0.8997,1.0663,0.0,0.0,0.0,1.2696,0.0,0.0,0.0,0.0,0.0,0.0,0.0,0.0,0.0,0.0,0.0,1.1531,0.0,0.0,0.0,0.0,0.0,0.85,0.9112,0.0,0.6151,0.5428,0.5428,0.5428,0.0,0.5428,0.5428,0.5408,0.537,0.5579,0.5755,0.5529,0.567,0.0,0.0,0.0,0.4965,0.4016,0.0,0.0,0.0,0.0,0.0,0.0,0.0,0.0,0.0,0.0,0.0,0.0,0.0,0.0,0.0,0.0,0.0,0.0,0.0,0.0,0.0,0.0,0.0,0.0,0.4469,0.0,0.4443,0.4803,0.471,0.4114,0.4574,0.4906,0.495,0.4906,0.5062,0.5425,0.526,0.5237,0.5284,0.5284,0.5284,0.5287,0.5338,0.5428,0.5428,0.5428,0.5428,0.5428,0.5428,0.5428,0.5226,0.4015,0.3547,0.348,1.8838,0.0,0.0,0.0,0.0,0.0,0.0,0.0,0.0,0.0,1.8846,0.0,1.6428,0.0,1.4276,0.0,1.0802,1.005,0.8552,1.0013,0.0,0.8094,1.0501,0.0,0.0,0.0,0.0,0.0,0.0,1.504,0.0,0.0,0.0,0.0,0.0,1.2591,1.0929,1.0212,0.9539,0.0,0.0,1.0533,0.0,0.0,0.7852,0.6772,0.0,0.6338,0.6338,0.6338,0.6338,0.6338,0.6338,0.6559,0.6814,0.6628,0.6568,0.6375,0.5546,0.545,0.0,0.4531,0.4987,0.0,0.5042,0.0,0.4957,0.0,0.0,0.0,0.0,0.0,0.0,0.0,0.0,0.0,0.0,0.5032,0.0,0.0,0.0,0.0,0.0,0.0,0.0,0.4856,0.551,0.5766,0.0,0.5568,0.5461,0.4918,0.5206,0.5428,0.5428,0.5428,0.5428,0.5428,0.5428,0.5428,0.5428,0.5428,0.5428,0.5428,0.5428,0.5428,0.5428,0.5428,0.5428,0.5428,0.5428,0.5428,0.5296,0.4755,0.4483,0.435,1.9391,0.0,0.0,0.0,1.9379,0.0,0.0,0.0,1.9133,0.0,1.9554,1.8212,1.7774,1.645,1.4907,1.3184,1.2464,1.1914,1.1345,1.2086,0.0,0.0,0.9991,1.03,1.0527,0.0,0.0,0.0,0.0,0.0,0.0,0.0,0.0,0.0,1.5958,0.0,1.2721,1.2607,1.1352,0.965,1.109,1.1247,1.0775,1.1525,1.0853,0.9364,0.8393,0.8027,0.8027,0.8027,0.8027,0.8027,0.8042,0.8195,0.8441,0.8441,0.7845,0.7177,0.7168,0.6561,0.5863,0.5625,0.5771,0.0,0.0,0.0,0.5436,0.0,0.0,0.0,0.0,0.0,0.0,0.0,0.0,0.0,0.0,0.0,0.0,0.0,0.0,0.0,0.0,0.0,0.4982,0.5557,0.5925,0.5987,0.0,0.5972,0.5824,0.4979,0.5206,0.5428,0.5428,0.5428,0.5428,0.5428,0.5428,0.5428,0.5428,0.5428,0.5428,0.5428,0.5428,0.5428,0.5428,0.5428,0.5428,0.5428,0.5428,0.5428,0.5428,0.5428,0.5428,0.5296,1.987,2.0323,2.0631,0.0,1.9381,1.9208,0.0,0.0,0.0,0.0,2.0135,1.8844,1.8003,1.6516,1.5,1.3727,1.2903,0.0,0.0,0.0,0.0,1.1471,1.2134,1.2499,1.2405,1.3457,0.0,1.5541,0.0,0.0,1.71,0.0,0.0,0.0,0.0,0.0,1.4604,1.4485,1.3222,1.1297,1.0972,1.117,1.1589,0.0,1.1073,1.1044,0.8784,0.8027,0.8027,0.8027,0.8027,0.8052,0.822,0.8429,0.8538,0.8672,0.8654,0.8541,0.8369,0.8083,0.7729,0.764,0.7721,0.7739,0.0,0.0,0.0,0.0,0.0,0.0,0.0,0.0,0.0,0.0,0.0,0.0,0.0,0.0,0.0,0.5888,0.0,0.0,0.0,0.534,0.5533,0.5872,0.619,0.6282,0.5977,0.0,0.594,0.5457,0.5396,0.5428,0.5428,0.5428,0.5428,0.5428,0.5428,0.5428,0.5428,0.5428,0.5428,0.5428,0.5428,0.5428,0.5428,0.5428,0.5428,0.5428,0.5428,0.5428,0.5428,0.5428,0.5428,0.5379,2.0747,0.0,0.0,2.1244,0.0,0.0,2.0953,2.0329,0.0,2.1059,1.9654,0.0,1.8041,1.6678,1.5425,1.4542,1.4063,0.0,1.3284,0.0,0.0,1.2935,1.3015,1.307,1.3128,1.3661,0.0,1.561,0.0,0.0,1.7323,0.0,0.0,0.0,0.0,1.6807,1.6314,1.5316,1.4298,1.3348,1.2189,1.2112,0.0,1.2111,1.1869,1.1553,1.0048,0.9313,0.9128,0.9128,0.9128,0.9168,0.9423,0.9678,0.9834,1.0084,0.9859,0.9526,0.9559,0.8943,0.8235,0.84,0.8398,0.8329,0.8164,0.8259,0.8326,0.0,0.7591,0.7483,0.0,0.0,0.0,0.0,0.0,0.0,0.0,0.0,0.0,0.0,0.6001,0.0,0.0,0.5679,0.5726,0.6151,0.6362,0.6305,0.0,0.0,0.6142,0.564,0.5609,0.5747,0.605,0.5621,0.5522,0.5773,0.5526,0.5428,0.5428,0.5428,0.5428,0.5428,0.5428,0.5428,0.5428,0.5428,0.5428,0.5428,0.5428,0.5428,0.5428,0.5428,0.5428,0.5439,2.173,0.0,0.0,0.0,0.0,0.0,0.0,2.0604,0.0,2.0649,0.0,1.7602,1.7893,1.6804,1.5889,1.5449,0.0,1.5212,1.4832,1.4523,1.4332,1.4213,1.3421,1.3063,1.3341,1.329,1.389,0.0,0.0,0.0,0.0,0.0,0.0,0.0,0.0,0.0,0.0,1.5515,1.4771,1.4802,1.3446,1.3018,1.3286,1.3267,1.252,1.1423,1.1423,1.1102,1.0668,1.0628,1.0678,1.0668,1.0955,1.1223,1.149,1.183,1.1211,1.0417,1.0718,0.9622,0.8488,0.8756,0.8805,0.8751,0.8482,0.8573,0.8695,0.8435,0.8444,0.8562,0.0,0.0,0.0,0.0,0.0,0.0,0.0,0.0,0.0,0.0,0.0,0.0,0.0,0.0,0.5881,0.6412,0.6493,0.0,0.0,0.0,0.6498,0.5887,0.5835,0.6204,0.6857,0.5872,0.5625,0.6137,0.5629,0.5491,0.5557,0.5557,0.5557,0.5557,0.5557,0.5491,0.5428,0.5428,0.5428,0.5428,0.5428,0.5428,0.5428,0.5428,0.5428,0.5432,2.2398,0.0,0.0,0.0,0.0,2.3645,2.0332,2.0312,2.0552,2.0184,1.902,1.8018,1.7501,1.6609,1.5889,1.5449,1.541,0.0,0.0,0.0,0.0,1.5167,1.4983,1.4811,1.4511,1.4913,1.5406,0.0,0.0,0.0,0.0,0.0,0.0,0.0,0.0,0.0,1.6806,1.5359,0.0,1.2883,1.1825,1.1397,1.1473,1.1722,1.1614,1.1423,1.1423,1.1363,1.1236,1.0995,1.0915,1.0969,1.1263,1.1383,1.153,1.2071,1.1945,1.1585,1.1637,1.1222,1.0802,1.0846,1.0859,1.0846,1.0795,1.0648,1.0315,0.9583,0.9309,0.9072,0.8795,0.0,0.0,0.0,0.0,0.0,0.0,0.0,0.0,0.0,0.0,0.7565,0.0,0.0,0.0,0.0,0.0,0.0,0.0,0.0,0.7437,0.0,0.6549,0.0,0.0,0.0,0.5476,0.5709,0.5473,0.5749,0.6461,0.6461,0.6461,0.6461,0.6461,0.6075,0.5428,0.5428,0.5428,0.5428,0.5428,0.5428,0.5428,0.5428,0.5428,0.5463,0.0,0.0,0.0,0.0,0.0,0.0,0.0,2.0327,1.9814,1.9083,1.8342,1.7771,1.7388,1.6608,1.6074,1.6094,1.5674,1.5508,1.5732,1.5537,1.541,1.541,1.541,1.5312,1.5117,1.4814,1.5342,1.6755,0.0,0.0,0.0,0.0,0.0,0.0,0.0,1.7396,0.0,0.0,0.0,1.3487,1.2695,1.2598,1.2923,1.3082,1.3248,1.3329,1.2783,1.2572,1.2438,1.1499,1.1216,1.1269,1.1563,1.1657,1.1744,1.2171,1.2098,1.1904,1.2051,1.1764,1.1463,1.1617,1.1657,1.1617,1.1463,1.1436,1.1334,1.0695,1.0381,1.004,0.9558,0.9583,0.0,0.0,0.0,0.0,0.0,0.0,0.0,0.0,0.0,0.0,0.0,0.0,0.0,0.0,0.0,0.0,0.0,0.0,0.7735,0.0,0.0,0.0,0.731,0.0,0.6872,0.7149,0.6872,0.6985,0.7372,0.7372,0.7372,0.7372,0.7372,0.7116,0.6728,0.6272,0.6075,0.6009,0.5557,0.5428,0.5428,0.5428,0.5428,0.5449,0.0,2.5193,0.0,0.0,2.4425,0.0,2.1724,2.0407,1.9168,1.8024,1.7588,1.7344,1.7256,1.6621,1.6309,1.6562,1.6035,1.5762,1.5918,1.5693,1.5508,1.542,1.541,1.541,1.541,1.4478,1.4984,0.0,0.0,0.0,0.0,0.0,0.0,0.0,0.0,0.0,0.0,0.0,1.4266,1.4257,1.3941,1.4172,1.4695,1.477,1.4977,1.5092,1.4314,1.4027,1.3807,1.2591,1.1909,1.1563,1.1797,1.187,1.1924,1.2218,1.2098,1.1917,1.2144,1.187,1.1577,1.181,1.1917,1.1904,1.1663,1.1744,1.1784,1.149,1.1142,1.0816,1.0352,1.0284,0.0,0.0,0.0,0.0,0.0,0.0,0.0,0.0,0.0,0.0,0.8106,0.0,0.0,0.0,0.0,0.0,0.7389,0.0,0.0,0.0,0.0,0.8403,0.8246,0.0,0.8138,0.8497,0.8133,0.8091,0.8291,0.8291,0.8291,0.8291,0.8291,0.8156,0.7962,0.7242,0.685,0.6654,0.5943,0.5557,0.5428,0.5428,0.5428,0.5428,0.0,0.0,0.0,0.0,0.0,0.0,2.1001,2.0419,1.9629,1.7734,1.7402,1.7236,1.6836,1.6719,1.6523,1.6152,1.6426,1.6289,1.5518,1.5801,1.582,1.543,1.541,1.541,1.541,1.4943,1.5144,0.0,0.0,1.695,0.0,0.0,0.0,0.0,0.0,0.0,0.0,1.5134,1.4841,1.3713,1.438,1.462,1.472,1.5052,1.5201,1.5163,1.5092,1.5092,1.5013,1.4877,1.3517,1.183,1.1864,1.187,1.1924,1.2218,1.2098,1.1877,1.1904,1.187,1.1837,1.1864,1.2064,1.2251,1.2225,1.2037,1.1784,1.149,1.0982,1.0638,1.0557,1.0506,1.052,0.0,0.0,0.0,0.0,0.0,1.0132,0.906,0.0,0.0,0.0,0.8689,0.0,0.0,0.7975,0.0,0.0,0.0,0.0,0.933,0.8976,0.8909,0.9259,0.8348,0.8021,0.8204,0.8103,0.842,0.9204,0.9204,0.9204,0.9204,0.9204,0.8748,0.8027,0.7897,0.7437,0.6719,0.6588,0.6075,0.5428,0.5428,0.5428,0.5428,0.0,0.0,0.0,0.0,0.0,0.0,0.0,2.0873,1.9445,1.8674,1.8078,1.7695,1.7519,1.7275,1.7148,1.7227,1.6924,1.6519,1.623,1.6113,1.5869,1.543,1.541,1.541,1.541,1.5244,1.5592,0.0,0.0,0.0,0.0,0.0,0.0,0.0,0.0,1.681,1.543,1.5554,1.5396,1.5195,1.5996,1.648,1.6711,1.6807,1.6872,1.6793,1.6219,1.607,1.593,1.5376,1.464,1.3892,1.3892,1.3472,1.3006,1.3135,1.3078,1.2985,1.2985,1.3401,1.3892,1.3892,1.3991,1.4019,1.4019,1.3991,1.3658,1.2716,1.1618,1.0768,1.0658,1.0609,1.0642,1.0911,0.0,0.0,0.0,0.0,0.0,1.0046,0.0,1.0113,0.0,0.0,0.0,0.0,0.0,0.0,0.0,0.0,0.0,0.9376,0.0,0.9673,0.9169,0.9467,0.9513,0.9433,0.9558,0.9716,1.011,1.011,1.011,1.011,1.011,0.9913,0.9518,0.9005,0.8549,0.8221,0.7697,0.692,0.6203,0.6203,0.5881,0.5428,2.623,0.0,2.6877,0.0,2.5062,2.3816,2.3816,2.1493,1.9671,1.9554,1.8869,1.8269,1.8008,1.7744,1.7637,1.7812,1.7383,1.7002,1.6748,1.6553,1.626,1.582,1.5801,0.0,1.5801,1.5801,1.6078,1.6705,1.8049,0.0,0.0,0.0,0.0,0.0,1.7265,1.6748,1.6126,1.6103,1.6197,1.6533,1.7301,1.7744,1.8008,1.8008,1.8008,1.794,1.7285,1.6991,1.6922,1.6228,1.6018,1.5948,1.5376,1.4736,1.4171,1.4171,1.4171,1.4171,1.4171,1.4665,1.5234,1.5234,1.5234,1.5234,1.5234,1.5234,1.4923,1.3948,1.2662,1.1689,1.1531,1.1423,1.1326,1.1381,0.0,0.0,0.0,1.0939,0.0,0.0,1.066,1.0509,1.0509,1.0159,0.0,0.0,0.0,0.0,0.0,0.0,0.0,0.0,0.0,0.0,0.9541,1.0324,1.0601,1.0363,1.0524,1.0624,1.0624,1.0624,1.0624,1.0624,1.0624,1.0624,1.0555,0.9913,0.953,0.9268,0.8619,0.7827,0.7046,0.6785,0.6334,0.5752,2.6574,2.6593,2.6514,2.6011,2.4767,2.3816,2.3816,2.195,2.0445,2.0122,1.9649,1.8977,1.8066,1.8008,1.7842,1.7432,1.7764,1.7637,1.6787,1.7129,1.7168,0.0,0.0,1.6655,1.6655,1.6655,1.6719,1.6719,0.0,0.0,1.7863,0.0,1.8489,1.6694,1.7826,1.7328,1.5606,1.6843,1.7383,1.7422,1.7842,1.8008,1.8008,1.8008,1.8008,1.8008,1.8008,1.8008,1.8008,1.794,1.794,1.7657,1.5799,1.5163,1.5163,1.5163,1.5163,1.5163,1.5163,1.5163,1.5234,1.5234,1.5234,1.5234,1.5234,1.5234,1.5126,1.4753,1.4106,1.36,1.3529,1.324,1.2769,1.2091,0.0,0.0,0.0,0.0,0.0,1.165,1.1093,1.0695,1.0695,1.0428,0.0,0.0,0.0,0.0,0.0,0.0,0.0,1.0854,1.0887,0.0,1.088,1.0781,1.0694,1.0618,1.0618,1.0624,1.0624,1.0624,1.0624,1.0624,1.0624,1.0624,1.0624,1.0561,1.011,0.9274,0.9274,0.8748,0.7897,0.7046,0.6719,0.6588,2.6544,2.6506,2.6506,2.6327,2.562,2.4908,2.4556,2.3055,2.1882,2.1376,2.068,2.0074,1.9814,1.8721,1.7959,0.0,1.793,1.7773,0.0,1.7305,1.7187,1.6748,1.6665,1.6665,1.6665,1.6665,1.6665,1.6665,0.0,0.0,0.0,1.8544,1.8011,1.7158,1.7797,1.7782,1.7255,1.761,1.7812,1.7822,1.7959,1.8008,1.8008,1.8008,1.8008,1.8008,1.8008,1.8008,1.8008,1.8008,1.8008,1.7872,1.7295,1.6645,1.614,1.614,1.614,1.614,1.614,1.6645,1.7079,1.7079,1.7079,1.7079,1.7079,1.6437,1.5707,1.5318,1.4384,1.3526,1.3223,1.3083,1.2999,1.3021,1.2414,0.0,1.3111,0.0,1.1597,1.2301,1.1655,1.1107,1.0888,1.0632,0.0,0.0,0.0,0.0,0.0,0.0,0.0,0.0,1.0766,0.0,1.0704,1.0728,1.0646,1.0624,1.0624,1.0624,1.0624,1.0624,1.0624,1.0624,1.0624,1.0624,1.0624,1.0624,1.0428,1.0174,1.0174,0.9658,0.8877,0.8549,0.8091,0.7567,2.6514,2.6533,2.6395,2.5912,2.5548,2.5121,2.4594,2.3564,2.2708,2.2261,2.1544,2.0974,2.0655,1.9628,0.0,1.8977,1.8977,1.8864,1.8651,1.8565,1.8312,1.7714,1.7704,1.7521,1.7217,1.7217,0.0,1.7217,1.8216,1.8664,1.8664,1.8198,1.7871,1.7627,1.7891,1.8008,1.8008,1.8008,1.8008,1.8008,1.8008,1.8008,1.8008,1.8008,1.8008,1.8008,1.8008,1.8008,1.8008,1.8008,1.8008,1.8008,1.8008,1.7579,1.7139,1.7139,1.7139,1.7139,1.7139,1.7569,1.8008,1.8008,1.8008,1.8008,1.8008,1.7245,1.6524,1.6272,1.5314,1.4471,1.4232,1.4012,1.3865,1.3763,1.316,1.2973,1.374,0.0,1.2291,0.0,0.0,0.0,0.0,1.1688,1.1636,0.0,0.0,0.0,0.0,0.0,0.0,1.0858,1.0821,1.0742,1.0629,1.0674,1.0676,1.0624,1.0624,1.0678,1.0722,1.0672,1.0624,1.0624,1.0624,1.0624,1.0624,1.0624,1.0624,1.0624,1.0624,1.0301,0.9722,0.9402,0.8941,0.842,2.6533,2.6533,2.6138,0.0,2.4895,0.0,2.4142,2.3565,2.3046,2.2747,2.23,2.1678,2.0846,2.0782,2.0782,2.0782,0.0,0.0,2.0526,2.0462,2.0074,1.9243,1.9233,1.8854,1.8008,1.8008,1.8008,1.8008,1.8008,1.8008,1.8008,1.8008,1.8008,1.8008,1.8008,1.8008,1.8008,1.8008,1.8008,1.8008,1.8008,1.8008,1.8008,1.8008,1.8008,1.8008,1.8008,1.8008,1.8008,1.8008,1.8008,1.8008,1.8008,1.8008,1.8008,1.8008,1.8008,1.8008,1.8008,1.8008,1.8008,1.8008,1.8008,1.8008,1.8008,1.7686,1.7373,1.7344,1.666,1.6115,1.6086,1.5684,1.5167,1.4392,1.4273,1.4041,1.365,1.3292,1.3327,0.0,0.0,0.0,1.3459,1.3314,1.3177,0.0,0.0,0.0,0.0,0.0,1.0758,1.1054,1.1005,1.0857,1.0664,1.0732,1.0697,1.0624,1.0645,1.0735,1.0982,1.0735,1.0672,1.0651,1.0651,1.0645,1.0624,1.0645,1.0645,1.0624,1.0645,1.0651,1.0524,0.9664,0.9414,0.9291,0.0,0.0,2.6445,2.6113,2.5711,2.5234,2.4707,2.4155,2.3616,2.3059,2.2898,2.2763,2.2494,2.2506,2.2506,2.2506,2.0707,1.9628,1.9628,1.8977,1.8529,1.8337,1.8337,1.8202,1.8008,1.8008,1.8008,1.8008,1.8008,1.8008,1.8008,1.8008,1.8008,1.8008,1.8008,1.8008,1.8008,1.8008,1.8008,1.8008,1.8008,1.8008,1.8008,1.8008,1.8008,1.8008,1.8008,1.8008,1.8008,1.8008,1.8008,1.8008,1.8008,1.8008,1.8008,1.8008,1.8008,1.8008,1.8008,1.8008,1.8008,1.8008,1.8008,1.8008,1.8008,1.7686,1.7285,1.6953,1.6445,1.5957,1.5625,1.5478,1.5352,1.5177,1.4628,1.4322,1.4649,1.4101,1.3695,0.0,1.3801,1.3543,1.3151,1.3101,1.3154,0.0,0.0,0.0,1.2982,1.292,1.2219,1.078,1.125,1.1287,1.0635,1.1236,1.121,1.0624,1.0782,1.0929,1.0995,1.1149,1.1102,1.0895,1.0895,1.0768,1.0645,1.0795,1.0755,1.0645,1.0808,1.0895,1.0862,1.045,1.0438,1.0529,2.6533,2.6533,2.6445,2.6113,2.5799,2.5335,2.4556,2.4192,2.3791,2.3153,2.3078,2.3078,2.3078,2.3078,2.3078,2.3078,2.1854,2.1026,2.1026,2.0568,2.0193,1.9814,1.9759,1.9628,1.9177,1.9177,1.9177,1.9177,1.9177,1.9177,1.9177,1.8787,1.8596,1.8596,1.8212,1.8008,1.8008,1.8008,1.8008,1.8008,1.8008,1.8008,1.8008,1.8008,1.8008,1.8008,1.8008,1.8008,1.8008,1.8008,1.8008,1.8008,1.8008,1.8008,1.8008,1.8008,1.8008,1.8008,1.8008,1.8008,1.8008,1.8008,1.8008,1.8008,1.8008,1.7529,1.7021,1.6777,1.6221,1.5693,1.5459,1.541,1.541,1.541,1.5262,1.532,1.5669,1.5332,1.5004,1.5089,1.4775,1.4393,1.4109,1.4085,1.4223,1.4611,1.4529,0.0,1.4288,1.4463,1.3459,1.1204,1.2296,1.2206,1.0624,1.1121,1.1261,1.0955,1.1116,1.1263,1.1396,1.1416,1.1336,1.1182,1.1049,1.0902,1.0755,1.0782,1.0782,1.0775,1.0929,1.0995,1.0975,1.0815,1.0775,1.0775,2.6533,2.6458,2.6176,2.5686,2.5523,2.5146,2.4155,2.4004,2.3791,2.3153,2.3078,2.3078,2.3078,2.3078,2.3078,2.3078,2.3078,2.3078,2.2944,2.2823,2.2445,2.1741,2.169,2.1365,2.059,2.059,2.059,2.059,2.059,2.059,2.059,1.9694,1.9365,1.9431,1.8596,1.8202,1.8202,1.8337,1.8337,1.8202,1.8327,1.8337,1.8202,1.8202,1.8144,1.8008,1.8144,1.8202,1.8202,1.8337,1.8337,1.8202,1.8202,1.8202,1.8202,1.8202,1.8269,1.8337,1.8076,1.8008,1.8008,1.8008,1.8008,1.8008,1.8008,1.7353,1.6665,1.6665,1.6074,1.5488,1.542,1.5469,1.5527,1.5496,1.6011,1.6372,1.6395,0.0,1.6426,1.6393,1.5895,1.5537,1.5605,1.5615,1.5762,1.6133,1.6227,1.6118,1.5714,1.577,1.4757,1.2317,1.3688,1.3396,1.1135,1.1255,1.131,1.1423,1.147,1.1623,1.1864,1.1657,1.1536,1.1476,1.1182,1.1035,1.0982,1.0775,1.0782,1.0942,1.1076,1.1096,1.1056,1.1009,1.0895,1.0806,2.6533,2.6063,2.5699,2.5611,2.5234,2.4732,2.4092,2.4004,2.3791,2.3153,2.3078,2.3078,2.3078,2.3078,2.3078,2.3078,2.3078,2.2823,2.2137,2.1428,2.091,2.0782,2.0782,2.0719,2.059,2.059,2.059,2.059,2.059,2.059,2.059,1.9694,1.9694,2.0333,1.9497,1.911,1.9177,1.9879,1.9748,1.9177,1.9879,1.9748,1.911,1.911,1.8664,1.8076,1.8844,1.911,1.9233,1.9944,1.9694,1.911,1.911,1.911,1.911,1.911,1.9628,1.9879,1.8395,1.8008,1.8008,1.8008,1.8008,1.8008,1.8008,1.7353,1.6665,1.6665,1.6318,1.585,1.5478,1.5713,1.5999,1.609,1.6267,1.6299,1.6024,0.0,1.6256,1.5933,1.5982,1.6113,1.6494,1.6523,1.6553,1.6621,1.6625,1.6602,1.6466,1.686,1.6421,1.4897,1.516,1.4742,1.359,1.2935,1.219,1.143,1.1683,1.1824,1.1877,1.2071,1.2031,1.1784,1.1483,1.1223,1.1009,1.1209,1.1029,1.0766,1.1443,1.1577,1.1329,1.1082,1.1276,1.1563,2.6533,2.6251,2.6063,2.6063,2.5862,2.5423,2.4569,2.4443,2.413,2.319,2.3078,2.3078,2.3078,2.3078,2.3078,2.3078,2.3078,2.2944,2.2567,2.2187,2.1928,2.1928,2.1928,2.1928,2.1928,2.1928,2.1928,2.1928,2.1928,2.1928,2.1928,2.1101,2.091,2.1239,2.0398,2.0009,2.0009,2.0398,2.0398,2.0009,2.0462,2.0333,2.0009,2.0009,1.9759,1.9431,1.989,2.0009,2.0074,2.0462,2.0333,2.0009,2.0009,2.0009,2.0009,2.0009,2.0268,2.0398,1.9628,1.9044,1.8721,1.8721,1.8337,1.8134,1.8596,1.7965,1.7326,1.7388,1.6839,1.6115,1.5508,1.5576,1.5966,1.6699,1.659,0.0,1.7157,1.6945,1.6689,1.6525,1.6445,1.6504,1.6709,1.6665,1.6826,1.7061,1.708,1.7154,1.7367,1.7566,1.7453,1.6821,1.5512,1.4963,1.5164,1.4303,1.3635,1.3157,1.349,1.3656,1.3656,1.3807,1.3512,1.2856,1.2379,1.1817,1.1209,1.1035,1.0895,1.0848,1.141,1.1888,1.2151,1.1472,1.1627,1.2045,2.6533,2.642,2.6264,2.6264,2.6264,2.5937,2.4971,2.482,2.4456,2.3464,2.3165,2.3078,2.3078,2.3078,2.3078,2.3078,2.3078,2.3078,2.3078,2.3078,2.3078,2.3078,2.3078,2.3078,2.3078,2.3078,2.3078,2.3078,2.3078,2.3078,2.3065,2.2261,2.2013,2.2125,2.129,2.091,2.091,2.1101,2.1101,2.091,2.1101,2.1037,2.091,2.091,2.0782,2.0655,2.0846,2.091,2.091,2.1101,2.1037,2.091,2.091,2.091,2.091,2.091,2.1037,2.1101,2.0719,2.0139,1.9628,1.9628,1.911,1.8787,1.9431,1.8913,1.8286,1.8251,1.7643,1.6848,1.6066,1.5886,1.6155,1.7137,0.0,1.6899,1.7875,1.7506,1.7151,1.7194,1.6971,1.6924,1.7021,1.7031,1.7207,1.7646,1.7676,1.7861,1.8281,1.8311,1.8262,1.8154,1.6178,1.5477,1.6242,1.5496,1.5017,1.4819,1.5093,1.5234,1.5234,1.5234,1.4807,1.3996,1.3546,1.2833,1.1988,1.1581,1.1439,1.1502,1.1882,1.2385,1.292,1.2119,1.2211,1.2592,2.6533,2.6025,2.5661,2.5661,2.5661,2.5473,2.4908,2.482,2.4607,2.4017,2.3477,2.3078,2.3078,2.3078,2.3078,2.3078,2.3078,2.3078,2.3078,2.3078,2.3078,2.3078,2.3078,2.3078,2.3078,2.3078,2.3078,2.3078,2.3078,2.3078,2.3065,2.2261,2.2322,2.3005,2.2199,2.1815,2.1877,2.2628,2.2506,2.1877,2.2628,2.2445,2.1815,2.1815,2.1302,2.0719,2.1491,2.1815,2.1939,2.2689,2.2445,2.1815,2.1815,2.1815,2.1815,2.1815,2.231,2.2567,2.1037,2.0526,2.0526,2.0526,2.0462,2.0398,2.0462,2.0113,1.9599,1.9141,1.8937,1.8603,1.7634,1.7231,1.7116,1.7251,0.0,0.0,1.6894,1.7305,1.749,1.7377,1.736,1.749,1.7881,1.792,1.8086,1.8516,1.8545,1.873,1.917,1.9189,1.9004,1.8603,1.8007,1.7357,1.6591,1.6522,1.6027,1.5192,1.5217,1.5234,1.5234,1.5234,1.5163,1.5067,1.475,1.432,1.3884,1.3827,1.3436,1.2932,1.3494,1.3558,1.3324,1.326,1.3453,1.3688,2.6533,2.6345,2.6138,2.6138,2.6138,2.5937,2.5385,2.531,2.5109,2.4582,2.4318,2.4054,2.3703,2.3665,2.3527,2.3103,2.3078,2.3078,2.3078,2.3078,2.3078,2.3078,2.3078,2.3078,2.3078,2.3078,2.3078,2.3078,2.3078,2.3078,2.3078,2.2823,2.2823,2.3078,2.2763,2.2628,2.2628,2.2944,2.2944,2.2689,2.3005,2.2944,2.2628,2.2628,2.2433,2.2175,2.2506,2.2628,2.2702,2.3017,2.2884,2.2628,2.2628,2.2628,2.2628,2.2628,2.2884,2.2944,2.231,2.1803,2.1428,2.1428,2.0974,2.0719,2.1302,2.0958,2.0435,1.9995,1.989,1.9553,1.8397,1.8344,1.8755,1.9612,0.0,1.7878,1.8634,1.7977,1.7653,1.8073,1.8158,1.8419,1.9107,1.8984,1.8867,1.9023,1.9043,1.9111,1.9277,1.9287,1.9209,1.9043,1.8887,1.8521,1.7881,1.7811,1.7661,1.73,1.706,1.6941,1.6941,1.6941,1.6645,1.6053,1.5727,1.5145,1.4446,1.3998,1.3783,1.383,1.3974,1.4461,1.4998,1.4405,1.4688,1.5138,2.6533,2.6533,2.6533,2.6533,2.6533,2.6395,2.5925,2.5711,2.5473,2.5109,2.4921,2.4669,2.4293,2.4104,2.3841,2.3439,2.3238,2.3078,2.3078,2.3078,2.3078,2.3078,2.3078,2.3078,2.3078,2.3078,2.3078,2.3078,2.3078,2.3078,2.3078,2.3078,2.3078,2.3078,2.3078,2.3078,2.3078,2.3078,2.3078,2.3078,2.3078,2.3078,2.3078,2.3078,2.3078,2.3078,2.3078,2.3078,2.3078,2.3078,2.3078,2.3078,2.3078,2.3078,2.3078,2.3078,2.3078,2.3078,2.3078,2.2702,2.2261,2.2261,2.1803,2.1542,2.2125,2.1958,2.1535,2.1073,2.0976,2.0692,1.9641,1.9541,1.9936,2.0831,1.9629,1.8912,1.9757,1.9068,1.8589,1.9137,1.9106,1.9371,2.0311,1.999,1.997,2.0401,2.0121,1.9899,1.9762,1.9561,1.9482,1.9482,1.9482,1.9336,1.9043,1.8906,1.8848,1.8838,1.8408,1.8213,1.8203,1.8076,1.7647,1.7051,1.6773,1.6233,1.5534,1.5006,1.4883,1.5006,1.4941,1.5501,1.6196,1.5593,1.5725,1.6159,2.6533,2.6533,2.6533,2.6533,2.6533,2.6533,2.6533,2.5975,2.5598,2.5598,2.5159,2.4833,2.4833,2.4343,2.4004,2.4004,2.3477,2.3078,2.3078,2.3078,2.3078,2.3078,2.3078,2.3078,2.3078,2.3078,2.3078,2.3078,2.3078,2.3078,2.3078,2.3078,2.3078,2.3078,2.3078,2.3078,2.3078,2.3078,2.3078,2.3078,2.3078,2.3078,2.3078,2.3078,2.3078,2.3078,2.3078,2.3078,2.3078,2.3078,2.3078,2.3078,2.3078,2.3078,2.3078,2.3078,2.3078,2.3078,2.3078,2.3078,2.3078,2.3078,2.3078,2.3078,2.3078,2.3078,2.2975,2.2422,2.2309,2.2146,2.1594,2.0905,2.0435,2.0447,2.0141,1.9913,1.9924,2.0351,2.0602,2.0602,2.0234,2.0322,2.133,2.1036,2.1381,2.2775,2.201,2.1205,2.0615,2.0156,1.9922,1.9922,1.9922,1.9922,1.9922,1.9502,1.9287,1.9287,1.8848,1.8643,1.8623,1.8203,1.8018,1.8018,1.8008,1.7773,1.7393,1.7383,1.7129,1.6685,1.6665,1.6675,1.6685,1.6738,1.6738,1.6685,2.6533,2.6533,2.6533,2.6533,2.6533,2.6533,2.6533,2.6382,2.6201,2.6201,2.6063,2.5812,2.541,2.4895,2.4418,2.4029,2.3477,2.3078,2.3078,2.3078,2.3078,2.3078,2.3078,2.3078,2.3078,2.3078,2.3078,2.3078,2.3078,2.3078,2.3078,2.3078,2.3078,2.3078,2.3078,2.3078,2.3078,2.3078,2.3078,2.3078,2.3078,2.3078,2.3078,2.3078,2.3078,2.3078,2.3078,2.3078,2.3078,2.3078,2.3078,2.3078,2.3078,2.3078,2.3078,2.3078,2.3078,2.3078,2.3078,2.3078,2.3078,2.3078,2.3078,2.3078,2.3078,2.3078,2.2975,2.2422,2.2623,2.2723,2.2171,2.2197,2.2404,2.2873,2.2029,2.1577,2.2303,2.169,2.1504,2.2531,2.2264,2.236,2.3269,2.2939,2.2855,2.329,2.301,2.2772,2.2627,2.2498,2.2422,2.2422,2.2422,2.2126,2.1388,2.0297,1.9727,1.9727,1.9297,1.9092,1.9082,1.8652,1.8447,1.8437,1.8135,1.7939,1.7803,1.75,1.748,1.7568,1.6963,1.71,1.7598,1.7295,1.7373,1.7627,2.6791,2.6791,2.6791,2.6791,2.6791,2.6716,2.6559,2.6533,2.6533,2.6533,2.6533,2.6327,2.5975,2.5448,2.4996,2.4657,2.3916,2.3376,2.309,2.3078,2.3078,2.3078,2.3351,2.3364,2.3078,2.3516,2.3516,2.3078,2.3364,2.3364,2.3078,2.3078,2.3078,2.3078,2.3078,2.3078,2.309,2.3376,2.3339,2.309,2.3389,2.3339,2.3078,2.3078,2.3078,2.3078,2.3078,2.3078,2.3078,2.3078,2.3078,2.3078,2.3078,2.3078,2.3078,2.3078,2.3078,2.3078,2.3078,2.3078,2.3078,2.3078,2.3078,2.3078,2.3078,2.3078,2.2977,2.2711,2.284,2.304,2.3,2.3251,2.3665,2.423,2.3577,2.3259,2.3904,2.3305,2.3078,2.3886,2.3626,2.3793,2.4643,2.4319,2.4108,2.4108,2.4108,2.3891,2.3514,2.3514,2.3514,2.3514,2.3514,2.322,2.2627,2.1502,2.0629,1.9902,1.9316,1.9023,1.9023,1.876,1.8545,1.8389,1.8291,1.8164,1.7988,1.7734,1.7783,1.7939,1.7256,1.7305,1.7715,1.7285,1.7393,1.7764,2.7268,2.7243,2.7218,2.7268,2.7281,2.713,2.6747,2.6634,2.6596,2.6596,2.6559,2.6533,2.6533,2.5937,2.5598,2.5598,2.4657,2.3828,2.3251,2.3153,2.3153,2.3153,2.3766,2.3816,2.3228,2.4293,2.4293,2.3153,2.374,2.3703,2.3078,2.3078,2.3078,2.3078,2.3188,2.3153,2.3251,2.3828,2.374,2.3263,2.3791,2.3653,2.3078,2.3078,2.3078,2.3078,2.3078,2.3078,2.3078,2.3078,2.3078,2.3078,2.3078,2.3078,2.3078,2.3078,2.3078,2.3078,2.3078,2.3078,2.3078,2.3201,2.3153,2.3153,2.3153,2.319,2.3215,2.3165,2.319,2.3439,2.3916,2.4042,2.4255,2.4795,2.4858,2.4858,2.4958,2.4921,2.4908,2.4958,2.464,2.4715,2.5607,2.5359,2.5146,2.5146,2.5146,2.4707,2.3818,2.3734,2.3734,2.3734,2.3734,2.3734,2.3661,2.3059,2.1883,2.0118,1.9328,1.8952,1.8952,1.8842,1.8616,1.8272,1.8507,1.8429,1.8144,1.8202,1.8202,1.8152,1.7632,1.7475,1.7455,1.6846,1.6973,1.7383,2.7321,2.6929,2.6848,2.7205,2.7281,2.7394,2.7708,2.7381,2.7105,2.7105,2.6728,2.6533,2.6533,2.5937,2.5598,2.5598,2.5008,2.4406,2.3853,2.3803,2.3803,2.3803,2.4343,2.4594,2.4456,2.4695,2.4494,2.3803,2.3941,2.3703,2.3078,2.3078,2.3078,2.309,2.3602,2.3803,2.3853,2.4406,2.4318,2.3828,2.3954,2.3653,2.3078,2.3078,2.3078,2.3078,2.3078,2.3078,2.3078,2.3078,2.3078,2.3078,2.3078,2.3078,2.3078,2.3078,2.3078,2.3078,2.3078,2.3078,2.3178,2.3703,2.3803,2.3803,2.3803,2.4142,2.433,2.3904,2.4155,2.4356,2.4054,2.4356,2.482,2.5335,2.5084,2.5121,2.5988,2.5711,2.5598,2.605,2.6065,2.6058,2.6276,2.6239,2.6164,2.6164,2.6164,2.6094,2.5873,2.5873,2.5873,2.5873,2.5873,2.5499,2.4707,2.379,2.2891,2.2071,2.1936,2.1827,2.1745,2.0765,2.0274,2.0149,1.9458,1.9137,1.9044,1.9759,2.0009,1.9868,1.847,1.805,1.8204,1.6733,1.6709,1.7383,2.9485,2.9244,2.9125,2.9429,2.9412,2.9285,2.8841,2.8524,2.8216,2.7742,2.7193,2.6854,2.6854,2.6352,2.59,2.5624,2.5347,2.4958,2.4431,2.4393,2.4268,2.4004,2.4519,2.482,2.482,2.5059,2.4933,2.4393,2.413,2.3841,2.3552,2.3552,2.3552,2.3577,2.4142,2.4393,2.4431,2.4958,2.4883,2.4393,2.4393,2.4054,2.3514,2.3238,2.3078,2.3078,2.3078,2.3078,2.3078,2.3078,2.3078,2.3078,2.3078,2.3078,2.3078,2.3078,2.3078,2.3078,2.3078,2.3339,2.3615,2.3916,2.4381,2.4695,2.4443,2.4619,2.4745,2.4456,2.4619,2.4808,2.477,2.4996,2.5372,2.5912,2.5774,2.5799,2.6445,2.6201,2.6126,2.6496,2.6533,2.6533,2.6533,2.6533,2.6533,2.6533,2.6533,2.6533,2.6533,2.6533,2.6533,2.6533,2.6533,2.6245,2.5734,2.4902,2.434,2.4046,2.2719,2.2215,2.2439,2.2006,2.1533,2.1087,2.0736,2.0356,1.9955,2.0398,2.0445,2.0091,1.8988,1.8473,1.8337,1.7206,1.7133,1.7647,3.1958,3.1765,3.1681,3.1681,3.1681,3.1309,3.0204,2.9755,2.9282,2.8459,2.7821,2.7356,2.7155,2.6798,2.6264,2.5787,2.5737,2.5561,2.5134,2.5096,2.4845,2.4255,2.4418,2.4644,2.4922,2.5435,2.5485,2.4958,2.4494,2.423,2.4142,2.4142,2.4142,2.4167,2.4707,2.4958,2.4983,2.5523,2.5435,2.4958,2.4958,2.4632,2.4079,2.3502,2.3215,2.3215,2.3115,2.3078,2.3078,2.3078,2.3078,2.3078,2.3078,2.3078,2.3078,2.3078,2.314,2.3215,2.3215,2.3703,2.4167,2.4255,2.4933,2.5511,2.5172,2.5096,2.5071,2.4971,2.5034,2.5197,2.5536,2.5749,2.6038,2.6596,2.6678,2.6741,2.6741,2.6741,2.6741,2.6741,2.6653,2.6672,2.6672,2.6584,2.6533,2.6533,2.6533,2.6533,2.6533,2.6533,2.6533,2.6533,2.6533,2.6533,2.6533,2.5887,2.5649,2.5724,2.3297,2.2329,2.281,2.3028,2.2651,2.1797,2.1981,2.1619,2.0846,2.0974,2.0711,2.0205,1.9576,1.9041,1.8566,1.8036,1.7944,1.8099,3.2626,3.1778,3.1124,3.1124,3.1124,3.1376,3.2066,3.0821,2.9706,2.9566,2.8649,2.7632,2.6747,2.6571,2.6496,2.642,2.6408,2.6382,2.6239,2.6239,2.5925,2.5209,2.4017,2.3941,2.5268,2.6022,2.6063,2.5485,2.5423,2.5159,2.4707,2.4707,2.4707,2.4732,2.5259,2.5485,2.5523,2.6101,2.6013,2.5485,2.5485,2.5172,2.4644,2.4092,2.3879,2.3816,2.3314,2.3078,2.3078,2.3078,2.3078,2.3078,2.3078,2.3078,2.3078,2.3078,2.3489,2.3879,2.3879,2.4293,2.482,2.5272,2.5485,2.5711,2.6138,2.6239,2.6101,2.5598,2.5887,2.6101,2.5674,2.6402,2.708,2.7155,2.757,2.7883,2.7883,2.7883,2.7883,2.7883,2.7457,2.7168,2.7168,2.6741,2.6533,2.6533,2.6533,2.6533,2.6533,2.6533,2.6533,2.6533,2.6533,2.6533,2.6533,2.5887,2.585,2.6339,2.5473,2.5066,2.514,2.4434,2.3795,2.3171,2.2793,2.2297,2.1753,2.2445,2.2713,2.248,2.0864,2.0203,2.0016,1.9168,1.894,1.8999,3.4292,3.3825,3.3499,3.3499,3.3499,3.3688,3.4187,3.3492,3.2563,3.1489,3.095,3.0179,2.8955,2.7413,2.6533,2.6533,2.6533,2.6533,2.6533,2.6533,2.6382,2.6055,2.5347,2.5036,2.5062,2.562,2.5946,2.6076,2.5473,2.5165,2.5257,2.5237,2.5268,2.5293,2.5829,2.6076,2.6101,2.642,2.6382,2.605,2.5724,2.546,2.5197,2.4657,2.4268,2.3916,2.3339,2.3078,2.3078,2.3078,2.3078,2.3078,2.3078,2.3078,2.3078,2.3078,2.354,2.4004,2.4004,2.4619,2.531,2.5536,2.5837,2.6151,2.6471,2.6533,2.6546,2.6527,2.6741,2.6929,2.6992,2.7406,2.7745,2.7745,2.7946,2.8109,2.8109,2.8109,2.8109,2.8109,2.7896,2.7745,2.7745,2.7243,2.7042,2.7356,2.6804,2.6659,2.6904,2.6697,2.6533,2.6533,2.6533,2.6533,2.6533,2.6214,2.6214,2.6533,2.6201,2.6076,2.6076,2.571,2.5038,2.4186,2.3953,2.3364,2.258,2.2944,2.289,2.2564,2.1774,2.1276,2.0986,2.0921,2.0606,2.0213]}]]